<?xml version="1.0" encoding="UTF-8" standalone="no" ?>
<gpx xmlns="http://www.topografix.com/GPX/1/1" xmlns:xsi="http://www.w3.org/2001/XMLSchema-instance" xsi:schemaLocation="http://www.topografix.com/GPX/1/1 http://www.topografix.com/GPX/1/1/gpx.xsd" version="1.1" creator="VisuGPX - https://www.visugpx.com">
  <metadata>
    <name>Puyloubier  -  Puits d'Auzon  </name>
    <desc><![CDATA[Circuit sans grandes difficultés au départ de Puyloubier. Très beau parcours sur des pistes roulantes: essayez le, je vous le recommande vivement!]]></desc>
  </metadata>
  <trk>
    <name><![CDATA[20181104155822-jgC4U]]></name>
    <trkseg>
      <trkpt lat="43.52638" lon="5.68161">
        <ele>323.95</ele>
        <time>2018-11-04T07:05:01Z</time>
      </trkpt>
      <trkpt lat="43.52635" lon="5.68188">
        <ele>305.92</ele>
        <time>2018-11-04T07:10:11Z</time>
      </trkpt>
      <trkpt lat="43.52632" lon="5.68215">
        <ele>307.51</ele>
        <time>2018-11-04T07:10:19Z</time>
      </trkpt>
      <trkpt lat="43.52634" lon="5.68243">
        <ele>309.85</ele>
        <time>2018-11-04T07:10:27Z</time>
      </trkpt>
      <trkpt lat="43.52637" lon="5.6827">
        <ele>311.25</ele>
        <time>2018-11-04T07:10:34Z</time>
      </trkpt>
      <trkpt lat="43.5264" lon="5.68295">
        <ele>311.54</ele>
        <time>2018-11-04T07:10:40Z</time>
      </trkpt>
      <trkpt lat="43.52643" lon="5.68322">
        <ele>311.43</ele>
        <time>2018-11-04T07:10:45Z</time>
      </trkpt>
      <trkpt lat="43.52646" lon="5.68348">
        <ele>310.05</ele>
        <time>2018-11-04T07:10:49Z</time>
      </trkpt>
      <trkpt lat="43.52649" lon="5.68379">
        <ele>309.65</ele>
        <time>2018-11-04T07:10:53Z</time>
      </trkpt>
      <trkpt lat="43.52648" lon="5.68406">
        <ele>308.69</ele>
        <time>2018-11-04T07:10:56Z</time>
      </trkpt>
      <trkpt lat="43.52646" lon="5.68432">
        <ele>307.01</ele>
        <time>2018-11-04T07:10:59Z</time>
      </trkpt>
      <trkpt lat="43.52641" lon="5.68459">
        <ele>305.71</ele>
        <time>2018-11-04T07:11:02Z</time>
      </trkpt>
      <trkpt lat="43.52636" lon="5.68484">
        <ele>304.81</ele>
        <time>2018-11-04T07:11:05Z</time>
      </trkpt>
      <trkpt lat="43.52628" lon="5.68507">
        <ele>304.15</ele>
        <time>2018-11-04T07:11:08Z</time>
      </trkpt>
      <trkpt lat="43.52623" lon="5.68532">
        <ele>303.3</ele>
        <time>2018-11-04T07:11:11Z</time>
      </trkpt>
      <trkpt lat="43.52617" lon="5.68558">
        <ele>301.73</ele>
        <time>2018-11-04T07:11:14Z</time>
      </trkpt>
      <trkpt lat="43.52612" lon="5.68583">
        <ele>301.19</ele>
        <time>2018-11-04T07:11:17Z</time>
      </trkpt>
      <trkpt lat="43.52609" lon="5.6861">
        <ele>300.32</ele>
        <time>2018-11-04T07:11:20Z</time>
      </trkpt>
      <trkpt lat="43.5261" lon="5.68636">
        <ele>299.92</ele>
        <time>2018-11-04T07:11:23Z</time>
      </trkpt>
      <trkpt lat="43.52616" lon="5.68662">
        <ele>298.54</ele>
        <time>2018-11-04T07:11:26Z</time>
      </trkpt>
      <trkpt lat="43.52625" lon="5.68686">
        <ele>297.14</ele>
        <time>2018-11-04T07:11:29Z</time>
      </trkpt>
      <trkpt lat="43.52636" lon="5.68709">
        <ele>296.14</ele>
        <time>2018-11-04T07:11:32Z</time>
      </trkpt>
      <trkpt lat="43.52645" lon="5.68732">
        <ele>295.5</ele>
        <time>2018-11-04T07:11:35Z</time>
      </trkpt>
      <trkpt lat="43.52657" lon="5.6876">
        <ele>295.19</ele>
        <time>2018-11-04T07:11:39Z</time>
      </trkpt>
      <trkpt lat="43.52667" lon="5.68787">
        <ele>294.41</ele>
        <time>2018-11-04T07:11:43Z</time>
      </trkpt>
      <trkpt lat="43.52675" lon="5.68813">
        <ele>293.06</ele>
        <time>2018-11-04T07:11:47Z</time>
      </trkpt>
      <trkpt lat="43.52677" lon="5.68842">
        <ele>292.43</ele>
        <time>2018-11-04T07:11:52Z</time>
      </trkpt>
      <trkpt lat="43.52679" lon="5.68868">
        <ele>294.17</ele>
        <time>2018-11-04T07:11:58Z</time>
      </trkpt>
      <trkpt lat="43.52681" lon="5.68895">
        <ele>296.65</ele>
        <time>2018-11-04T07:12:05Z</time>
      </trkpt>
      <trkpt lat="43.52683" lon="5.68921">
        <ele>301.05</ele>
        <time>2018-11-04T07:12:13Z</time>
      </trkpt>
      <trkpt lat="43.52687" lon="5.68948">
        <ele>303.75</ele>
        <time>2018-11-04T07:12:21Z</time>
      </trkpt>
      <trkpt lat="43.5269" lon="5.68973">
        <ele>306.25</ele>
        <time>2018-11-04T07:12:29Z</time>
      </trkpt>
      <trkpt lat="43.52692" lon="5.69">
        <ele>307.12</ele>
        <time>2018-11-04T07:12:37Z</time>
      </trkpt>
      <trkpt lat="43.52701" lon="5.69025">
        <ele>307.59</ele>
        <time>2018-11-04T07:12:45Z</time>
      </trkpt>
      <trkpt lat="43.52717" lon="5.69041">
        <ele>307.34</ele>
        <time>2018-11-04T07:12:52Z</time>
      </trkpt>
      <trkpt lat="43.52725" lon="5.69064">
        <ele>307.84</ele>
        <time>2018-11-04T07:12:58Z</time>
      </trkpt>
      <trkpt lat="43.52732" lon="5.69088">
        <ele>307.86</ele>
        <time>2018-11-04T07:13:03Z</time>
      </trkpt>
      <trkpt lat="43.52742" lon="5.6911">
        <ele>308.07</ele>
        <time>2018-11-04T07:13:08Z</time>
      </trkpt>
      <trkpt lat="43.52752" lon="5.69131">
        <ele>308.23</ele>
        <time>2018-11-04T07:13:13Z</time>
      </trkpt>
      <trkpt lat="43.52762" lon="5.69156">
        <ele>309.13</ele>
        <time>2018-11-04T07:13:18Z</time>
      </trkpt>
      <trkpt lat="43.5277" lon="5.6918">
        <ele>309.89</ele>
        <time>2018-11-04T07:13:23Z</time>
      </trkpt>
      <trkpt lat="43.52778" lon="5.69205">
        <ele>309.86</ele>
        <time>2018-11-04T07:13:30Z</time>
      </trkpt>
      <trkpt lat="43.52785" lon="5.69229">
        <ele>311.46</ele>
        <time>2018-11-04T07:13:38Z</time>
      </trkpt>
      <trkpt lat="43.52799" lon="5.69245">
        <ele>313.38</ele>
        <time>2018-11-04T07:13:47Z</time>
      </trkpt>
      <trkpt lat="43.52819" lon="5.69246">
        <ele>316.72</ele>
        <time>2018-11-04T07:13:57Z</time>
      </trkpt>
      <trkpt lat="43.52837" lon="5.69247">
        <ele>319.64</ele>
        <time>2018-11-04T07:14:07Z</time>
      </trkpt>
      <trkpt lat="43.52857" lon="5.69249">
        <ele>320.2</ele>
        <time>2018-11-04T07:14:17Z</time>
      </trkpt>
      <trkpt lat="43.52874" lon="5.69258">
        <ele>321.66</ele>
        <time>2018-11-04T07:14:27Z</time>
      </trkpt>
      <trkpt lat="43.5288" lon="5.69283">
        <ele>322.8</ele>
        <time>2018-11-04T07:14:38Z</time>
      </trkpt>
      <trkpt lat="43.52879" lon="5.69309">
        <ele>323.85</ele>
        <time>2018-11-04T07:14:48Z</time>
      </trkpt>
      <trkpt lat="43.52882" lon="5.69335">
        <ele>325.74</ele>
        <time>2018-11-04T07:14:58Z</time>
      </trkpt>
      <trkpt lat="43.52884" lon="5.6936">
        <ele>328.77</ele>
        <time>2018-11-04T07:15:08Z</time>
      </trkpt>
      <trkpt lat="43.52889" lon="5.69385">
        <ele>331.03</ele>
        <time>2018-11-04T07:15:18Z</time>
      </trkpt>
      <trkpt lat="43.52896" lon="5.6941">
        <ele>331.03</ele>
        <time>2018-11-04T07:15:28Z</time>
      </trkpt>
      <trkpt lat="43.52902" lon="5.69436">
        <ele>334.75</ele>
        <time>2018-11-04T07:15:39Z</time>
      </trkpt>
      <trkpt lat="43.52914" lon="5.69455">
        <ele>338.8</ele>
        <time>2018-11-04T07:15:52Z</time>
      </trkpt>
      <trkpt lat="43.52929" lon="5.69471">
        <ele>342.18</ele>
        <time>2018-11-04T07:16:04Z</time>
      </trkpt>
      <trkpt lat="43.52946" lon="5.6948">
        <ele>345.5</ele>
        <time>2018-11-04T07:16:15Z</time>
      </trkpt>
      <trkpt lat="43.52965" lon="5.69477">
        <ele>346.76</ele>
        <time>2018-11-04T07:16:26Z</time>
      </trkpt>
      <trkpt lat="43.52984" lon="5.69469">
        <ele>347.32</ele>
        <time>2018-11-04T07:16:38Z</time>
      </trkpt>
      <trkpt lat="43.53001" lon="5.69458">
        <ele>348.42</ele>
        <time>2018-11-04T07:16:50Z</time>
      </trkpt>
      <trkpt lat="43.53018" lon="5.69446">
        <ele>349.76</ele>
        <time>2018-11-04T07:17:00Z</time>
      </trkpt>
      <trkpt lat="43.53036" lon="5.69439">
        <ele>351.37</ele>
        <time>2018-11-04T07:17:15Z</time>
      </trkpt>
      <trkpt lat="43.53053" lon="5.69452">
        <ele>354.27</ele>
        <time>2018-11-04T07:17:27Z</time>
      </trkpt>
      <trkpt lat="43.53051" lon="5.69477">
        <ele>356.59</ele>
        <time>2018-11-04T07:17:38Z</time>
      </trkpt>
      <trkpt lat="43.53052" lon="5.69503">
        <ele>359.71</ele>
        <time>2018-11-04T07:17:49Z</time>
      </trkpt>
      <trkpt lat="43.53055" lon="5.69529">
        <ele>362.49</ele>
        <time>2018-11-04T07:18:00Z</time>
      </trkpt>
      <trkpt lat="43.5306" lon="5.69554">
        <ele>364.28</ele>
        <time>2018-11-04T07:18:10Z</time>
      </trkpt>
      <trkpt lat="43.53067" lon="5.69578">
        <ele>364.45</ele>
        <time>2018-11-04T07:18:19Z</time>
      </trkpt>
      <trkpt lat="43.53071" lon="5.69603">
        <ele>364.35</ele>
        <time>2018-11-04T07:18:27Z</time>
      </trkpt>
      <trkpt lat="43.53077" lon="5.69628">
        <ele>364.66</ele>
        <time>2018-11-04T07:18:35Z</time>
      </trkpt>
      <trkpt lat="43.5308" lon="5.69653">
        <ele>364.4</ele>
        <time>2018-11-04T07:18:43Z</time>
      </trkpt>
      <trkpt lat="43.53084" lon="5.69678">
        <ele>364.81</ele>
        <time>2018-11-04T07:18:51Z</time>
      </trkpt>
      <trkpt lat="43.53086" lon="5.69705">
        <ele>367.59</ele>
        <time>2018-11-04T07:19:02Z</time>
      </trkpt>
      <trkpt lat="43.53098" lon="5.69725">
        <ele>370.25</ele>
        <time>2018-11-04T07:19:12Z</time>
      </trkpt>
      <trkpt lat="43.53117" lon="5.69732">
        <ele>373.12</ele>
        <time>2018-11-04T07:19:22Z</time>
      </trkpt>
      <trkpt lat="43.53134" lon="5.6974">
        <ele>374.45</ele>
        <time>2018-11-04T07:19:31Z</time>
      </trkpt>
      <trkpt lat="43.53152" lon="5.69745">
        <ele>374.86</ele>
        <time>2018-11-04T07:19:41Z</time>
      </trkpt>
      <trkpt lat="43.53168" lon="5.69759">
        <ele>378.48</ele>
        <time>2018-11-04T07:19:52Z</time>
      </trkpt>
      <trkpt lat="43.53157" lon="5.6978">
        <ele>381.57</ele>
        <time>2018-11-04T07:20:02Z</time>
      </trkpt>
      <trkpt lat="43.53143" lon="5.69798">
        <ele>383.78</ele>
        <time>2018-11-04T07:20:11Z</time>
      </trkpt>
      <trkpt lat="43.5314" lon="5.69825">
        <ele>386.04</ele>
        <time>2018-11-04T07:20:20Z</time>
      </trkpt>
      <trkpt lat="43.53147" lon="5.69849">
        <ele>387.4</ele>
        <time>2018-11-04T07:20:28Z</time>
      </trkpt>
      <trkpt lat="43.53157" lon="5.69872">
        <ele>387</ele>
        <time>2018-11-04T07:20:37Z</time>
      </trkpt>
      <trkpt lat="43.53171" lon="5.69891">
        <ele>388.02</ele>
        <time>2018-11-04T07:20:47Z</time>
      </trkpt>
      <trkpt lat="43.53186" lon="5.69906">
        <ele>390.25</ele>
        <time>2018-11-04T07:20:57Z</time>
      </trkpt>
      <trkpt lat="43.53203" lon="5.69918">
        <ele>392.22</ele>
        <time>2018-11-04T07:21:07Z</time>
      </trkpt>
      <trkpt lat="43.53221" lon="5.69931">
        <ele>394.48</ele>
        <time>2018-11-04T07:21:17Z</time>
      </trkpt>
      <trkpt lat="43.53221" lon="5.69956">
        <ele>395.72</ele>
        <time>2018-11-04T07:21:26Z</time>
      </trkpt>
      <trkpt lat="43.53211" lon="5.69978">
        <ele>396.39</ele>
        <time>2018-11-04T07:21:35Z</time>
      </trkpt>
      <trkpt lat="43.53199" lon="5.69997">
        <ele>398.53</ele>
        <time>2018-11-04T07:21:44Z</time>
      </trkpt>
      <trkpt lat="43.53198" lon="5.70022">
        <ele>400.07</ele>
        <time>2018-11-04T07:21:53Z</time>
      </trkpt>
      <trkpt lat="43.53202" lon="5.70048">
        <ele>400.75</ele>
        <time>2018-11-04T07:22:03Z</time>
      </trkpt>
      <trkpt lat="43.53202" lon="5.70074">
        <ele>402.02</ele>
        <time>2018-11-04T07:22:14Z</time>
      </trkpt>
      <trkpt lat="43.53204" lon="5.701">
        <ele>403.82</ele>
        <time>2018-11-04T07:22:25Z</time>
      </trkpt>
      <trkpt lat="43.53209" lon="5.70125">
        <ele>404.5</ele>
        <time>2018-11-04T07:22:35Z</time>
      </trkpt>
      <trkpt lat="43.53213" lon="5.7015">
        <ele>405.02</ele>
        <time>2018-11-04T07:22:46Z</time>
      </trkpt>
      <trkpt lat="43.53217" lon="5.70176">
        <ele>406.4</ele>
        <time>2018-11-04T07:22:57Z</time>
      </trkpt>
      <trkpt lat="43.53222" lon="5.70201">
        <ele>407</ele>
        <time>2018-11-04T07:23:07Z</time>
      </trkpt>
      <trkpt lat="43.53229" lon="5.70225">
        <ele>408.41</ele>
        <time>2018-11-04T07:23:17Z</time>
      </trkpt>
      <trkpt lat="43.53243" lon="5.70241">
        <ele>410.48</ele>
        <time>2018-11-04T07:23:26Z</time>
      </trkpt>
      <trkpt lat="43.53261" lon="5.70253">
        <ele>414.2</ele>
        <time>2018-11-04T07:23:36Z</time>
      </trkpt>
      <trkpt lat="43.53264" lon="5.7028">
        <ele>414.52</ele>
        <time>2018-11-04T07:23:45Z</time>
      </trkpt>
      <trkpt lat="43.53265" lon="5.70307">
        <ele>415.18</ele>
        <time>2018-11-04T07:23:54Z</time>
      </trkpt>
      <trkpt lat="43.53268" lon="5.70334">
        <ele>415.38</ele>
        <time>2018-11-04T07:24:04Z</time>
      </trkpt>
      <trkpt lat="43.53268" lon="5.70361">
        <ele>415.61</ele>
        <time>2018-11-04T07:24:23Z</time>
      </trkpt>
      <trkpt lat="43.53274" lon="5.70384">
        <ele>416.1</ele>
        <time>2018-11-04T07:24:31Z</time>
      </trkpt>
      <trkpt lat="43.53282" lon="5.70411">
        <ele>416.54</ele>
        <time>2018-11-04T07:24:39Z</time>
      </trkpt>
      <trkpt lat="43.5329" lon="5.70437">
        <ele>416.83</ele>
        <time>2018-11-04T07:24:46Z</time>
      </trkpt>
      <trkpt lat="43.53298" lon="5.70461">
        <ele>417.2</ele>
        <time>2018-11-04T07:24:53Z</time>
      </trkpt>
      <trkpt lat="43.53307" lon="5.70486">
        <ele>417.72</ele>
        <time>2018-11-04T07:25:00Z</time>
      </trkpt>
      <trkpt lat="43.53316" lon="5.70508">
        <ele>418.2</ele>
        <time>2018-11-04T07:25:06Z</time>
      </trkpt>
      <trkpt lat="43.53326" lon="5.70533">
        <ele>418.39</ele>
        <time>2018-11-04T07:25:13Z</time>
      </trkpt>
      <trkpt lat="43.53338" lon="5.70557">
        <ele>418.67</ele>
        <time>2018-11-04T07:25:20Z</time>
      </trkpt>
      <trkpt lat="43.53348" lon="5.70579">
        <ele>418.63</ele>
        <time>2018-11-04T07:25:26Z</time>
      </trkpt>
      <trkpt lat="43.53358" lon="5.70602">
        <ele>419.23</ele>
        <time>2018-11-04T07:25:32Z</time>
      </trkpt>
      <trkpt lat="43.53368" lon="5.70624">
        <ele>419.55</ele>
        <time>2018-11-04T07:25:38Z</time>
      </trkpt>
      <trkpt lat="43.53378" lon="5.70648">
        <ele>420.31</ele>
        <time>2018-11-04T07:25:44Z</time>
      </trkpt>
      <trkpt lat="43.53388" lon="5.70673">
        <ele>420.4</ele>
        <time>2018-11-04T07:25:50Z</time>
      </trkpt>
      <trkpt lat="43.53398" lon="5.70698">
        <ele>421.4</ele>
        <time>2018-11-04T07:25:56Z</time>
      </trkpt>
      <trkpt lat="43.53407" lon="5.70722">
        <ele>423.45</ele>
        <time>2018-11-04T07:26:02Z</time>
      </trkpt>
      <trkpt lat="43.53417" lon="5.70745">
        <ele>424.56</ele>
        <time>2018-11-04T07:26:08Z</time>
      </trkpt>
      <trkpt lat="43.53427" lon="5.70771">
        <ele>424.99</ele>
        <time>2018-11-04T07:26:14Z</time>
      </trkpt>
      <trkpt lat="43.53433" lon="5.70795">
        <ele>425.06</ele>
        <time>2018-11-04T07:26:19Z</time>
      </trkpt>
      <trkpt lat="43.5344" lon="5.70818">
        <ele>425.36</ele>
        <time>2018-11-04T07:26:25Z</time>
      </trkpt>
      <trkpt lat="43.53449" lon="5.70842">
        <ele>426.26</ele>
        <time>2018-11-04T07:26:31Z</time>
      </trkpt>
      <trkpt lat="43.53457" lon="5.70865">
        <ele>427.76</ele>
        <time>2018-11-04T07:26:36Z</time>
      </trkpt>
      <trkpt lat="43.53465" lon="5.70892">
        <ele>427</ele>
        <time>2018-11-04T07:26:42Z</time>
      </trkpt>
      <trkpt lat="43.53474" lon="5.70919">
        <ele>426.27</ele>
        <time>2018-11-04T07:26:48Z</time>
      </trkpt>
      <trkpt lat="43.53482" lon="5.70944">
        <ele>424.64</ele>
        <time>2018-11-04T07:26:54Z</time>
      </trkpt>
      <trkpt lat="43.53491" lon="5.70969">
        <ele>424.49</ele>
        <time>2018-11-04T07:27:00Z</time>
      </trkpt>
      <trkpt lat="43.53501" lon="5.70993">
        <ele>424.35</ele>
        <time>2018-11-04T07:27:06Z</time>
      </trkpt>
      <trkpt lat="43.5351" lon="5.71017">
        <ele>424.5</ele>
        <time>2018-11-04T07:27:12Z</time>
      </trkpt>
      <trkpt lat="43.5352" lon="5.71042">
        <ele>425.12</ele>
        <time>2018-11-04T07:27:18Z</time>
      </trkpt>
      <trkpt lat="43.53527" lon="5.71067">
        <ele>426.25</ele>
        <time>2018-11-04T07:27:24Z</time>
      </trkpt>
      <trkpt lat="43.53534" lon="5.71091">
        <ele>428.2</ele>
        <time>2018-11-04T07:27:30Z</time>
      </trkpt>
      <trkpt lat="43.53543" lon="5.71117">
        <ele>428.16</ele>
        <time>2018-11-04T07:27:36Z</time>
      </trkpt>
      <trkpt lat="43.53553" lon="5.71138">
        <ele>428.1</ele>
        <time>2018-11-04T07:27:42Z</time>
      </trkpt>
      <trkpt lat="43.53566" lon="5.71158">
        <ele>426.97</ele>
        <time>2018-11-04T07:27:48Z</time>
      </trkpt>
      <trkpt lat="43.53579" lon="5.71176">
        <ele>426.9</ele>
        <time>2018-11-04T07:27:54Z</time>
      </trkpt>
      <trkpt lat="43.53593" lon="5.71195">
        <ele>428.11</ele>
        <time>2018-11-04T07:28:00Z</time>
      </trkpt>
      <trkpt lat="43.53605" lon="5.71215">
        <ele>428.4</ele>
        <time>2018-11-04T07:28:06Z</time>
      </trkpt>
      <trkpt lat="43.53618" lon="5.71235">
        <ele>427.85</ele>
        <time>2018-11-04T07:28:12Z</time>
      </trkpt>
      <trkpt lat="43.53631" lon="5.71254">
        <ele>427.29</ele>
        <time>2018-11-04T07:28:18Z</time>
      </trkpt>
      <trkpt lat="43.53642" lon="5.71274">
        <ele>427.76</ele>
        <time>2018-11-04T07:28:24Z</time>
      </trkpt>
      <trkpt lat="43.53654" lon="5.71293">
        <ele>427.25</ele>
        <time>2018-11-04T07:28:30Z</time>
      </trkpt>
      <trkpt lat="43.53667" lon="5.71315">
        <ele>428.42</ele>
        <time>2018-11-04T07:28:37Z</time>
      </trkpt>
      <trkpt lat="43.5368" lon="5.71336">
        <ele>429.56</ele>
        <time>2018-11-04T07:28:44Z</time>
      </trkpt>
      <trkpt lat="43.53693" lon="5.71358">
        <ele>431.03</ele>
        <time>2018-11-04T07:28:51Z</time>
      </trkpt>
      <trkpt lat="43.53706" lon="5.71378">
        <ele>432.41</ele>
        <time>2018-11-04T07:28:58Z</time>
      </trkpt>
      <trkpt lat="43.53719" lon="5.71399">
        <ele>433.08</ele>
        <time>2018-11-04T07:29:05Z</time>
      </trkpt>
      <trkpt lat="43.53734" lon="5.71417">
        <ele>434.55</ele>
        <time>2018-11-04T07:29:12Z</time>
      </trkpt>
      <trkpt lat="43.53748" lon="5.71435">
        <ele>436.19</ele>
        <time>2018-11-04T07:29:20Z</time>
      </trkpt>
      <trkpt lat="43.53756" lon="5.71458">
        <ele>439.11</ele>
        <time>2018-11-04T07:29:28Z</time>
      </trkpt>
      <trkpt lat="43.5375" lon="5.71484">
        <ele>441.57</ele>
        <time>2018-11-04T07:29:36Z</time>
      </trkpt>
      <trkpt lat="43.53737" lon="5.71507">
        <ele>443.99</ele>
        <time>2018-11-04T07:29:44Z</time>
      </trkpt>
      <trkpt lat="43.53724" lon="5.71528">
        <ele>446.75</ele>
        <time>2018-11-04T07:29:52Z</time>
      </trkpt>
      <trkpt lat="43.53722" lon="5.71554">
        <ele>447.85</ele>
        <time>2018-11-04T07:30:00Z</time>
      </trkpt>
      <trkpt lat="43.53737" lon="5.71572">
        <ele>445.7</ele>
        <time>2018-11-04T07:30:11Z</time>
      </trkpt>
      <trkpt lat="43.53756" lon="5.71569">
        <ele>442.68</ele>
        <time>2018-11-04T07:30:20Z</time>
      </trkpt>
      <trkpt lat="43.53775" lon="5.71566">
        <ele>443.18</ele>
        <time>2018-11-04T07:30:30Z</time>
      </trkpt>
      <trkpt lat="43.53793" lon="5.71564">
        <ele>443.82</ele>
        <time>2018-11-04T07:30:40Z</time>
      </trkpt>
      <trkpt lat="43.53811" lon="5.71562">
        <ele>444.05</ele>
        <time>2018-11-04T07:30:49Z</time>
      </trkpt>
      <trkpt lat="43.53829" lon="5.7156">
        <ele>443.33</ele>
        <time>2018-11-04T07:30:58Z</time>
      </trkpt>
      <trkpt lat="43.53848" lon="5.71556">
        <ele>445.77</ele>
        <time>2018-11-04T07:31:07Z</time>
      </trkpt>
      <trkpt lat="43.53867" lon="5.71553">
        <ele>445.57</ele>
        <time>2018-11-04T07:31:17Z</time>
      </trkpt>
      <trkpt lat="43.53886" lon="5.71552">
        <ele>448.12</ele>
        <time>2018-11-04T07:31:27Z</time>
      </trkpt>
      <trkpt lat="43.53905" lon="5.71548">
        <ele>449.8</ele>
        <time>2018-11-04T07:31:37Z</time>
      </trkpt>
      <trkpt lat="43.53924" lon="5.71545">
        <ele>451.17</ele>
        <time>2018-11-04T07:31:47Z</time>
      </trkpt>
      <trkpt lat="43.53943" lon="5.7154">
        <ele>452.87</ele>
        <time>2018-11-04T07:31:56Z</time>
      </trkpt>
      <trkpt lat="43.53962" lon="5.71538">
        <ele>453.81</ele>
        <time>2018-11-04T07:32:07Z</time>
      </trkpt>
      <trkpt lat="43.5396" lon="5.71563">
        <ele>455.54</ele>
        <time>2018-11-04T07:35:46Z</time>
      </trkpt>
      <trkpt lat="43.5398" lon="5.71558">
        <ele>454.7</ele>
        <time>2018-11-04T07:35:55Z</time>
      </trkpt>
      <trkpt lat="43.5399" lon="5.7158">
        <ele>453.7</ele>
        <time>2018-11-04T07:36:06Z</time>
      </trkpt>
      <trkpt lat="43.54002" lon="5.71601">
        <ele>450.99</ele>
        <time>2018-11-04T07:36:15Z</time>
      </trkpt>
      <trkpt lat="43.54021" lon="5.71602">
        <ele>447.01</ele>
        <time>2018-11-04T07:36:24Z</time>
      </trkpt>
      <trkpt lat="43.5404" lon="5.71605">
        <ele>442.94</ele>
        <time>2018-11-04T07:36:32Z</time>
      </trkpt>
      <trkpt lat="43.5406" lon="5.71607">
        <ele>439.46</ele>
        <time>2018-11-04T07:36:38Z</time>
      </trkpt>
      <trkpt lat="43.54079" lon="5.716">
        <ele>436.15</ele>
        <time>2018-11-04T07:36:44Z</time>
      </trkpt>
      <trkpt lat="43.54096" lon="5.71591">
        <ele>433.47</ele>
        <time>2018-11-04T07:36:50Z</time>
      </trkpt>
      <trkpt lat="43.54115" lon="5.71585">
        <ele>431.28</ele>
        <time>2018-11-04T07:36:58Z</time>
      </trkpt>
      <trkpt lat="43.54133" lon="5.71582">
        <ele>429.64</ele>
        <time>2018-11-04T07:37:04Z</time>
      </trkpt>
      <trkpt lat="43.54153" lon="5.71582">
        <ele>428.35</ele>
        <time>2018-11-04T07:37:10Z</time>
      </trkpt>
      <trkpt lat="43.54174" lon="5.71583">
        <ele>427.45</ele>
        <time>2018-11-04T07:37:16Z</time>
      </trkpt>
      <trkpt lat="43.54192" lon="5.71578">
        <ele>427.07</ele>
        <time>2018-11-04T07:37:22Z</time>
      </trkpt>
      <trkpt lat="43.54207" lon="5.71563">
        <ele>427.07</ele>
        <time>2018-11-04T07:37:28Z</time>
      </trkpt>
      <trkpt lat="43.54221" lon="5.71546">
        <ele>426.43</ele>
        <time>2018-11-04T07:37:34Z</time>
      </trkpt>
      <trkpt lat="43.54237" lon="5.71534">
        <ele>426.84</ele>
        <time>2018-11-04T07:37:40Z</time>
      </trkpt>
      <trkpt lat="43.54253" lon="5.71515">
        <ele>426.83</ele>
        <time>2018-11-04T07:37:47Z</time>
      </trkpt>
      <trkpt lat="43.5427" lon="5.71496">
        <ele>427.26</ele>
        <time>2018-11-04T07:37:53Z</time>
      </trkpt>
      <trkpt lat="43.54287" lon="5.71484">
        <ele>426.63</ele>
        <time>2018-11-04T07:38:00Z</time>
      </trkpt>
      <trkpt lat="43.54303" lon="5.7147">
        <ele>426.87</ele>
        <time>2018-11-04T07:38:08Z</time>
      </trkpt>
      <trkpt lat="43.54319" lon="5.71453">
        <ele>425.68</ele>
        <time>2018-11-04T07:38:15Z</time>
      </trkpt>
      <trkpt lat="43.5434" lon="5.71448">
        <ele>423.89</ele>
        <time>2018-11-04T07:38:22Z</time>
      </trkpt>
      <trkpt lat="43.5436" lon="5.7145">
        <ele>423.89</ele>
        <time>2018-11-04T07:38:28Z</time>
      </trkpt>
      <trkpt lat="43.54378" lon="5.71454">
        <ele>425.14</ele>
        <time>2018-11-04T07:38:34Z</time>
      </trkpt>
      <trkpt lat="43.54397" lon="5.71461">
        <ele>427.53</ele>
        <time>2018-11-04T07:38:40Z</time>
      </trkpt>
      <trkpt lat="43.54415" lon="5.71461">
        <ele>428.79</ele>
        <time>2018-11-04T07:38:48Z</time>
      </trkpt>
      <trkpt lat="43.54435" lon="5.71464">
        <ele>429.18</ele>
        <time>2018-11-04T07:38:55Z</time>
      </trkpt>
      <trkpt lat="43.54455" lon="5.7147">
        <ele>429.12</ele>
        <time>2018-11-04T07:39:01Z</time>
      </trkpt>
      <trkpt lat="43.54474" lon="5.71473">
        <ele>429.06</ele>
        <time>2018-11-04T07:39:06Z</time>
      </trkpt>
      <trkpt lat="43.54495" lon="5.71477">
        <ele>428.74</ele>
        <time>2018-11-04T07:39:11Z</time>
      </trkpt>
      <trkpt lat="43.54516" lon="5.7148">
        <ele>428.45</ele>
        <time>2018-11-04T07:39:16Z</time>
      </trkpt>
      <trkpt lat="43.54534" lon="5.71489">
        <ele>428.98</ele>
        <time>2018-11-04T07:39:21Z</time>
      </trkpt>
      <trkpt lat="43.54552" lon="5.715">
        <ele>428.49</ele>
        <time>2018-11-04T07:39:27Z</time>
      </trkpt>
      <trkpt lat="43.54571" lon="5.7151">
        <ele>429.11</ele>
        <time>2018-11-04T07:39:32Z</time>
      </trkpt>
      <trkpt lat="43.54589" lon="5.71522">
        <ele>428.82</ele>
        <time>2018-11-04T07:39:37Z</time>
      </trkpt>
      <trkpt lat="43.54609" lon="5.71533">
        <ele>428.07</ele>
        <time>2018-11-04T07:39:42Z</time>
      </trkpt>
      <trkpt lat="43.54627" lon="5.71545">
        <ele>426.69</ele>
        <time>2018-11-04T07:39:46Z</time>
      </trkpt>
      <trkpt lat="43.54647" lon="5.71558">
        <ele>425.58</ele>
        <time>2018-11-04T07:39:50Z</time>
      </trkpt>
      <trkpt lat="43.54665" lon="5.71569">
        <ele>424.68</ele>
        <time>2018-11-04T07:39:54Z</time>
      </trkpt>
      <trkpt lat="43.54683" lon="5.7158">
        <ele>423.78</ele>
        <time>2018-11-04T07:39:58Z</time>
      </trkpt>
      <trkpt lat="43.547" lon="5.7159">
        <ele>422.52</ele>
        <time>2018-11-04T07:40:02Z</time>
      </trkpt>
      <trkpt lat="43.54717" lon="5.71581">
        <ele>415.49</ele>
        <time>2018-11-04T07:42:57Z</time>
      </trkpt>
      <trkpt lat="43.54735" lon="5.71569">
        <ele>413.28</ele>
        <time>2018-11-04T07:43:07Z</time>
      </trkpt>
      <trkpt lat="43.5475" lon="5.71555">
        <ele>415.26</ele>
        <time>2018-11-04T07:43:15Z</time>
      </trkpt>
      <trkpt lat="43.54767" lon="5.71543">
        <ele>419.28</ele>
        <time>2018-11-04T07:43:23Z</time>
      </trkpt>
      <trkpt lat="43.54786" lon="5.71543">
        <ele>422.65</ele>
        <time>2018-11-04T07:43:30Z</time>
      </trkpt>
      <trkpt lat="43.54804" lon="5.71538">
        <ele>424.97</ele>
        <time>2018-11-04T07:43:37Z</time>
      </trkpt>
      <trkpt lat="43.54822" lon="5.71528">
        <ele>425.79</ele>
        <time>2018-11-04T07:43:44Z</time>
      </trkpt>
      <trkpt lat="43.54841" lon="5.71515">
        <ele>425.03</ele>
        <time>2018-11-04T07:43:51Z</time>
      </trkpt>
      <trkpt lat="43.54855" lon="5.71499">
        <ele>423.08</ele>
        <time>2018-11-04T07:43:57Z</time>
      </trkpt>
      <trkpt lat="43.54864" lon="5.71477">
        <ele>424.31</ele>
        <time>2018-11-04T07:44:03Z</time>
      </trkpt>
      <trkpt lat="43.54875" lon="5.71456">
        <ele>425.9</ele>
        <time>2018-11-04T07:44:10Z</time>
      </trkpt>
      <trkpt lat="43.5489" lon="5.71437">
        <ele>426.84</ele>
        <time>2018-11-04T07:44:18Z</time>
      </trkpt>
      <trkpt lat="43.54905" lon="5.7142">
        <ele>426.56</ele>
        <time>2018-11-04T07:44:29Z</time>
      </trkpt>
      <trkpt lat="43.54921" lon="5.71406">
        <ele>426.24</ele>
        <time>2018-11-04T07:44:37Z</time>
      </trkpt>
      <trkpt lat="43.54934" lon="5.71387">
        <ele>426.95</ele>
        <time>2018-11-04T07:44:45Z</time>
      </trkpt>
      <trkpt lat="43.54946" lon="5.71365">
        <ele>428.11</ele>
        <time>2018-11-04T07:44:53Z</time>
      </trkpt>
      <trkpt lat="43.5496" lon="5.71345">
        <ele>427.42</ele>
        <time>2018-11-04T07:45:00Z</time>
      </trkpt>
      <trkpt lat="43.54972" lon="5.71321">
        <ele>428.26</ele>
        <time>2018-11-04T07:45:07Z</time>
      </trkpt>
      <trkpt lat="43.54981" lon="5.71298">
        <ele>429.59</ele>
        <time>2018-11-04T07:45:14Z</time>
      </trkpt>
      <trkpt lat="43.54991" lon="5.71277">
        <ele>431.6</ele>
        <time>2018-11-04T07:45:21Z</time>
      </trkpt>
      <trkpt lat="43.55001" lon="5.71256">
        <ele>433.4</ele>
        <time>2018-11-04T07:45:28Z</time>
      </trkpt>
      <trkpt lat="43.55015" lon="5.71239">
        <ele>434.55</ele>
        <time>2018-11-04T07:45:34Z</time>
      </trkpt>
      <trkpt lat="43.55029" lon="5.71221">
        <ele>434.83</ele>
        <time>2018-11-04T07:45:40Z</time>
      </trkpt>
      <trkpt lat="43.55043" lon="5.71203">
        <ele>435.39</ele>
        <time>2018-11-04T07:45:46Z</time>
      </trkpt>
      <trkpt lat="43.55055" lon="5.71183">
        <ele>437.03</ele>
        <time>2018-11-04T07:45:52Z</time>
      </trkpt>
      <trkpt lat="43.5507" lon="5.71163">
        <ele>438.04</ele>
        <time>2018-11-04T07:45:59Z</time>
      </trkpt>
      <trkpt lat="43.5508" lon="5.71142">
        <ele>437.49</ele>
        <time>2018-11-04T07:46:05Z</time>
      </trkpt>
      <trkpt lat="43.55089" lon="5.7112">
        <ele>438.28</ele>
        <time>2018-11-04T07:46:11Z</time>
      </trkpt>
      <trkpt lat="43.55101" lon="5.71099">
        <ele>438.46</ele>
        <time>2018-11-04T07:46:17Z</time>
      </trkpt>
      <trkpt lat="43.55114" lon="5.71079">
        <ele>438.69</ele>
        <time>2018-11-04T07:46:23Z</time>
      </trkpt>
      <trkpt lat="43.55125" lon="5.71058">
        <ele>438.76</ele>
        <time>2018-11-04T07:46:29Z</time>
      </trkpt>
      <trkpt lat="43.55134" lon="5.71034">
        <ele>439.16</ele>
        <time>2018-11-04T07:46:36Z</time>
      </trkpt>
      <trkpt lat="43.55147" lon="5.71016">
        <ele>439.36</ele>
        <time>2018-11-04T07:46:42Z</time>
      </trkpt>
      <trkpt lat="43.55161" lon="5.70995">
        <ele>440.03</ele>
        <time>2018-11-04T07:46:49Z</time>
      </trkpt>
      <trkpt lat="43.55173" lon="5.70974">
        <ele>441.04</ele>
        <time>2018-11-04T07:46:55Z</time>
      </trkpt>
      <trkpt lat="43.55185" lon="5.70951">
        <ele>440.56</ele>
        <time>2018-11-04T07:47:02Z</time>
      </trkpt>
      <trkpt lat="43.55199" lon="5.7093">
        <ele>438.95</ele>
        <time>2018-11-04T07:47:10Z</time>
      </trkpt>
      <trkpt lat="43.55212" lon="5.70912">
        <ele>439.22</ele>
        <time>2018-11-04T07:47:17Z</time>
      </trkpt>
      <trkpt lat="43.55226" lon="5.70892">
        <ele>439.17</ele>
        <time>2018-11-04T07:47:24Z</time>
      </trkpt>
      <trkpt lat="43.55244" lon="5.70885">
        <ele>437.94</ele>
        <time>2018-11-04T07:47:32Z</time>
      </trkpt>
      <trkpt lat="43.55261" lon="5.70877">
        <ele>435.75</ele>
        <time>2018-11-04T07:47:56Z</time>
      </trkpt>
      <trkpt lat="43.55279" lon="5.7087">
        <ele>434.75</ele>
        <time>2018-11-04T07:48:04Z</time>
      </trkpt>
      <trkpt lat="43.55297" lon="5.70856">
        <ele>435.52</ele>
        <time>2018-11-04T07:48:11Z</time>
      </trkpt>
      <trkpt lat="43.55311" lon="5.70839">
        <ele>436.12</ele>
        <time>2018-11-04T07:48:17Z</time>
      </trkpt>
      <trkpt lat="43.55328" lon="5.70831">
        <ele>436.33</ele>
        <time>2018-11-04T07:48:25Z</time>
      </trkpt>
      <trkpt lat="43.55345" lon="5.70823">
        <ele>436.47</ele>
        <time>2018-11-04T07:48:32Z</time>
      </trkpt>
      <trkpt lat="43.55364" lon="5.70812">
        <ele>437.82</ele>
        <time>2018-11-04T07:48:40Z</time>
      </trkpt>
      <trkpt lat="43.55379" lon="5.70793">
        <ele>439.13</ele>
        <time>2018-11-04T07:48:48Z</time>
      </trkpt>
      <trkpt lat="43.55393" lon="5.70774">
        <ele>440.09</ele>
        <time>2018-11-04T07:48:55Z</time>
      </trkpt>
      <trkpt lat="43.55408" lon="5.70757">
        <ele>439.9</ele>
        <time>2018-11-04T07:49:02Z</time>
      </trkpt>
      <trkpt lat="43.55423" lon="5.70741">
        <ele>440.06</ele>
        <time>2018-11-04T07:49:09Z</time>
      </trkpt>
      <trkpt lat="43.55437" lon="5.70721">
        <ele>442.02</ele>
        <time>2018-11-04T07:49:16Z</time>
      </trkpt>
      <trkpt lat="43.55449" lon="5.70701">
        <ele>443.47</ele>
        <time>2018-11-04T07:49:23Z</time>
      </trkpt>
      <trkpt lat="43.55463" lon="5.70684">
        <ele>444.8</ele>
        <time>2018-11-04T07:49:30Z</time>
      </trkpt>
      <trkpt lat="43.55475" lon="5.70665">
        <ele>445.6</ele>
        <time>2018-11-04T07:49:37Z</time>
      </trkpt>
      <trkpt lat="43.55486" lon="5.70645">
        <ele>446.54</ele>
        <time>2018-11-04T07:49:44Z</time>
      </trkpt>
      <trkpt lat="43.55493" lon="5.70621">
        <ele>445.54</ele>
        <time>2018-11-04T07:49:55Z</time>
      </trkpt>
      <trkpt lat="43.55512" lon="5.70612">
        <ele>445.7</ele>
        <time>2018-11-04T07:50:08Z</time>
      </trkpt>
      <trkpt lat="43.5553" lon="5.70605">
        <ele>446.73</ele>
        <time>2018-11-04T07:50:18Z</time>
      </trkpt>
      <trkpt lat="43.55549" lon="5.70599">
        <ele>445.83</ele>
        <time>2018-11-04T07:50:27Z</time>
      </trkpt>
      <trkpt lat="43.55568" lon="5.70591">
        <ele>445.57</ele>
        <time>2018-11-04T07:50:36Z</time>
      </trkpt>
      <trkpt lat="43.55584" lon="5.70581">
        <ele>446.22</ele>
        <time>2018-11-04T07:50:45Z</time>
      </trkpt>
      <trkpt lat="43.55602" lon="5.70571">
        <ele>446.47</ele>
        <time>2018-11-04T07:50:52Z</time>
      </trkpt>
      <trkpt lat="43.55619" lon="5.70581">
        <ele>445.51</ele>
        <time>2018-11-04T07:50:59Z</time>
      </trkpt>
      <trkpt lat="43.55622" lon="5.70608">
        <ele>443.6</ele>
        <time>2018-11-04T07:51:05Z</time>
      </trkpt>
      <trkpt lat="43.55625" lon="5.70636">
        <ele>441.67</ele>
        <time>2018-11-04T07:51:12Z</time>
      </trkpt>
      <trkpt lat="43.55626" lon="5.70667">
        <ele>439.48</ele>
        <time>2018-11-04T07:51:16Z</time>
      </trkpt>
      <trkpt lat="43.55625" lon="5.70694">
        <ele>439.29</ele>
        <time>2018-11-04T07:51:19Z</time>
      </trkpt>
      <trkpt lat="43.55624" lon="5.70721">
        <ele>439.12</ele>
        <time>2018-11-04T07:51:22Z</time>
      </trkpt>
      <trkpt lat="43.5562" lon="5.70749">
        <ele>438.5</ele>
        <time>2018-11-04T07:51:26Z</time>
      </trkpt>
      <trkpt lat="43.55615" lon="5.70774">
        <ele>438.74</ele>
        <time>2018-11-04T07:51:32Z</time>
      </trkpt>
      <trkpt lat="43.55632" lon="5.70761">
        <ele>440.49</ele>
        <time>2018-11-04T07:51:48Z</time>
      </trkpt>
      <trkpt lat="43.55644" lon="5.70742">
        <ele>442.39</ele>
        <time>2018-11-04T07:51:56Z</time>
      </trkpt>
      <trkpt lat="43.55658" lon="5.70724">
        <ele>444.78</ele>
        <time>2018-11-04T07:52:06Z</time>
      </trkpt>
      <trkpt lat="43.55672" lon="5.70705">
        <ele>446.24</ele>
        <time>2018-11-04T07:52:15Z</time>
      </trkpt>
      <trkpt lat="43.55686" lon="5.70691">
        <ele>446.07</ele>
        <time>2018-11-04T07:52:25Z</time>
      </trkpt>
      <trkpt lat="43.55701" lon="5.70676">
        <ele>448.13</ele>
        <time>2018-11-04T07:52:34Z</time>
      </trkpt>
      <trkpt lat="43.55715" lon="5.70659">
        <ele>450.88</ele>
        <time>2018-11-04T07:52:44Z</time>
      </trkpt>
      <trkpt lat="43.55732" lon="5.70647">
        <ele>452.88</ele>
        <time>2018-11-04T07:52:54Z</time>
      </trkpt>
      <trkpt lat="43.55752" lon="5.70642">
        <ele>455.1</ele>
        <time>2018-11-04T07:53:04Z</time>
      </trkpt>
      <trkpt lat="43.55769" lon="5.70647">
        <ele>455.65</ele>
        <time>2018-11-04T07:53:14Z</time>
      </trkpt>
      <trkpt lat="43.55786" lon="5.70659">
        <ele>456.03</ele>
        <time>2018-11-04T07:53:24Z</time>
      </trkpt>
      <trkpt lat="43.55802" lon="5.70671">
        <ele>458.16</ele>
        <time>2018-11-04T07:53:34Z</time>
      </trkpt>
      <trkpt lat="43.5582" lon="5.70675">
        <ele>460.7</ele>
        <time>2018-11-04T07:53:46Z</time>
      </trkpt>
      <trkpt lat="43.55834" lon="5.70659">
        <ele>462.22</ele>
        <time>2018-11-04T07:54:01Z</time>
      </trkpt>
      <trkpt lat="43.55837" lon="5.70633">
        <ele>463.19</ele>
        <time>2018-11-04T07:54:12Z</time>
      </trkpt>
      <trkpt lat="43.55847" lon="5.70613">
        <ele>465.79</ele>
        <time>2018-11-04T07:54:22Z</time>
      </trkpt>
      <trkpt lat="43.55862" lon="5.70598">
        <ele>468.61</ele>
        <time>2018-11-04T07:54:33Z</time>
      </trkpt>
      <trkpt lat="43.55879" lon="5.70588">
        <ele>470.2</ele>
        <time>2018-11-04T07:54:45Z</time>
      </trkpt>
      <trkpt lat="43.55898" lon="5.7059">
        <ele>471.54</ele>
        <time>2018-11-04T07:54:56Z</time>
      </trkpt>
      <trkpt lat="43.55915" lon="5.70598">
        <ele>473.2</ele>
        <time>2018-11-04T07:55:07Z</time>
      </trkpt>
      <trkpt lat="43.55931" lon="5.7061">
        <ele>475.49</ele>
        <time>2018-11-04T07:55:20Z</time>
      </trkpt>
      <trkpt lat="43.55948" lon="5.70621">
        <ele>478.5</ele>
        <time>2018-11-04T07:55:33Z</time>
      </trkpt>
      <trkpt lat="43.55965" lon="5.70611">
        <ele>480.68</ele>
        <time>2018-11-04T07:55:46Z</time>
      </trkpt>
      <trkpt lat="43.5598" lon="5.70595">
        <ele>483.6</ele>
        <time>2018-11-04T07:55:58Z</time>
      </trkpt>
      <trkpt lat="43.55998" lon="5.70585">
        <ele>485.9</ele>
        <time>2018-11-04T07:56:11Z</time>
      </trkpt>
      <trkpt lat="43.56014" lon="5.7057">
        <ele>488.67</ele>
        <time>2018-11-04T07:56:23Z</time>
      </trkpt>
      <trkpt lat="43.56018" lon="5.70545">
        <ele>490.32</ele>
        <time>2018-11-04T07:56:35Z</time>
      </trkpt>
      <trkpt lat="43.56017" lon="5.7052">
        <ele>491.12</ele>
        <time>2018-11-04T07:56:46Z</time>
      </trkpt>
      <trkpt lat="43.5601" lon="5.70495">
        <ele>491.94</ele>
        <time>2018-11-04T07:56:56Z</time>
      </trkpt>
      <trkpt lat="43.56002" lon="5.70471">
        <ele>493.2</ele>
        <time>2018-11-04T07:57:07Z</time>
      </trkpt>
      <trkpt lat="43.55992" lon="5.70447">
        <ele>495.02</ele>
        <time>2018-11-04T07:57:19Z</time>
      </trkpt>
      <trkpt lat="43.55988" lon="5.70421">
        <ele>496.62</ele>
        <time>2018-11-04T07:57:30Z</time>
      </trkpt>
      <trkpt lat="43.5599" lon="5.70395">
        <ele>496.79</ele>
        <time>2018-11-04T07:57:41Z</time>
      </trkpt>
      <trkpt lat="43.55992" lon="5.7037">
        <ele>496.77</ele>
        <time>2018-11-04T07:57:51Z</time>
      </trkpt>
      <trkpt lat="43.5599" lon="5.70345">
        <ele>497.04</ele>
        <time>2018-11-04T07:58:00Z</time>
      </trkpt>
      <trkpt lat="43.55983" lon="5.70322">
        <ele>497.86</ele>
        <time>2018-11-04T07:58:09Z</time>
      </trkpt>
      <trkpt lat="43.55976" lon="5.70297">
        <ele>492.29</ele>
        <time>2018-11-04T08:01:30Z</time>
      </trkpt>
      <trkpt lat="43.5599" lon="5.70315">
        <ele>492.5</ele>
        <time>2018-11-04T08:01:48Z</time>
      </trkpt>
      <trkpt lat="43.56001" lon="5.70336">
        <ele>495.91</ele>
        <time>2018-11-04T08:01:58Z</time>
      </trkpt>
      <trkpt lat="43.56012" lon="5.70356">
        <ele>497.9</ele>
        <time>2018-11-04T08:02:08Z</time>
      </trkpt>
      <trkpt lat="43.56024" lon="5.70377">
        <ele>500.59</ele>
        <time>2018-11-04T08:02:19Z</time>
      </trkpt>
      <trkpt lat="43.56036" lon="5.70396">
        <ele>502.02</ele>
        <time>2018-11-04T08:02:29Z</time>
      </trkpt>
      <trkpt lat="43.56051" lon="5.70413">
        <ele>502.92</ele>
        <time>2018-11-04T08:03:26Z</time>
      </trkpt>
      <trkpt lat="43.56063" lon="5.70433">
        <ele>504</ele>
        <time>2018-11-04T08:03:35Z</time>
      </trkpt>
      <trkpt lat="43.56076" lon="5.70452">
        <ele>505.52</ele>
        <time>2018-11-04T08:03:44Z</time>
      </trkpt>
      <trkpt lat="43.56089" lon="5.70472">
        <ele>507.12</ele>
        <time>2018-11-04T08:03:54Z</time>
      </trkpt>
      <trkpt lat="43.56102" lon="5.70491">
        <ele>509.69</ele>
        <time>2018-11-04T08:04:03Z</time>
      </trkpt>
      <trkpt lat="43.56115" lon="5.70509">
        <ele>511.31</ele>
        <time>2018-11-04T08:04:12Z</time>
      </trkpt>
      <trkpt lat="43.56128" lon="5.70531">
        <ele>513.4</ele>
        <time>2018-11-04T08:04:22Z</time>
      </trkpt>
      <trkpt lat="43.56138" lon="5.70551">
        <ele>514.36</ele>
        <time>2018-11-04T08:04:32Z</time>
      </trkpt>
      <trkpt lat="43.56148" lon="5.70576">
        <ele>510.19</ele>
        <time>2018-11-04T08:05:23Z</time>
      </trkpt>
      <trkpt lat="43.56157" lon="5.70598">
        <ele>511.74</ele>
        <time>2018-11-04T08:05:30Z</time>
      </trkpt>
      <trkpt lat="43.56163" lon="5.70622">
        <ele>514.35</ele>
        <time>2018-11-04T08:05:38Z</time>
      </trkpt>
      <trkpt lat="43.56168" lon="5.70647">
        <ele>516.72</ele>
        <time>2018-11-04T08:05:47Z</time>
      </trkpt>
      <trkpt lat="43.56172" lon="5.70671">
        <ele>517.43</ele>
        <time>2018-11-04T08:05:55Z</time>
      </trkpt>
      <trkpt lat="43.56175" lon="5.70696">
        <ele>517.13</ele>
        <time>2018-11-04T08:06:03Z</time>
      </trkpt>
      <trkpt lat="43.56181" lon="5.70723">
        <ele>517.72</ele>
        <time>2018-11-04T08:06:12Z</time>
      </trkpt>
      <trkpt lat="43.56187" lon="5.70747">
        <ele>517.85</ele>
        <time>2018-11-04T08:06:19Z</time>
      </trkpt>
      <trkpt lat="43.56193" lon="5.70774">
        <ele>517.41</ele>
        <time>2018-11-04T08:06:26Z</time>
      </trkpt>
      <trkpt lat="43.56199" lon="5.708">
        <ele>516.44</ele>
        <time>2018-11-04T08:06:32Z</time>
      </trkpt>
      <trkpt lat="43.56203" lon="5.70826">
        <ele>515.12</ele>
        <time>2018-11-04T08:06:37Z</time>
      </trkpt>
      <trkpt lat="43.56208" lon="5.70854">
        <ele>512.95</ele>
        <time>2018-11-04T08:06:42Z</time>
      </trkpt>
      <trkpt lat="43.56213" lon="5.70883">
        <ele>511.32</ele>
        <time>2018-11-04T08:06:47Z</time>
      </trkpt>
      <trkpt lat="43.56221" lon="5.70906">
        <ele>510.12</ele>
        <time>2018-11-04T08:06:51Z</time>
      </trkpt>
      <trkpt lat="43.56231" lon="5.70928">
        <ele>508.62</ele>
        <time>2018-11-04T08:06:55Z</time>
      </trkpt>
      <trkpt lat="43.56243" lon="5.70952">
        <ele>506.58</ele>
        <time>2018-11-04T08:07:00Z</time>
      </trkpt>
      <trkpt lat="43.56256" lon="5.70976">
        <ele>506.15</ele>
        <time>2018-11-04T08:07:05Z</time>
      </trkpt>
      <trkpt lat="43.56267" lon="5.70997">
        <ele>505.61</ele>
        <time>2018-11-04T08:07:09Z</time>
      </trkpt>
      <trkpt lat="43.56279" lon="5.71019">
        <ele>504.3</ele>
        <time>2018-11-04T08:07:13Z</time>
      </trkpt>
      <trkpt lat="43.56291" lon="5.71041">
        <ele>503.01</ele>
        <time>2018-11-04T08:07:17Z</time>
      </trkpt>
      <trkpt lat="43.56304" lon="5.71066">
        <ele>501.11</ele>
        <time>2018-11-04T08:07:21Z</time>
      </trkpt>
      <trkpt lat="43.56318" lon="5.71089">
        <ele>499.05</ele>
        <time>2018-11-04T08:07:25Z</time>
      </trkpt>
      <trkpt lat="43.56336" lon="5.7111">
        <ele>497.05</ele>
        <time>2018-11-04T08:07:29Z</time>
      </trkpt>
      <trkpt lat="43.5635" lon="5.71126">
        <ele>495.63</ele>
        <time>2018-11-04T08:07:32Z</time>
      </trkpt>
      <trkpt lat="43.56365" lon="5.7114">
        <ele>494.35</ele>
        <time>2018-11-04T08:07:35Z</time>
      </trkpt>
      <trkpt lat="43.56381" lon="5.71153">
        <ele>493.07</ele>
        <time>2018-11-04T08:07:38Z</time>
      </trkpt>
      <trkpt lat="43.56396" lon="5.71166">
        <ele>492.06</ele>
        <time>2018-11-04T08:07:41Z</time>
      </trkpt>
      <trkpt lat="43.56415" lon="5.71182">
        <ele>489.79</ele>
        <time>2018-11-04T08:07:45Z</time>
      </trkpt>
      <trkpt lat="43.56432" lon="5.71195">
        <ele>489.13</ele>
        <time>2018-11-04T08:07:49Z</time>
      </trkpt>
      <trkpt lat="43.56449" lon="5.71207">
        <ele>489.22</ele>
        <time>2018-11-04T08:07:53Z</time>
      </trkpt>
      <trkpt lat="43.56465" lon="5.7122">
        <ele>489.26</ele>
        <time>2018-11-04T08:07:57Z</time>
      </trkpt>
      <trkpt lat="43.56481" lon="5.71234">
        <ele>489.23</ele>
        <time>2018-11-04T08:08:01Z</time>
      </trkpt>
      <trkpt lat="43.56495" lon="5.71252">
        <ele>488.97</ele>
        <time>2018-11-04T08:08:05Z</time>
      </trkpt>
      <trkpt lat="43.56507" lon="5.71276">
        <ele>488.24</ele>
        <time>2018-11-04T08:08:09Z</time>
      </trkpt>
      <trkpt lat="43.56518" lon="5.71304">
        <ele>487.52</ele>
        <time>2018-11-04T08:08:13Z</time>
      </trkpt>
      <trkpt lat="43.56525" lon="5.71334">
        <ele>487.17</ele>
        <time>2018-11-04T08:08:17Z</time>
      </trkpt>
      <trkpt lat="43.56532" lon="5.71359">
        <ele>486.75</ele>
        <time>2018-11-04T08:08:21Z</time>
      </trkpt>
      <trkpt lat="43.56538" lon="5.71386">
        <ele>486.42</ele>
        <time>2018-11-04T08:08:26Z</time>
      </trkpt>
      <trkpt lat="43.56543" lon="5.71414">
        <ele>486.19</ele>
        <time>2018-11-04T08:08:32Z</time>
      </trkpt>
      <trkpt lat="43.56545" lon="5.7144">
        <ele>486.9</ele>
        <time>2018-11-04T08:08:38Z</time>
      </trkpt>
      <trkpt lat="43.56551" lon="5.71466">
        <ele>488.23</ele>
        <time>2018-11-04T08:08:44Z</time>
      </trkpt>
      <trkpt lat="43.56562" lon="5.71487">
        <ele>490.27</ele>
        <time>2018-11-04T08:08:49Z</time>
      </trkpt>
      <trkpt lat="43.56577" lon="5.71503">
        <ele>492.59</ele>
        <time>2018-11-04T08:08:56Z</time>
      </trkpt>
      <trkpt lat="43.56593" lon="5.71517">
        <ele>493.78</ele>
        <time>2018-11-04T08:09:03Z</time>
      </trkpt>
      <trkpt lat="43.5661" lon="5.7153">
        <ele>495.3</ele>
        <time>2018-11-04T08:09:10Z</time>
      </trkpt>
      <trkpt lat="43.56627" lon="5.7154">
        <ele>497.27</ele>
        <time>2018-11-04T08:09:17Z</time>
      </trkpt>
      <trkpt lat="43.56644" lon="5.71552">
        <ele>498.5</ele>
        <time>2018-11-04T08:09:24Z</time>
      </trkpt>
      <trkpt lat="43.56661" lon="5.71563">
        <ele>498.84</ele>
        <time>2018-11-04T08:09:31Z</time>
      </trkpt>
      <trkpt lat="43.5668" lon="5.7157">
        <ele>498.84</ele>
        <time>2018-11-04T08:09:38Z</time>
      </trkpt>
      <trkpt lat="43.567" lon="5.71572">
        <ele>499.04</ele>
        <time>2018-11-04T08:09:45Z</time>
      </trkpt>
      <trkpt lat="43.56718" lon="5.7157">
        <ele>499.82</ele>
        <time>2018-11-04T08:09:52Z</time>
      </trkpt>
      <trkpt lat="43.56737" lon="5.71563">
        <ele>500.42</ele>
        <time>2018-11-04T08:10:00Z</time>
      </trkpt>
      <trkpt lat="43.56755" lon="5.71558">
        <ele>502.64</ele>
        <time>2018-11-04T08:10:11Z</time>
      </trkpt>
      <trkpt lat="43.56773" lon="5.71555">
        <ele>503.73</ele>
        <time>2018-11-04T08:10:23Z</time>
      </trkpt>
      <trkpt lat="43.56792" lon="5.71555">
        <ele>503.47</ele>
        <time>2018-11-04T08:10:32Z</time>
      </trkpt>
      <trkpt lat="43.56812" lon="5.71551">
        <ele>501.92</ele>
        <time>2018-11-04T08:10:39Z</time>
      </trkpt>
      <trkpt lat="43.56831" lon="5.71542">
        <ele>500.74</ele>
        <time>2018-11-04T08:10:44Z</time>
      </trkpt>
      <trkpt lat="43.56849" lon="5.71534">
        <ele>499.04</ele>
        <time>2018-11-04T08:10:48Z</time>
      </trkpt>
      <trkpt lat="43.56869" lon="5.71528">
        <ele>496.6</ele>
        <time>2018-11-04T08:10:52Z</time>
      </trkpt>
      <trkpt lat="43.56889" lon="5.71526">
        <ele>494.91</ele>
        <time>2018-11-04T08:10:56Z</time>
      </trkpt>
      <trkpt lat="43.56912" lon="5.71526">
        <ele>492.61</ele>
        <time>2018-11-04T08:11:00Z</time>
      </trkpt>
      <trkpt lat="43.56934" lon="5.71529">
        <ele>490.35</ele>
        <time>2018-11-04T08:11:03Z</time>
      </trkpt>
      <trkpt lat="43.56957" lon="5.71537">
        <ele>487.04</ele>
        <time>2018-11-04T08:11:06Z</time>
      </trkpt>
      <trkpt lat="43.5698" lon="5.71546">
        <ele>485.01</ele>
        <time>2018-11-04T08:11:09Z</time>
      </trkpt>
      <trkpt lat="43.57001" lon="5.71556">
        <ele>482.92</ele>
        <time>2018-11-04T08:11:12Z</time>
      </trkpt>
      <trkpt lat="43.57018" lon="5.71568">
        <ele>480.27</ele>
        <time>2018-11-04T08:11:15Z</time>
      </trkpt>
      <trkpt lat="43.57036" lon="5.71583">
        <ele>477.84</ele>
        <time>2018-11-04T08:11:18Z</time>
      </trkpt>
      <trkpt lat="43.57053" lon="5.71597">
        <ele>475.51</ele>
        <time>2018-11-04T08:11:21Z</time>
      </trkpt>
      <trkpt lat="43.5707" lon="5.71612">
        <ele>473.17</ele>
        <time>2018-11-04T08:11:24Z</time>
      </trkpt>
      <trkpt lat="43.57086" lon="5.7163">
        <ele>470.78</ele>
        <time>2018-11-04T08:11:27Z</time>
      </trkpt>
      <trkpt lat="43.57098" lon="5.71655">
        <ele>467.42</ele>
        <time>2018-11-04T08:11:30Z</time>
      </trkpt>
      <trkpt lat="43.57111" lon="5.71683">
        <ele>465.01</ele>
        <time>2018-11-04T08:11:33Z</time>
      </trkpt>
      <trkpt lat="43.57125" lon="5.71711">
        <ele>462.94</ele>
        <time>2018-11-04T08:11:36Z</time>
      </trkpt>
      <trkpt lat="43.57139" lon="5.7174">
        <ele>461</ele>
        <time>2018-11-04T08:11:39Z</time>
      </trkpt>
      <trkpt lat="43.57152" lon="5.71765">
        <ele>459.28</ele>
        <time>2018-11-04T08:11:42Z</time>
      </trkpt>
      <trkpt lat="43.57165" lon="5.71791">
        <ele>457.42</ele>
        <time>2018-11-04T08:11:45Z</time>
      </trkpt>
      <trkpt lat="43.57179" lon="5.71818">
        <ele>455.67</ele>
        <time>2018-11-04T08:11:48Z</time>
      </trkpt>
      <trkpt lat="43.57192" lon="5.71844">
        <ele>454.24</ele>
        <time>2018-11-04T08:11:51Z</time>
      </trkpt>
      <trkpt lat="43.57206" lon="5.71872">
        <ele>452.33</ele>
        <time>2018-11-04T08:11:54Z</time>
      </trkpt>
      <trkpt lat="43.57222" lon="5.71901">
        <ele>450.83</ele>
        <time>2018-11-04T08:11:57Z</time>
      </trkpt>
      <trkpt lat="43.57239" lon="5.71929">
        <ele>449.45</ele>
        <time>2018-11-04T08:12:00Z</time>
      </trkpt>
      <trkpt lat="43.57257" lon="5.71956">
        <ele>448.31</ele>
        <time>2018-11-04T08:12:03Z</time>
      </trkpt>
      <trkpt lat="43.57275" lon="5.7198">
        <ele>448.13</ele>
        <time>2018-11-04T08:12:06Z</time>
      </trkpt>
      <trkpt lat="43.57289" lon="5.71998">
        <ele>447.93</ele>
        <time>2018-11-04T08:12:09Z</time>
      </trkpt>
      <trkpt lat="43.57304" lon="5.72017">
        <ele>447.2</ele>
        <time>2018-11-04T08:12:14Z</time>
      </trkpt>
      <trkpt lat="43.5732" lon="5.72038">
        <ele>446.26</ele>
        <time>2018-11-04T08:12:20Z</time>
      </trkpt>
      <trkpt lat="43.57336" lon="5.72056">
        <ele>446.66</ele>
        <time>2018-11-04T08:12:25Z</time>
      </trkpt>
      <trkpt lat="43.57351" lon="5.72074">
        <ele>446.93</ele>
        <time>2018-11-04T08:12:31Z</time>
      </trkpt>
      <trkpt lat="43.57362" lon="5.72053">
        <ele>445.33</ele>
        <time>2018-11-04T08:15:48Z</time>
      </trkpt>
      <trkpt lat="43.57361" lon="5.72025">
        <ele>446.51</ele>
        <time>2018-11-04T08:15:56Z</time>
      </trkpt>
      <trkpt lat="43.57351" lon="5.72003">
        <ele>446.3</ele>
        <time>2018-11-04T08:16:02Z</time>
      </trkpt>
      <trkpt lat="43.57337" lon="5.71988">
        <ele>445.38</ele>
        <time>2018-11-04T08:16:07Z</time>
      </trkpt>
      <trkpt lat="43.57317" lon="5.71973">
        <ele>444.57</ele>
        <time>2018-11-04T08:16:12Z</time>
      </trkpt>
      <trkpt lat="43.57301" lon="5.71961">
        <ele>444.35</ele>
        <time>2018-11-04T08:16:16Z</time>
      </trkpt>
      <trkpt lat="43.57286" lon="5.71945">
        <ele>444.75</ele>
        <time>2018-11-04T08:16:20Z</time>
      </trkpt>
      <trkpt lat="43.57276" lon="5.71919">
        <ele>445.7</ele>
        <time>2018-11-04T08:16:25Z</time>
      </trkpt>
      <trkpt lat="43.57269" lon="5.7189">
        <ele>446.02</ele>
        <time>2018-11-04T08:16:30Z</time>
      </trkpt>
      <trkpt lat="43.5727" lon="5.71864">
        <ele>445.96</ele>
        <time>2018-11-04T08:16:34Z</time>
      </trkpt>
      <trkpt lat="43.57281" lon="5.71836">
        <ele>444.94</ele>
        <time>2018-11-04T08:16:38Z</time>
      </trkpt>
      <trkpt lat="43.5729" lon="5.71815">
        <ele>443.18</ele>
        <time>2018-11-04T08:16:41Z</time>
      </trkpt>
      <trkpt lat="43.57302" lon="5.71788">
        <ele>440.78</ele>
        <time>2018-11-04T08:16:45Z</time>
      </trkpt>
      <trkpt lat="43.57306" lon="5.71756">
        <ele>437.82</ele>
        <time>2018-11-04T08:16:49Z</time>
      </trkpt>
      <trkpt lat="43.57306" lon="5.71732">
        <ele>436.17</ele>
        <time>2018-11-04T08:16:52Z</time>
      </trkpt>
      <trkpt lat="43.57303" lon="5.71707">
        <ele>435</ele>
        <time>2018-11-04T08:16:55Z</time>
      </trkpt>
      <trkpt lat="43.57292" lon="5.71679">
        <ele>433.09</ele>
        <time>2018-11-04T08:16:59Z</time>
      </trkpt>
      <trkpt lat="43.5728" lon="5.71656">
        <ele>431.25</ele>
        <time>2018-11-04T08:17:03Z</time>
      </trkpt>
      <trkpt lat="43.57269" lon="5.71637">
        <ele>430.49</ele>
        <time>2018-11-04T08:17:07Z</time>
      </trkpt>
      <trkpt lat="43.57255" lon="5.71616">
        <ele>429.6</ele>
        <time>2018-11-04T08:17:11Z</time>
      </trkpt>
      <trkpt lat="43.57239" lon="5.71597">
        <ele>429.08</ele>
        <time>2018-11-04T08:17:15Z</time>
      </trkpt>
      <trkpt lat="43.57226" lon="5.71577">
        <ele>428</ele>
        <time>2018-11-04T08:17:19Z</time>
      </trkpt>
      <trkpt lat="43.57214" lon="5.71557">
        <ele>427.85</ele>
        <time>2018-11-04T08:17:23Z</time>
      </trkpt>
      <trkpt lat="43.57211" lon="5.71533">
        <ele>427.55</ele>
        <time>2018-11-04T08:17:28Z</time>
      </trkpt>
      <trkpt lat="43.57231" lon="5.71522">
        <ele>427.25</ele>
        <time>2018-11-04T08:17:34Z</time>
      </trkpt>
      <trkpt lat="43.57248" lon="5.71513">
        <ele>425.05</ele>
        <time>2018-11-04T08:17:38Z</time>
      </trkpt>
      <trkpt lat="43.57266" lon="5.71501">
        <ele>424.31</ele>
        <time>2018-11-04T08:17:42Z</time>
      </trkpt>
      <trkpt lat="43.57286" lon="5.7149">
        <ele>422.92</ele>
        <time>2018-11-04T08:17:46Z</time>
      </trkpt>
      <trkpt lat="43.57301" lon="5.71476">
        <ele>422.66</ele>
        <time>2018-11-04T08:17:50Z</time>
      </trkpt>
      <trkpt lat="43.57301" lon="5.71451">
        <ele>423.12</ele>
        <time>2018-11-04T08:17:55Z</time>
      </trkpt>
      <trkpt lat="43.5729" lon="5.71426">
        <ele>423.23</ele>
        <time>2018-11-04T08:18:00Z</time>
      </trkpt>
      <trkpt lat="43.57277" lon="5.71408">
        <ele>423.21</ele>
        <time>2018-11-04T08:18:04Z</time>
      </trkpt>
      <trkpt lat="43.57262" lon="5.71392">
        <ele>422.59</ele>
        <time>2018-11-04T08:18:08Z</time>
      </trkpt>
      <trkpt lat="43.57243" lon="5.71382">
        <ele>421.67</ele>
        <time>2018-11-04T08:18:13Z</time>
      </trkpt>
      <trkpt lat="43.57223" lon="5.71371">
        <ele>421.17</ele>
        <time>2018-11-04T08:18:18Z</time>
      </trkpt>
      <trkpt lat="43.57206" lon="5.71355">
        <ele>421.04</ele>
        <time>2018-11-04T08:18:23Z</time>
      </trkpt>
      <trkpt lat="43.5719" lon="5.71333">
        <ele>421.62</ele>
        <time>2018-11-04T08:18:28Z</time>
      </trkpt>
      <trkpt lat="43.57183" lon="5.71305">
        <ele>422.59</ele>
        <time>2018-11-04T08:18:33Z</time>
      </trkpt>
      <trkpt lat="43.57181" lon="5.71275">
        <ele>424.26</ele>
        <time>2018-11-04T08:18:38Z</time>
      </trkpt>
      <trkpt lat="43.57186" lon="5.71246">
        <ele>426.44</ele>
        <time>2018-11-04T08:18:43Z</time>
      </trkpt>
      <trkpt lat="43.57191" lon="5.71218">
        <ele>426.72</ele>
        <time>2018-11-04T08:18:48Z</time>
      </trkpt>
      <trkpt lat="43.57195" lon="5.71193">
        <ele>425.83</ele>
        <time>2018-11-04T08:18:52Z</time>
      </trkpt>
      <trkpt lat="43.57198" lon="5.71167">
        <ele>426.06</ele>
        <time>2018-11-04T08:18:56Z</time>
      </trkpt>
      <trkpt lat="43.57202" lon="5.71143">
        <ele>424.63</ele>
        <time>2018-11-04T08:19:00Z</time>
      </trkpt>
      <trkpt lat="43.57205" lon="5.71112">
        <ele>423.77</ele>
        <time>2018-11-04T08:19:05Z</time>
      </trkpt>
      <trkpt lat="43.57204" lon="5.71083">
        <ele>423.33</ele>
        <time>2018-11-04T08:19:10Z</time>
      </trkpt>
      <trkpt lat="43.57189" lon="5.71062">
        <ele>423.55</ele>
        <time>2018-11-04T08:19:15Z</time>
      </trkpt>
      <trkpt lat="43.57172" lon="5.71055">
        <ele>423.13</ele>
        <time>2018-11-04T08:19:19Z</time>
      </trkpt>
      <trkpt lat="43.57155" lon="5.71044">
        <ele>423.05</ele>
        <time>2018-11-04T08:19:23Z</time>
      </trkpt>
      <trkpt lat="43.57139" lon="5.7103">
        <ele>423.06</ele>
        <time>2018-11-04T08:19:27Z</time>
      </trkpt>
      <trkpt lat="43.57124" lon="5.71011">
        <ele>422.31</ele>
        <time>2018-11-04T08:19:31Z</time>
      </trkpt>
      <trkpt lat="43.57114" lon="5.70988">
        <ele>422.14</ele>
        <time>2018-11-04T08:19:35Z</time>
      </trkpt>
      <trkpt lat="43.57106" lon="5.70964">
        <ele>421.59</ele>
        <time>2018-11-04T08:19:39Z</time>
      </trkpt>
      <trkpt lat="43.57093" lon="5.70943">
        <ele>420.97</ele>
        <time>2018-11-04T08:19:43Z</time>
      </trkpt>
      <trkpt lat="43.57076" lon="5.70929">
        <ele>421.07</ele>
        <time>2018-11-04T08:19:47Z</time>
      </trkpt>
      <trkpt lat="43.57055" lon="5.70919">
        <ele>420.26</ele>
        <time>2018-11-04T08:19:52Z</time>
      </trkpt>
      <trkpt lat="43.57036" lon="5.70916">
        <ele>419.48</ele>
        <time>2018-11-04T08:19:56Z</time>
      </trkpt>
      <trkpt lat="43.57016" lon="5.70926">
        <ele>419.05</ele>
        <time>2018-11-04T08:20:01Z</time>
      </trkpt>
      <trkpt lat="43.57001" lon="5.70939">
        <ele>418.93</ele>
        <time>2018-11-04T08:20:05Z</time>
      </trkpt>
      <trkpt lat="43.56979" lon="5.7094">
        <ele>419.22</ele>
        <time>2018-11-04T08:20:10Z</time>
      </trkpt>
      <trkpt lat="43.56965" lon="5.70919">
        <ele>419.66</ele>
        <time>2018-11-04T08:20:15Z</time>
      </trkpt>
      <trkpt lat="43.56945" lon="5.70918">
        <ele>419.02</ele>
        <time>2018-11-04T08:20:22Z</time>
      </trkpt>
      <trkpt lat="43.56928" lon="5.70933">
        <ele>417.97</ele>
        <time>2018-11-04T08:20:27Z</time>
      </trkpt>
      <trkpt lat="43.56908" lon="5.7093">
        <ele>418.34</ele>
        <time>2018-11-04T08:20:33Z</time>
      </trkpt>
      <trkpt lat="43.56923" lon="5.70913">
        <ele>409.9</ele>
        <time>2018-11-04T08:23:38Z</time>
      </trkpt>
      <trkpt lat="43.56931" lon="5.70889">
        <ele>411.61</ele>
        <time>2018-11-04T08:23:46Z</time>
      </trkpt>
      <trkpt lat="43.5694" lon="5.70864">
        <ele>414.48</ele>
        <time>2018-11-04T08:23:55Z</time>
      </trkpt>
      <trkpt lat="43.56955" lon="5.70847">
        <ele>416.59</ele>
        <time>2018-11-04T08:24:03Z</time>
      </trkpt>
      <trkpt lat="43.56974" lon="5.70849">
        <ele>417.61</ele>
        <time>2018-11-04T08:24:11Z</time>
      </trkpt>
      <trkpt lat="43.5699" lon="5.70867">
        <ele>418.98</ele>
        <time>2018-11-04T08:24:20Z</time>
      </trkpt>
      <trkpt lat="43.57008" lon="5.7086">
        <ele>420.15</ele>
        <time>2018-11-04T08:24:28Z</time>
      </trkpt>
      <trkpt lat="43.57025" lon="5.70849">
        <ele>420.42</ele>
        <time>2018-11-04T08:24:35Z</time>
      </trkpt>
      <trkpt lat="43.57043" lon="5.70839">
        <ele>422.18</ele>
        <time>2018-11-04T08:24:44Z</time>
      </trkpt>
      <trkpt lat="43.57061" lon="5.70831">
        <ele>424.63</ele>
        <time>2018-11-04T08:24:52Z</time>
      </trkpt>
      <trkpt lat="43.57072" lon="5.70808">
        <ele>426.86</ele>
        <time>2018-11-04T08:25:01Z</time>
      </trkpt>
      <trkpt lat="43.57076" lon="5.70783">
        <ele>428.24</ele>
        <time>2018-11-04T08:25:09Z</time>
      </trkpt>
      <trkpt lat="43.57083" lon="5.70758">
        <ele>429.42</ele>
        <time>2018-11-04T08:25:18Z</time>
      </trkpt>
      <trkpt lat="43.57089" lon="5.70734">
        <ele>430.6</ele>
        <time>2018-11-04T08:25:26Z</time>
      </trkpt>
      <trkpt lat="43.57089" lon="5.70708">
        <ele>432.12</ele>
        <time>2018-11-04T08:25:34Z</time>
      </trkpt>
      <trkpt lat="43.57089" lon="5.70683">
        <ele>434.69</ele>
        <time>2018-11-04T08:25:42Z</time>
      </trkpt>
      <trkpt lat="43.57101" lon="5.70662">
        <ele>436.22</ele>
        <time>2018-11-04T08:25:50Z</time>
      </trkpt>
      <trkpt lat="43.57117" lon="5.70672">
        <ele>434.99</ele>
        <time>2018-11-04T08:26:05Z</time>
      </trkpt>
      <trkpt lat="43.57117" lon="5.70697">
        <ele>432.86</ele>
        <time>2018-11-04T08:26:13Z</time>
      </trkpt>
      <trkpt lat="43.57122" lon="5.70723">
        <ele>432.33</ele>
        <time>2018-11-04T08:26:21Z</time>
      </trkpt>
      <trkpt lat="43.57128" lon="5.70747">
        <ele>433.62</ele>
        <time>2018-11-04T08:26:29Z</time>
      </trkpt>
      <trkpt lat="43.57132" lon="5.70774">
        <ele>434.8</ele>
        <time>2018-11-04T08:26:38Z</time>
      </trkpt>
      <trkpt lat="43.57135" lon="5.70801">
        <ele>435.88</ele>
        <time>2018-11-04T08:26:47Z</time>
      </trkpt>
      <trkpt lat="43.57144" lon="5.70827">
        <ele>437.2</ele>
        <time>2018-11-04T08:26:56Z</time>
      </trkpt>
      <trkpt lat="43.5716" lon="5.70844">
        <ele>437.85</ele>
        <time>2018-11-04T08:27:05Z</time>
      </trkpt>
      <trkpt lat="43.57177" lon="5.70858">
        <ele>438.33</ele>
        <time>2018-11-04T08:27:13Z</time>
      </trkpt>
      <trkpt lat="43.57196" lon="5.7086">
        <ele>440.19</ele>
        <time>2018-11-04T08:27:22Z</time>
      </trkpt>
      <trkpt lat="43.57214" lon="5.70852">
        <ele>441.9</ele>
        <time>2018-11-04T08:27:30Z</time>
      </trkpt>
      <trkpt lat="43.57233" lon="5.70848">
        <ele>442.38</ele>
        <time>2018-11-04T08:27:39Z</time>
      </trkpt>
      <trkpt lat="43.57251" lon="5.70856">
        <ele>441.92</ele>
        <time>2018-11-04T08:27:48Z</time>
      </trkpt>
      <trkpt lat="43.57271" lon="5.70859">
        <ele>442.94</ele>
        <time>2018-11-04T08:27:58Z</time>
      </trkpt>
      <trkpt lat="43.5729" lon="5.70866">
        <ele>442.94</ele>
        <time>2018-11-04T08:28:07Z</time>
      </trkpt>
      <trkpt lat="43.57308" lon="5.70879">
        <ele>443.37</ele>
        <time>2018-11-04T08:28:16Z</time>
      </trkpt>
      <trkpt lat="43.57327" lon="5.7088">
        <ele>444.23</ele>
        <time>2018-11-04T08:28:25Z</time>
      </trkpt>
      <trkpt lat="43.57345" lon="5.7089">
        <ele>445.5</ele>
        <time>2018-11-04T08:28:34Z</time>
      </trkpt>
      <trkpt lat="43.5736" lon="5.70907">
        <ele>446.62</ele>
        <time>2018-11-04T08:28:43Z</time>
      </trkpt>
      <trkpt lat="43.57379" lon="5.70915">
        <ele>448.5</ele>
        <time>2018-11-04T08:28:52Z</time>
      </trkpt>
      <trkpt lat="43.57396" lon="5.70922">
        <ele>449.94</ele>
        <time>2018-11-04T08:29:01Z</time>
      </trkpt>
      <trkpt lat="43.57409" lon="5.70943">
        <ele>450.35</ele>
        <time>2018-11-04T08:29:11Z</time>
      </trkpt>
      <trkpt lat="43.57421" lon="5.70964">
        <ele>447.84</ele>
        <time>2018-11-04T08:29:20Z</time>
      </trkpt>
      <trkpt lat="43.57434" lon="5.70981">
        <ele>447.84</ele>
        <time>2018-11-04T08:29:28Z</time>
      </trkpt>
      <trkpt lat="43.57449" lon="5.70999">
        <ele>448.93</ele>
        <time>2018-11-04T08:29:37Z</time>
      </trkpt>
      <trkpt lat="43.57462" lon="5.71019">
        <ele>449.66</ele>
        <time>2018-11-04T08:29:46Z</time>
      </trkpt>
      <trkpt lat="43.57473" lon="5.71041">
        <ele>449.7</ele>
        <time>2018-11-04T08:29:55Z</time>
      </trkpt>
      <trkpt lat="43.57479" lon="5.71067">
        <ele>451.31</ele>
        <time>2018-11-04T08:30:04Z</time>
      </trkpt>
      <trkpt lat="43.57478" lon="5.71092">
        <ele>453.65</ele>
        <time>2018-11-04T08:30:12Z</time>
      </trkpt>
      <trkpt lat="43.57471" lon="5.71117">
        <ele>454.46</ele>
        <time>2018-11-04T08:30:21Z</time>
      </trkpt>
      <trkpt lat="43.57461" lon="5.71139">
        <ele>455.94</ele>
        <time>2018-11-04T08:30:30Z</time>
      </trkpt>
      <trkpt lat="43.5746" lon="5.71166">
        <ele>456.73</ele>
        <time>2018-11-04T08:30:39Z</time>
      </trkpt>
      <trkpt lat="43.57472" lon="5.71186">
        <ele>458</ele>
        <time>2018-11-04T08:30:48Z</time>
      </trkpt>
      <trkpt lat="43.5749" lon="5.71191">
        <ele>459.88</ele>
        <time>2018-11-04T08:30:57Z</time>
      </trkpt>
      <trkpt lat="43.57509" lon="5.71193">
        <ele>461.9</ele>
        <time>2018-11-04T08:31:07Z</time>
      </trkpt>
      <trkpt lat="43.57528" lon="5.7119">
        <ele>462.86</ele>
        <time>2018-11-04T08:31:16Z</time>
      </trkpt>
      <trkpt lat="43.57544" lon="5.71178">
        <ele>462.94</ele>
        <time>2018-11-04T08:31:25Z</time>
      </trkpt>
      <trkpt lat="43.57556" lon="5.71157">
        <ele>464.93</ele>
        <time>2018-11-04T08:32:32Z</time>
      </trkpt>
      <trkpt lat="43.57569" lon="5.71136">
        <ele>466.19</ele>
        <time>2018-11-04T08:32:41Z</time>
      </trkpt>
      <trkpt lat="43.5758" lon="5.71115">
        <ele>468.18</ele>
        <time>2018-11-04T08:32:50Z</time>
      </trkpt>
      <trkpt lat="43.57592" lon="5.71096">
        <ele>470.2</ele>
        <time>2018-11-04T08:32:59Z</time>
      </trkpt>
      <trkpt lat="43.57603" lon="5.71075">
        <ele>471.42</ele>
        <time>2018-11-04T08:33:08Z</time>
      </trkpt>
      <trkpt lat="43.57614" lon="5.71054">
        <ele>472.4</ele>
        <time>2018-11-04T08:33:16Z</time>
      </trkpt>
      <trkpt lat="43.57627" lon="5.71033">
        <ele>472.33</ele>
        <time>2018-11-04T08:33:24Z</time>
      </trkpt>
      <trkpt lat="43.57638" lon="5.7101">
        <ele>470.41</ele>
        <time>2018-11-04T08:33:30Z</time>
      </trkpt>
      <trkpt lat="43.57641" lon="5.70983">
        <ele>468.1</ele>
        <time>2018-11-04T08:33:35Z</time>
      </trkpt>
      <trkpt lat="43.57633" lon="5.70954">
        <ele>465.25</ele>
        <time>2018-11-04T08:33:40Z</time>
      </trkpt>
      <trkpt lat="43.57623" lon="5.70928">
        <ele>463.92</ele>
        <time>2018-11-04T08:33:44Z</time>
      </trkpt>
      <trkpt lat="43.57616" lon="5.70903">
        <ele>463.72</ele>
        <time>2018-11-04T08:33:48Z</time>
      </trkpt>
      <trkpt lat="43.57625" lon="5.70881">
        <ele>462.4</ele>
        <time>2018-11-04T08:33:53Z</time>
      </trkpt>
      <trkpt lat="43.57644" lon="5.7087">
        <ele>462.8</ele>
        <time>2018-11-04T08:33:58Z</time>
      </trkpt>
      <trkpt lat="43.57656" lon="5.70846">
        <ele>464.32</ele>
        <time>2018-11-04T08:34:03Z</time>
      </trkpt>
      <trkpt lat="43.57653" lon="5.70821">
        <ele>464.82</ele>
        <time>2018-11-04T08:34:08Z</time>
      </trkpt>
      <trkpt lat="43.57639" lon="5.708">
        <ele>465.25</ele>
        <time>2018-11-04T08:34:13Z</time>
      </trkpt>
      <trkpt lat="43.57623" lon="5.70783">
        <ele>464.62</ele>
        <time>2018-11-04T08:34:18Z</time>
      </trkpt>
      <trkpt lat="43.57609" lon="5.70764">
        <ele>463.99</ele>
        <time>2018-11-04T08:34:23Z</time>
      </trkpt>
      <trkpt lat="43.57599" lon="5.7074">
        <ele>464.7</ele>
        <time>2018-11-04T08:34:29Z</time>
      </trkpt>
      <trkpt lat="43.57602" lon="5.70713">
        <ele>465.78</ele>
        <time>2018-11-04T08:34:34Z</time>
      </trkpt>
      <trkpt lat="43.57608" lon="5.70688">
        <ele>466.52</ele>
        <time>2018-11-04T08:34:38Z</time>
      </trkpt>
      <trkpt lat="43.57616" lon="5.70662">
        <ele>466.96</ele>
        <time>2018-11-04T08:34:42Z</time>
      </trkpt>
      <trkpt lat="43.57625" lon="5.70634">
        <ele>465.06</ele>
        <time>2018-11-04T08:34:46Z</time>
      </trkpt>
      <trkpt lat="43.57636" lon="5.70607">
        <ele>461.96</ele>
        <time>2018-11-04T08:34:50Z</time>
      </trkpt>
      <trkpt lat="43.57629" lon="5.70577">
        <ele>457.61</ele>
        <time>2018-11-04T08:34:54Z</time>
      </trkpt>
      <trkpt lat="43.57615" lon="5.7056">
        <ele>454.65</ele>
        <time>2018-11-04T08:34:57Z</time>
      </trkpt>
      <trkpt lat="43.57611" lon="5.70531">
        <ele>451.56</ele>
        <time>2018-11-04T08:35:01Z</time>
      </trkpt>
      <trkpt lat="43.57618" lon="5.70499">
        <ele>448.03</ele>
        <time>2018-11-04T08:35:05Z</time>
      </trkpt>
      <trkpt lat="43.57624" lon="5.70472">
        <ele>445.55</ele>
        <time>2018-11-04T08:35:08Z</time>
      </trkpt>
      <trkpt lat="43.57627" lon="5.70443">
        <ele>442.84</ele>
        <time>2018-11-04T08:35:11Z</time>
      </trkpt>
      <trkpt lat="43.57625" lon="5.70411">
        <ele>440.79</ele>
        <time>2018-11-04T08:35:14Z</time>
      </trkpt>
      <trkpt lat="43.57623" lon="5.70382">
        <ele>439</ele>
        <time>2018-11-04T08:35:17Z</time>
      </trkpt>
      <trkpt lat="43.57623" lon="5.70354">
        <ele>437.49</ele>
        <time>2018-11-04T08:35:20Z</time>
      </trkpt>
      <trkpt lat="43.57622" lon="5.70325">
        <ele>435.44</ele>
        <time>2018-11-04T08:35:23Z</time>
      </trkpt>
      <trkpt lat="43.57615" lon="5.70298">
        <ele>433.19</ele>
        <time>2018-11-04T08:35:26Z</time>
      </trkpt>
      <trkpt lat="43.57599" lon="5.7028">
        <ele>432.74</ele>
        <time>2018-11-04T08:35:29Z</time>
      </trkpt>
      <trkpt lat="43.57582" lon="5.70271">
        <ele>431.82</ele>
        <time>2018-11-04T08:35:32Z</time>
      </trkpt>
      <trkpt lat="43.57564" lon="5.7026">
        <ele>430.72</ele>
        <time>2018-11-04T08:35:36Z</time>
      </trkpt>
      <trkpt lat="43.57577" lon="5.70242">
        <ele>430.75</ele>
        <time>2018-11-04T08:35:40Z</time>
      </trkpt>
      <trkpt lat="43.57595" lon="5.70224">
        <ele>430.78</ele>
        <time>2018-11-04T08:35:44Z</time>
      </trkpt>
      <trkpt lat="43.57605" lon="5.70199">
        <ele>431.2</ele>
        <time>2018-11-04T08:35:48Z</time>
      </trkpt>
      <trkpt lat="43.57604" lon="5.70172">
        <ele>432.1</ele>
        <time>2018-11-04T08:35:52Z</time>
      </trkpt>
      <trkpt lat="43.57603" lon="5.70141">
        <ele>432.9</ele>
        <time>2018-11-04T08:35:57Z</time>
      </trkpt>
      <trkpt lat="43.57598" lon="5.70117">
        <ele>435.19</ele>
        <time>2018-11-04T08:36:02Z</time>
      </trkpt>
      <trkpt lat="43.57585" lon="5.70099">
        <ele>437.11</ele>
        <time>2018-11-04T08:36:08Z</time>
      </trkpt>
      <trkpt lat="43.57572" lon="5.70079">
        <ele>437.47</ele>
        <time>2018-11-04T08:36:13Z</time>
      </trkpt>
      <trkpt lat="43.57562" lon="5.70055">
        <ele>438.77</ele>
        <time>2018-11-04T08:36:20Z</time>
      </trkpt>
      <trkpt lat="43.57558" lon="5.70028">
        <ele>441.77</ele>
        <time>2018-11-04T08:36:31Z</time>
      </trkpt>
      <trkpt lat="43.57556" lon="5.70004">
        <ele>443.7</ele>
        <time>2018-11-04T08:36:41Z</time>
      </trkpt>
      <trkpt lat="43.57547" lon="5.69982">
        <ele>445.45</ele>
        <time>2018-11-04T08:36:51Z</time>
      </trkpt>
      <trkpt lat="43.57529" lon="5.6997">
        <ele>447.77</ele>
        <time>2018-11-04T08:37:03Z</time>
      </trkpt>
      <trkpt lat="43.57514" lon="5.69954">
        <ele>448.37</ele>
        <time>2018-11-04T08:37:14Z</time>
      </trkpt>
      <trkpt lat="43.57505" lon="5.69932">
        <ele>452.75</ele>
        <time>2018-11-04T08:37:28Z</time>
      </trkpt>
      <trkpt lat="43.57503" lon="5.69905">
        <ele>456.77</ele>
        <time>2018-11-04T08:37:40Z</time>
      </trkpt>
      <trkpt lat="43.57495" lon="5.69883">
        <ele>458.34</ele>
        <time>2018-11-04T08:37:50Z</time>
      </trkpt>
      <trkpt lat="43.57481" lon="5.69862">
        <ele>457.55</ele>
        <time>2018-11-04T08:38:00Z</time>
      </trkpt>
      <trkpt lat="43.57475" lon="5.69837">
        <ele>458.8</ele>
        <time>2018-11-04T08:38:11Z</time>
      </trkpt>
      <trkpt lat="43.57469" lon="5.69813">
        <ele>459.27</ele>
        <time>2018-11-04T08:38:21Z</time>
      </trkpt>
      <trkpt lat="43.57463" lon="5.69787">
        <ele>458.53</ele>
        <time>2018-11-04T08:38:31Z</time>
      </trkpt>
      <trkpt lat="43.57456" lon="5.69763">
        <ele>457.46</ele>
        <time>2018-11-04T08:38:40Z</time>
      </trkpt>
      <trkpt lat="43.57445" lon="5.69743">
        <ele>457.52</ele>
        <time>2018-11-04T08:38:49Z</time>
      </trkpt>
      <trkpt lat="43.57436" lon="5.6972">
        <ele>459.7</ele>
        <time>2018-11-04T08:39:00Z</time>
      </trkpt>
      <trkpt lat="43.57428" lon="5.69696">
        <ele>463.05</ele>
        <time>2018-11-04T08:39:11Z</time>
      </trkpt>
      <trkpt lat="43.57423" lon="5.6967">
        <ele>465.89</ele>
        <time>2018-11-04T08:39:22Z</time>
      </trkpt>
      <trkpt lat="43.57419" lon="5.69645">
        <ele>467.48</ele>
        <time>2018-11-04T08:39:33Z</time>
      </trkpt>
      <trkpt lat="43.57415" lon="5.69619">
        <ele>468.84</ele>
        <time>2018-11-04T08:39:44Z</time>
      </trkpt>
      <trkpt lat="43.57403" lon="5.69599">
        <ele>469.65</ele>
        <time>2018-11-04T08:39:54Z</time>
      </trkpt>
      <trkpt lat="43.57387" lon="5.69588">
        <ele>469.27</ele>
        <time>2018-11-04T08:40:04Z</time>
      </trkpt>
      <trkpt lat="43.5737" lon="5.69579">
        <ele>468.83</ele>
        <time>2018-11-04T08:40:14Z</time>
      </trkpt>
      <trkpt lat="43.57352" lon="5.69572">
        <ele>469.7</ele>
        <time>2018-11-04T08:40:26Z</time>
      </trkpt>
      <trkpt lat="43.57334" lon="5.69579">
        <ele>471.42</ele>
        <time>2018-11-04T08:40:38Z</time>
      </trkpt>
      <trkpt lat="43.57317" lon="5.69592">
        <ele>472.23</ele>
        <time>2018-11-04T08:40:50Z</time>
      </trkpt>
      <trkpt lat="43.57301" lon="5.69605">
        <ele>474.11</ele>
        <time>2018-11-04T08:41:01Z</time>
      </trkpt>
      <trkpt lat="43.57286" lon="5.6962">
        <ele>475.98</ele>
        <time>2018-11-04T08:41:12Z</time>
      </trkpt>
      <trkpt lat="43.57269" lon="5.69632">
        <ele>478.12</ele>
        <time>2018-11-04T08:41:24Z</time>
      </trkpt>
      <trkpt lat="43.57251" lon="5.69637">
        <ele>480.2</ele>
        <time>2018-11-04T08:41:37Z</time>
      </trkpt>
      <trkpt lat="43.57246" lon="5.69612">
        <ele>481.8</ele>
        <time>2018-11-04T08:41:55Z</time>
      </trkpt>
      <trkpt lat="43.57254" lon="5.69588">
        <ele>484.68</ele>
        <time>2018-11-04T08:42:08Z</time>
      </trkpt>
      <trkpt lat="43.57258" lon="5.69562">
        <ele>487</ele>
        <time>2018-11-04T08:42:21Z</time>
      </trkpt>
      <trkpt lat="43.57261" lon="5.69535">
        <ele>487.05</ele>
        <time>2018-11-04T08:42:32Z</time>
      </trkpt>
      <trkpt lat="43.5727" lon="5.69514">
        <ele>489.58</ele>
        <time>2018-11-04T08:42:43Z</time>
      </trkpt>
      <trkpt lat="43.57282" lon="5.69493">
        <ele>491.82</ele>
        <time>2018-11-04T08:42:55Z</time>
      </trkpt>
      <trkpt lat="43.57285" lon="5.69469">
        <ele>494.21</ele>
        <time>2018-11-04T08:43:08Z</time>
      </trkpt>
      <trkpt lat="43.57276" lon="5.69446">
        <ele>496.32</ele>
        <time>2018-11-04T08:43:21Z</time>
      </trkpt>
      <trkpt lat="43.57263" lon="5.69428">
        <ele>497.23</ele>
        <time>2018-11-04T08:43:35Z</time>
      </trkpt>
      <trkpt lat="43.5725" lon="5.69408">
        <ele>499.2</ele>
        <time>2018-11-04T08:43:49Z</time>
      </trkpt>
      <trkpt lat="43.57244" lon="5.69384">
        <ele>501.5</ele>
        <time>2018-11-04T08:44:03Z</time>
      </trkpt>
      <trkpt lat="43.57236" lon="5.69359">
        <ele>503</ele>
        <time>2018-11-04T08:44:17Z</time>
      </trkpt>
      <trkpt lat="43.57225" lon="5.69339">
        <ele>505.29</ele>
        <time>2018-11-04T08:44:30Z</time>
      </trkpt>
      <trkpt lat="43.57211" lon="5.69323">
        <ele>507.7</ele>
        <time>2018-11-04T08:44:44Z</time>
      </trkpt>
      <trkpt lat="43.57192" lon="5.69311">
        <ele>503.51</ele>
        <time>2018-11-04T08:47:23Z</time>
      </trkpt>
      <trkpt lat="43.57182" lon="5.69289">
        <ele>503.39</ele>
        <time>2018-11-04T08:47:32Z</time>
      </trkpt>
      <trkpt lat="43.57177" lon="5.69264">
        <ele>504.43</ele>
        <time>2018-11-04T08:47:39Z</time>
      </trkpt>
      <trkpt lat="43.57173" lon="5.69238">
        <ele>503.69</ele>
        <time>2018-11-04T08:47:45Z</time>
      </trkpt>
      <trkpt lat="43.57161" lon="5.69216">
        <ele>502.95</ele>
        <time>2018-11-04T08:47:50Z</time>
      </trkpt>
      <trkpt lat="43.57143" lon="5.69208">
        <ele>502.18</ele>
        <time>2018-11-04T08:47:56Z</time>
      </trkpt>
      <trkpt lat="43.57129" lon="5.69191">
        <ele>500.78</ele>
        <time>2018-11-04T08:49:59Z</time>
      </trkpt>
      <trkpt lat="43.57127" lon="5.69166">
        <ele>505.09</ele>
        <time>2018-11-04T08:50:09Z</time>
      </trkpt>
      <trkpt lat="43.5712" lon="5.69141">
        <ele>509.31</ele>
        <time>2018-11-04T08:50:21Z</time>
      </trkpt>
      <trkpt lat="43.57107" lon="5.69122">
        <ele>512.15</ele>
        <time>2018-11-04T08:50:32Z</time>
      </trkpt>
      <trkpt lat="43.57091" lon="5.6911">
        <ele>513.2</ele>
        <time>2018-11-04T08:50:42Z</time>
      </trkpt>
      <trkpt lat="43.57074" lon="5.69098">
        <ele>515.42</ele>
        <time>2018-11-04T08:50:54Z</time>
      </trkpt>
      <trkpt lat="43.57055" lon="5.69105">
        <ele>518.08</ele>
        <time>2018-11-04T08:51:07Z</time>
      </trkpt>
      <trkpt lat="43.5704" lon="5.69118">
        <ele>520.77</ele>
        <time>2018-11-04T08:51:19Z</time>
      </trkpt>
      <trkpt lat="43.57023" lon="5.69131">
        <ele>523.9</ele>
        <time>2018-11-04T08:51:32Z</time>
      </trkpt>
      <trkpt lat="43.57005" lon="5.69143">
        <ele>527.17</ele>
        <time>2018-11-04T08:51:45Z</time>
      </trkpt>
      <trkpt lat="43.56995" lon="5.69122">
        <ele>531.22</ele>
        <time>2018-11-04T08:52:04Z</time>
      </trkpt>
      <trkpt lat="43.56996" lon="5.69095">
        <ele>533.87</ele>
        <time>2018-11-04T08:52:17Z</time>
      </trkpt>
      <trkpt lat="43.56991" lon="5.69071">
        <ele>534.67</ele>
        <time>2018-11-04T08:52:28Z</time>
      </trkpt>
      <trkpt lat="43.56977" lon="5.69053">
        <ele>534.66</ele>
        <time>2018-11-04T08:52:40Z</time>
      </trkpt>
      <trkpt lat="43.56963" lon="5.69035">
        <ele>535.63</ele>
        <time>2018-11-04T08:52:52Z</time>
      </trkpt>
      <trkpt lat="43.56951" lon="5.69016">
        <ele>537.01</ele>
        <time>2018-11-04T08:53:04Z</time>
      </trkpt>
      <trkpt lat="43.56937" lon="5.69">
        <ele>538.72</ele>
        <time>2018-11-04T08:53:16Z</time>
      </trkpt>
      <trkpt lat="43.56919" lon="5.68993">
        <ele>539.84</ele>
        <time>2018-11-04T08:53:30Z</time>
      </trkpt>
      <trkpt lat="43.56901" lon="5.68985">
        <ele>541.1</ele>
        <time>2018-11-04T08:53:43Z</time>
      </trkpt>
      <trkpt lat="43.5689" lon="5.68963">
        <ele>542.8</ele>
        <time>2018-11-04T08:53:56Z</time>
      </trkpt>
      <trkpt lat="43.56878" lon="5.68945">
        <ele>544.12</ele>
        <time>2018-11-04T08:54:07Z</time>
      </trkpt>
      <trkpt lat="43.56864" lon="5.68928">
        <ele>545.34</ele>
        <time>2018-11-04T08:54:18Z</time>
      </trkpt>
      <trkpt lat="43.56847" lon="5.6892">
        <ele>546.24</ele>
        <time>2018-11-04T08:54:30Z</time>
      </trkpt>
      <trkpt lat="43.5684" lon="5.68895">
        <ele>550.42</ele>
        <time>2018-11-04T09:03:04Z</time>
      </trkpt>
      <trkpt lat="43.56833" lon="5.68871">
        <ele>550.54</ele>
        <time>2018-11-04T09:03:13Z</time>
      </trkpt>
      <trkpt lat="43.56832" lon="5.68845">
        <ele>550.32</ele>
        <time>2018-11-04T09:03:22Z</time>
      </trkpt>
      <trkpt lat="43.5683" lon="5.68818">
        <ele>548.75</ele>
        <time>2018-11-04T09:04:29Z</time>
      </trkpt>
      <trkpt lat="43.56829" lon="5.68791">
        <ele>549.82</ele>
        <time>2018-11-04T09:04:37Z</time>
      </trkpt>
      <trkpt lat="43.56828" lon="5.68765">
        <ele>550.88</ele>
        <time>2018-11-04T09:04:44Z</time>
      </trkpt>
      <trkpt lat="43.56823" lon="5.6874">
        <ele>552.28</ele>
        <time>2018-11-04T09:04:51Z</time>
      </trkpt>
      <trkpt lat="43.5682" lon="5.68715">
        <ele>553.59</ele>
        <time>2018-11-04T09:04:59Z</time>
      </trkpt>
      <trkpt lat="43.56815" lon="5.68691">
        <ele>554.99</ele>
        <time>2018-11-04T09:05:10Z</time>
      </trkpt>
      <trkpt lat="43.56812" lon="5.68665">
        <ele>556.77</ele>
        <time>2018-11-04T09:05:21Z</time>
      </trkpt>
      <trkpt lat="43.56812" lon="5.6864">
        <ele>560.17</ele>
        <time>2018-11-04T09:05:33Z</time>
      </trkpt>
      <trkpt lat="43.5681" lon="5.68615">
        <ele>563.67</ele>
        <time>2018-11-04T09:05:45Z</time>
      </trkpt>
      <trkpt lat="43.56807" lon="5.68589">
        <ele>566.39</ele>
        <time>2018-11-04T09:05:57Z</time>
      </trkpt>
      <trkpt lat="43.568" lon="5.68566">
        <ele>568.42</ele>
        <time>2018-11-04T09:06:14Z</time>
      </trkpt>
      <trkpt lat="43.56795" lon="5.6854">
        <ele>568.69</ele>
        <time>2018-11-04T09:06:27Z</time>
      </trkpt>
      <trkpt lat="43.56786" lon="5.68515">
        <ele>569.34</ele>
        <time>2018-11-04T09:06:36Z</time>
      </trkpt>
      <trkpt lat="43.56776" lon="5.68492">
        <ele>566.92</ele>
        <time>2018-11-04T09:06:44Z</time>
      </trkpt>
      <trkpt lat="43.5677" lon="5.68467">
        <ele>567.42</ele>
        <time>2018-11-04T09:06:52Z</time>
      </trkpt>
      <trkpt lat="43.5676" lon="5.68444">
        <ele>568.77</ele>
        <time>2018-11-04T09:07:00Z</time>
      </trkpt>
      <trkpt lat="43.5675" lon="5.68423">
        <ele>570.02</ele>
        <time>2018-11-04T09:07:08Z</time>
      </trkpt>
      <trkpt lat="43.56736" lon="5.68406">
        <ele>571.08</ele>
        <time>2018-11-04T09:07:17Z</time>
      </trkpt>
      <trkpt lat="43.56729" lon="5.68381">
        <ele>569.87</ele>
        <time>2018-11-04T09:07:27Z</time>
      </trkpt>
      <trkpt lat="43.5672" lon="5.68359">
        <ele>570.08</ele>
        <time>2018-11-04T09:07:35Z</time>
      </trkpt>
      <trkpt lat="43.56719" lon="5.68334">
        <ele>567.84</ele>
        <time>2018-11-04T09:07:40Z</time>
      </trkpt>
      <trkpt lat="43.56723" lon="5.68309">
        <ele>564.82</ele>
        <time>2018-11-04T09:07:45Z</time>
      </trkpt>
      <trkpt lat="43.56725" lon="5.68283">
        <ele>562.77</ele>
        <time>2018-11-04T09:07:52Z</time>
      </trkpt>
      <trkpt lat="43.56728" lon="5.68256">
        <ele>561.72</ele>
        <time>2018-11-04T09:08:00Z</time>
      </trkpt>
      <trkpt lat="43.56721" lon="5.6823">
        <ele>561.7</ele>
        <time>2018-11-04T09:08:07Z</time>
      </trkpt>
      <trkpt lat="43.56723" lon="5.68202">
        <ele>561.82</ele>
        <time>2018-11-04T09:08:15Z</time>
      </trkpt>
      <trkpt lat="43.5672" lon="5.68176">
        <ele>562.2</ele>
        <time>2018-11-04T09:08:23Z</time>
      </trkpt>
      <trkpt lat="43.56709" lon="5.68154">
        <ele>562.39</ele>
        <time>2018-11-04T09:08:30Z</time>
      </trkpt>
      <trkpt lat="43.56703" lon="5.68127">
        <ele>563.01</ele>
        <time>2018-11-04T09:08:38Z</time>
      </trkpt>
      <trkpt lat="43.56695" lon="5.68101">
        <ele>563.71</ele>
        <time>2018-11-04T09:08:45Z</time>
      </trkpt>
      <trkpt lat="43.56702" lon="5.68077">
        <ele>563.66</ele>
        <time>2018-11-04T09:08:53Z</time>
      </trkpt>
      <trkpt lat="43.56713" lon="5.68057">
        <ele>563.11</ele>
        <time>2018-11-04T09:09:00Z</time>
      </trkpt>
      <trkpt lat="43.56732" lon="5.68051">
        <ele>556.87</ele>
        <time>2018-11-04T09:15:01Z</time>
      </trkpt>
      <trkpt lat="43.56746" lon="5.68068">
        <ele>556.47</ele>
        <time>2018-11-04T09:15:07Z</time>
      </trkpt>
      <trkpt lat="43.56765" lon="5.68064">
        <ele>558.67</ele>
        <time>2018-11-04T09:15:16Z</time>
      </trkpt>
      <trkpt lat="43.56758" lon="5.68039">
        <ele>562.62</ele>
        <time>2018-11-04T09:15:25Z</time>
      </trkpt>
      <trkpt lat="43.56751" lon="5.68015">
        <ele>566.26</ele>
        <time>2018-11-04T09:15:35Z</time>
      </trkpt>
      <trkpt lat="43.56745" lon="5.67989">
        <ele>566.85</ele>
        <time>2018-11-04T09:15:44Z</time>
      </trkpt>
      <trkpt lat="43.56736" lon="5.67965">
        <ele>564.56</ele>
        <time>2018-11-04T09:15:54Z</time>
      </trkpt>
      <trkpt lat="43.5673" lon="5.67939">
        <ele>559.83</ele>
        <time>2018-11-04T09:16:24Z</time>
      </trkpt>
      <trkpt lat="43.56727" lon="5.67915">
        <ele>559.23</ele>
        <time>2018-11-04T09:16:31Z</time>
      </trkpt>
      <trkpt lat="43.5672" lon="5.6789">
        <ele>559.07</ele>
        <time>2018-11-04T09:16:38Z</time>
      </trkpt>
      <trkpt lat="43.56713" lon="5.67867">
        <ele>557.79</ele>
        <time>2018-11-04T09:16:44Z</time>
      </trkpt>
      <trkpt lat="43.56707" lon="5.6784">
        <ele>559.78</ele>
        <time>2018-11-04T09:16:52Z</time>
      </trkpt>
      <trkpt lat="43.567" lon="5.67815">
        <ele>561.47</ele>
        <time>2018-11-04T09:17:00Z</time>
      </trkpt>
      <trkpt lat="43.56692" lon="5.67792">
        <ele>564.66</ele>
        <time>2018-11-04T09:17:08Z</time>
      </trkpt>
      <trkpt lat="43.56684" lon="5.67769">
        <ele>567.3</ele>
        <time>2018-11-04T09:17:17Z</time>
      </trkpt>
      <trkpt lat="43.56675" lon="5.67745">
        <ele>566.52</ele>
        <time>2018-11-04T09:17:26Z</time>
      </trkpt>
      <trkpt lat="43.56666" lon="5.6772">
        <ele>565.64</ele>
        <time>2018-11-04T09:17:34Z</time>
      </trkpt>
      <trkpt lat="43.5666" lon="5.67696">
        <ele>566.05</ele>
        <time>2018-11-04T09:17:43Z</time>
      </trkpt>
      <trkpt lat="43.56653" lon="5.67673">
        <ele>565.98</ele>
        <time>2018-11-04T09:17:53Z</time>
      </trkpt>
      <trkpt lat="43.56641" lon="5.67652">
        <ele>566.72</ele>
        <time>2018-11-04T09:18:07Z</time>
      </trkpt>
      <trkpt lat="43.56634" lon="5.67628">
        <ele>566.22</ele>
        <time>2018-11-04T09:18:34Z</time>
      </trkpt>
      <trkpt lat="43.56628" lon="5.67604">
        <ele>569.75</ele>
        <time>2018-11-04T09:18:45Z</time>
      </trkpt>
      <trkpt lat="43.56617" lon="5.67582">
        <ele>573.65</ele>
        <time>2018-11-04T09:18:56Z</time>
      </trkpt>
      <trkpt lat="43.56608" lon="5.67559">
        <ele>579.92</ele>
        <time>2018-11-04T09:19:08Z</time>
      </trkpt>
      <trkpt lat="43.56607" lon="5.67533">
        <ele>584.92</ele>
        <time>2018-11-04T09:19:19Z</time>
      </trkpt>
      <trkpt lat="43.56605" lon="5.67506">
        <ele>588.43</ele>
        <time>2018-11-04T09:19:30Z</time>
      </trkpt>
      <trkpt lat="43.56596" lon="5.67482">
        <ele>588.09</ele>
        <time>2018-11-04T09:19:39Z</time>
      </trkpt>
      <trkpt lat="43.56594" lon="5.67455">
        <ele>587.85</ele>
        <time>2018-11-04T09:19:50Z</time>
      </trkpt>
      <trkpt lat="43.5659" lon="5.67431">
        <ele>586.6</ele>
        <time>2018-11-04T09:20:00Z</time>
      </trkpt>
      <trkpt lat="43.56587" lon="5.67406">
        <ele>581.05</ele>
        <time>2018-11-04T09:20:10Z</time>
      </trkpt>
      <trkpt lat="43.56586" lon="5.67381">
        <ele>577.36</ele>
        <time>2018-11-04T09:20:18Z</time>
      </trkpt>
      <trkpt lat="43.56583" lon="5.67353">
        <ele>572.16</ele>
        <time>2018-11-04T09:20:26Z</time>
      </trkpt>
      <trkpt lat="43.56573" lon="5.6733">
        <ele>569.59</ele>
        <time>2018-11-04T09:20:35Z</time>
      </trkpt>
      <trkpt lat="43.56591" lon="5.67332">
        <ele>568.2</ele>
        <time>2018-11-04T09:25:00Z</time>
      </trkpt>
      <trkpt lat="43.56609" lon="5.6734">
        <ele>564.24</ele>
        <time>2018-11-04T09:25:11Z</time>
      </trkpt>
      <trkpt lat="43.56628" lon="5.67337">
        <ele>560.64</ele>
        <time>2018-11-04T09:25:21Z</time>
      </trkpt>
      <trkpt lat="43.56647" lon="5.6733">
        <ele>553.55</ele>
        <time>2018-11-04T09:25:32Z</time>
      </trkpt>
      <trkpt lat="43.56666" lon="5.67332">
        <ele>547.6</ele>
        <time>2018-11-04T09:25:40Z</time>
      </trkpt>
      <trkpt lat="43.56686" lon="5.67334">
        <ele>542.29</ele>
        <time>2018-11-04T09:25:47Z</time>
      </trkpt>
      <trkpt lat="43.56709" lon="5.67322">
        <ele>535.09</ele>
        <time>2018-11-04T09:26:56Z</time>
      </trkpt>
      <trkpt lat="43.56727" lon="5.67335">
        <ele>532.92</ele>
        <time>2018-11-04T09:27:08Z</time>
      </trkpt>
      <trkpt lat="43.56746" lon="5.67343">
        <ele>532.01</ele>
        <time>2018-11-04T09:27:14Z</time>
      </trkpt>
      <trkpt lat="43.56763" lon="5.67349">
        <ele>530.03</ele>
        <time>2018-11-04T09:27:20Z</time>
      </trkpt>
      <trkpt lat="43.56784" lon="5.67355">
        <ele>529.07</ele>
        <time>2018-11-04T09:27:27Z</time>
      </trkpt>
      <trkpt lat="43.56803" lon="5.67363">
        <ele>528.69</ele>
        <time>2018-11-04T09:27:33Z</time>
      </trkpt>
      <trkpt lat="43.5682" lon="5.67371">
        <ele>526.88</ele>
        <time>2018-11-04T09:27:39Z</time>
      </trkpt>
      <trkpt lat="43.56841" lon="5.67368">
        <ele>526.51</ele>
        <time>2018-11-04T09:27:46Z</time>
      </trkpt>
      <trkpt lat="43.56858" lon="5.67353">
        <ele>526.71</ele>
        <time>2018-11-04T09:27:53Z</time>
      </trkpt>
      <trkpt lat="43.56874" lon="5.67336">
        <ele>526.27</ele>
        <time>2018-11-04T09:27:59Z</time>
      </trkpt>
      <trkpt lat="43.56889" lon="5.67317">
        <ele>526.35</ele>
        <time>2018-11-04T09:28:04Z</time>
      </trkpt>
      <trkpt lat="43.56903" lon="5.67294">
        <ele>525.23</ele>
        <time>2018-11-04T09:28:09Z</time>
      </trkpt>
      <trkpt lat="43.56918" lon="5.67279">
        <ele>525.6</ele>
        <time>2018-11-04T09:28:15Z</time>
      </trkpt>
      <trkpt lat="43.56931" lon="5.67261">
        <ele>526.39</ele>
        <time>2018-11-04T09:28:21Z</time>
      </trkpt>
      <trkpt lat="43.56948" lon="5.67247">
        <ele>527.22</ele>
        <time>2018-11-04T09:28:28Z</time>
      </trkpt>
      <trkpt lat="43.56966" lon="5.67239">
        <ele>528.03</ele>
        <time>2018-11-04T09:28:35Z</time>
      </trkpt>
      <trkpt lat="43.56986" lon="5.67233">
        <ele>526.71</ele>
        <time>2018-11-04T09:28:43Z</time>
      </trkpt>
      <trkpt lat="43.57005" lon="5.6723">
        <ele>518.75</ele>
        <time>2018-11-04T09:28:52Z</time>
      </trkpt>
      <trkpt lat="43.57026" lon="5.67235">
        <ele>511.28</ele>
        <time>2018-11-04T09:29:09Z</time>
      </trkpt>
      <trkpt lat="43.57046" lon="5.67243">
        <ele>506.89</ele>
        <time>2018-11-04T09:29:15Z</time>
      </trkpt>
      <trkpt lat="43.57064" lon="5.67251">
        <ele>502.51</ele>
        <time>2018-11-04T09:29:21Z</time>
      </trkpt>
      <trkpt lat="43.57084" lon="5.67261">
        <ele>499.44</ele>
        <time>2018-11-04T09:29:30Z</time>
      </trkpt>
      <trkpt lat="43.57102" lon="5.67272">
        <ele>497.41</ele>
        <time>2018-11-04T09:29:35Z</time>
      </trkpt>
      <trkpt lat="43.57118" lon="5.67289">
        <ele>494.64</ele>
        <time>2018-11-04T09:29:41Z</time>
      </trkpt>
      <trkpt lat="43.57135" lon="5.67301">
        <ele>492.99</ele>
        <time>2018-11-04T09:29:49Z</time>
      </trkpt>
      <trkpt lat="43.57154" lon="5.67307">
        <ele>493.51</ele>
        <time>2018-11-04T09:29:58Z</time>
      </trkpt>
      <trkpt lat="43.57172" lon="5.67319">
        <ele>492.14</ele>
        <time>2018-11-04T09:30:05Z</time>
      </trkpt>
      <trkpt lat="43.57191" lon="5.67316">
        <ele>491.14</ele>
        <time>2018-11-04T09:30:14Z</time>
      </trkpt>
      <trkpt lat="43.5721" lon="5.67314">
        <ele>494.72</ele>
        <time>2018-11-04T09:30:27Z</time>
      </trkpt>
      <trkpt lat="43.57228" lon="5.67309">
        <ele>497.32</ele>
        <time>2018-11-04T09:30:43Z</time>
      </trkpt>
      <trkpt lat="43.57247" lon="5.67306">
        <ele>496.7</ele>
        <time>2018-11-04T09:31:35Z</time>
      </trkpt>
      <trkpt lat="43.57267" lon="5.67306">
        <ele>491.33</ele>
        <time>2018-11-04T09:31:42Z</time>
      </trkpt>
      <trkpt lat="43.57286" lon="5.67304">
        <ele>486.69</ele>
        <time>2018-11-04T09:31:50Z</time>
      </trkpt>
      <trkpt lat="43.57304" lon="5.67299">
        <ele>481.45</ele>
        <time>2018-11-04T09:31:59Z</time>
      </trkpt>
      <trkpt lat="43.57326" lon="5.67293">
        <ele>479.12</ele>
        <time>2018-11-04T09:32:03Z</time>
      </trkpt>
      <trkpt lat="43.57344" lon="5.67285">
        <ele>477.5</ele>
        <time>2018-11-04T09:32:09Z</time>
      </trkpt>
      <trkpt lat="43.5736" lon="5.67272">
        <ele>473.05</ele>
        <time>2018-11-04T09:32:48Z</time>
      </trkpt>
      <trkpt lat="43.5736" lon="5.67247">
        <ele>476.62</ele>
        <time>2018-11-04T09:33:30Z</time>
      </trkpt>
      <trkpt lat="43.57369" lon="5.67222">
        <ele>478.78</ele>
        <time>2018-11-04T09:33:41Z</time>
      </trkpt>
      <trkpt lat="43.57372" lon="5.67194">
        <ele>480.38</ele>
        <time>2018-11-04T09:33:48Z</time>
      </trkpt>
      <trkpt lat="43.57364" lon="5.67167">
        <ele>479.47</ele>
        <time>2018-11-04T09:33:54Z</time>
      </trkpt>
      <trkpt lat="43.57355" lon="5.67144">
        <ele>476.66</ele>
        <time>2018-11-04T09:33:59Z</time>
      </trkpt>
      <trkpt lat="43.57347" lon="5.67121">
        <ele>473.99</ele>
        <time>2018-11-04T09:34:03Z</time>
      </trkpt>
      <trkpt lat="43.5734" lon="5.67096">
        <ele>471.2</ele>
        <time>2018-11-04T09:34:07Z</time>
      </trkpt>
      <trkpt lat="43.57332" lon="5.67073">
        <ele>468.06</ele>
        <time>2018-11-04T09:34:11Z</time>
      </trkpt>
      <trkpt lat="43.57324" lon="5.67049">
        <ele>465.98</ele>
        <time>2018-11-04T09:34:15Z</time>
      </trkpt>
      <trkpt lat="43.57313" lon="5.67024">
        <ele>464.03</ele>
        <time>2018-11-04T09:34:20Z</time>
      </trkpt>
      <trkpt lat="43.57298" lon="5.6701">
        <ele>461.73</ele>
        <time>2018-11-04T09:34:24Z</time>
      </trkpt>
      <trkpt lat="43.57281" lon="5.66997">
        <ele>459.32</ele>
        <time>2018-11-04T09:34:29Z</time>
      </trkpt>
      <trkpt lat="43.57267" lon="5.66981">
        <ele>457.78</ele>
        <time>2018-11-04T09:34:34Z</time>
      </trkpt>
      <trkpt lat="43.57258" lon="5.66958">
        <ele>458.4</ele>
        <time>2018-11-04T09:34:40Z</time>
      </trkpt>
      <trkpt lat="43.57254" lon="5.66933">
        <ele>460.13</ele>
        <time>2018-11-04T09:34:46Z</time>
      </trkpt>
      <trkpt lat="43.57257" lon="5.66907">
        <ele>461.59</ele>
        <time>2018-11-04T09:34:52Z</time>
      </trkpt>
      <trkpt lat="43.57257" lon="5.6688">
        <ele>463.28</ele>
        <time>2018-11-04T09:34:59Z</time>
      </trkpt>
      <trkpt lat="43.57256" lon="5.66855">
        <ele>466.64</ele>
        <time>2018-11-04T09:35:06Z</time>
      </trkpt>
      <trkpt lat="43.57253" lon="5.66831">
        <ele>470.38</ele>
        <time>2018-11-04T09:35:13Z</time>
      </trkpt>
      <trkpt lat="43.57245" lon="5.66807">
        <ele>473.82</ele>
        <time>2018-11-04T09:35:19Z</time>
      </trkpt>
      <trkpt lat="43.57237" lon="5.66784">
        <ele>475.28</ele>
        <time>2018-11-04T09:35:25Z</time>
      </trkpt>
      <trkpt lat="43.57231" lon="5.66759">
        <ele>476.19</ele>
        <time>2018-11-04T09:35:33Z</time>
      </trkpt>
      <trkpt lat="43.57232" lon="5.66734">
        <ele>477.15</ele>
        <time>2018-11-04T09:35:40Z</time>
      </trkpt>
      <trkpt lat="43.57229" lon="5.66708">
        <ele>478.19</ele>
        <time>2018-11-04T09:35:47Z</time>
      </trkpt>
      <trkpt lat="43.57227" lon="5.66682">
        <ele>479.51</ele>
        <time>2018-11-04T09:35:53Z</time>
      </trkpt>
      <trkpt lat="43.57225" lon="5.66657">
        <ele>478.5</ele>
        <time>2018-11-04T09:36:00Z</time>
      </trkpt>
      <trkpt lat="43.57218" lon="5.66632">
        <ele>478.72</ele>
        <time>2018-11-04T09:36:07Z</time>
      </trkpt>
      <trkpt lat="43.57217" lon="5.66605">
        <ele>476.59</ele>
        <time>2018-11-04T09:36:17Z</time>
      </trkpt>
      <trkpt lat="43.57224" lon="5.66581">
        <ele>477.3</ele>
        <time>2018-11-04T09:36:26Z</time>
      </trkpt>
      <trkpt lat="43.57232" lon="5.66557">
        <ele>475.52</ele>
        <time>2018-11-04T09:36:35Z</time>
      </trkpt>
      <trkpt lat="43.57236" lon="5.66532">
        <ele>476.63</ele>
        <time>2018-11-04T09:36:46Z</time>
      </trkpt>
      <trkpt lat="43.57232" lon="5.66505">
        <ele>475.73</ele>
        <time>2018-11-04T09:36:56Z</time>
      </trkpt>
      <trkpt lat="43.57228" lon="5.66479">
        <ele>475.6</ele>
        <time>2018-11-04T09:37:06Z</time>
      </trkpt>
      <trkpt lat="43.57221" lon="5.66453">
        <ele>476.94</ele>
        <time>2018-11-04T09:37:16Z</time>
      </trkpt>
      <trkpt lat="43.57214" lon="5.66428">
        <ele>478.14</ele>
        <time>2018-11-04T09:37:24Z</time>
      </trkpt>
      <trkpt lat="43.5721" lon="5.66402">
        <ele>477.94</ele>
        <time>2018-11-04T09:37:33Z</time>
      </trkpt>
      <trkpt lat="43.57204" lon="5.66378">
        <ele>478.16</ele>
        <time>2018-11-04T09:37:42Z</time>
      </trkpt>
      <trkpt lat="43.57198" lon="5.66353">
        <ele>478.65</ele>
        <time>2018-11-04T09:37:50Z</time>
      </trkpt>
      <trkpt lat="43.57193" lon="5.66328">
        <ele>479.54</ele>
        <time>2018-11-04T09:37:58Z</time>
      </trkpt>
      <trkpt lat="43.57191" lon="5.66302">
        <ele>480.28</ele>
        <time>2018-11-04T09:38:06Z</time>
      </trkpt>
      <trkpt lat="43.57187" lon="5.66276">
        <ele>481.09</ele>
        <time>2018-11-04T09:38:14Z</time>
      </trkpt>
      <trkpt lat="43.57186" lon="5.66249">
        <ele>477.63</ele>
        <time>2018-11-04T09:40:51Z</time>
      </trkpt>
      <trkpt lat="43.57189" lon="5.66225">
        <ele>476.9</ele>
        <time>2018-11-04T09:41:02Z</time>
      </trkpt>
      <trkpt lat="43.57192" lon="5.66199">
        <ele>478.68</ele>
        <time>2018-11-04T09:41:13Z</time>
      </trkpt>
      <trkpt lat="43.57187" lon="5.66173">
        <ele>481.39</ele>
        <time>2018-11-04T09:41:22Z</time>
      </trkpt>
      <trkpt lat="43.57182" lon="5.6615">
        <ele>482.24</ele>
        <time>2018-11-04T09:41:29Z</time>
      </trkpt>
      <trkpt lat="43.57177" lon="5.66123">
        <ele>483.63</ele>
        <time>2018-11-04T09:41:37Z</time>
      </trkpt>
      <trkpt lat="43.57171" lon="5.66099">
        <ele>484.08</ele>
        <time>2018-11-04T09:41:44Z</time>
      </trkpt>
      <trkpt lat="43.57168" lon="5.66073">
        <ele>483.08</ele>
        <time>2018-11-04T09:41:52Z</time>
      </trkpt>
      <trkpt lat="43.57152" lon="5.6606">
        <ele>480.24</ele>
        <time>2018-11-04T09:42:01Z</time>
      </trkpt>
      <trkpt lat="43.57132" lon="5.66054">
        <ele>478.69</ele>
        <time>2018-11-04T09:42:08Z</time>
      </trkpt>
      <trkpt lat="43.57113" lon="5.66049">
        <ele>478.11</ele>
        <time>2018-11-04T09:42:14Z</time>
      </trkpt>
      <trkpt lat="43.57095" lon="5.66044">
        <ele>478.55</ele>
        <time>2018-11-04T09:42:22Z</time>
      </trkpt>
      <trkpt lat="43.57088" lon="5.6602">
        <ele>480.58</ele>
        <time>2018-11-04T09:42:37Z</time>
      </trkpt>
      <trkpt lat="43.57092" lon="5.65992">
        <ele>484.84</ele>
        <time>2018-11-04T09:42:48Z</time>
      </trkpt>
      <trkpt lat="43.57097" lon="5.65966">
        <ele>487.14</ele>
        <time>2018-11-04T09:42:56Z</time>
      </trkpt>
      <trkpt lat="43.57102" lon="5.65941">
        <ele>491.04</ele>
        <time>2018-11-04T09:43:06Z</time>
      </trkpt>
      <trkpt lat="43.57105" lon="5.65915">
        <ele>494.88</ele>
        <time>2018-11-04T09:43:14Z</time>
      </trkpt>
      <trkpt lat="43.57108" lon="5.6589">
        <ele>499.77</ele>
        <time>2018-11-04T09:43:25Z</time>
      </trkpt>
      <trkpt lat="43.57113" lon="5.65864">
        <ele>502.94</ele>
        <time>2018-11-04T09:43:36Z</time>
      </trkpt>
      <trkpt lat="43.57116" lon="5.65837">
        <ele>502.33</ele>
        <time>2018-11-04T09:43:45Z</time>
      </trkpt>
      <trkpt lat="43.57117" lon="5.65809">
        <ele>499.8</ele>
        <time>2018-11-04T09:43:53Z</time>
      </trkpt>
      <trkpt lat="43.57116" lon="5.65782">
        <ele>497.88</ele>
        <time>2018-11-04T09:44:01Z</time>
      </trkpt>
      <trkpt lat="43.57113" lon="5.65756">
        <ele>497.33</ele>
        <time>2018-11-04T09:44:09Z</time>
      </trkpt>
      <trkpt lat="43.57112" lon="5.65727">
        <ele>496.85</ele>
        <time>2018-11-04T09:44:17Z</time>
      </trkpt>
      <trkpt lat="43.57111" lon="5.657">
        <ele>496.82</ele>
        <time>2018-11-04T09:44:25Z</time>
      </trkpt>
      <trkpt lat="43.57111" lon="5.65672">
        <ele>496.36</ele>
        <time>2018-11-04T09:44:33Z</time>
      </trkpt>
      <trkpt lat="43.57111" lon="5.65647">
        <ele>497.72</ele>
        <time>2018-11-04T09:44:40Z</time>
      </trkpt>
      <trkpt lat="43.57113" lon="5.65622">
        <ele>496.53</ele>
        <time>2018-11-04T09:44:48Z</time>
      </trkpt>
      <trkpt lat="43.5713" lon="5.65606">
        <ele>492.81</ele>
        <time>2018-11-04T09:45:49Z</time>
      </trkpt>
      <trkpt lat="43.57149" lon="5.65594">
        <ele>493.3</ele>
        <time>2018-11-04T09:45:55Z</time>
      </trkpt>
      <trkpt lat="43.57152" lon="5.65567">
        <ele>494.48</ele>
        <time>2018-11-04T09:46:04Z</time>
      </trkpt>
      <trkpt lat="43.57156" lon="5.65542">
        <ele>496.47</ele>
        <time>2018-11-04T09:46:13Z</time>
      </trkpt>
      <trkpt lat="43.5716" lon="5.65515">
        <ele>499.28</ele>
        <time>2018-11-04T09:46:24Z</time>
      </trkpt>
      <trkpt lat="43.57164" lon="5.65488">
        <ele>501.87</ele>
        <time>2018-11-04T09:46:33Z</time>
      </trkpt>
      <trkpt lat="43.57171" lon="5.65465">
        <ele>504.57</ele>
        <time>2018-11-04T09:46:42Z</time>
      </trkpt>
      <trkpt lat="43.57177" lon="5.6544">
        <ele>507.47</ele>
        <time>2018-11-04T09:46:52Z</time>
      </trkpt>
      <trkpt lat="43.57178" lon="5.65414">
        <ele>510.12</ele>
        <time>2018-11-04T09:47:03Z</time>
      </trkpt>
      <trkpt lat="43.57179" lon="5.65388">
        <ele>511.68</ele>
        <time>2018-11-04T09:47:13Z</time>
      </trkpt>
      <trkpt lat="43.57181" lon="5.65363">
        <ele>512.36</ele>
        <time>2018-11-04T09:47:23Z</time>
      </trkpt>
      <trkpt lat="43.57183" lon="5.65338">
        <ele>513.28</ele>
        <time>2018-11-04T09:47:33Z</time>
      </trkpt>
      <trkpt lat="43.57187" lon="5.65312">
        <ele>516.47</ele>
        <time>2018-11-04T09:47:44Z</time>
      </trkpt>
      <trkpt lat="43.5719" lon="5.65286">
        <ele>519.67</ele>
        <time>2018-11-04T09:47:55Z</time>
      </trkpt>
      <trkpt lat="43.5719" lon="5.6526">
        <ele>521.9</ele>
        <time>2018-11-04T09:48:06Z</time>
      </trkpt>
      <trkpt lat="43.5719" lon="5.65234">
        <ele>523.64</ele>
        <time>2018-11-04T09:48:16Z</time>
      </trkpt>
      <trkpt lat="43.5719" lon="5.65209">
        <ele>523.67</ele>
        <time>2018-11-04T09:48:26Z</time>
      </trkpt>
      <trkpt lat="43.57187" lon="5.65183">
        <ele>524.3</ele>
        <time>2018-11-04T09:48:37Z</time>
      </trkpt>
      <trkpt lat="43.57184" lon="5.65157">
        <ele>524.68</ele>
        <time>2018-11-04T09:48:47Z</time>
      </trkpt>
      <trkpt lat="43.57183" lon="5.65132">
        <ele>525.98</ele>
        <time>2018-11-04T09:48:56Z</time>
      </trkpt>
      <trkpt lat="43.57182" lon="5.65106">
        <ele>526.72</ele>
        <time>2018-11-04T09:49:06Z</time>
      </trkpt>
      <trkpt lat="43.5718" lon="5.6508">
        <ele>527.6</ele>
        <time>2018-11-04T09:49:16Z</time>
      </trkpt>
      <trkpt lat="43.57176" lon="5.65054">
        <ele>528.9</ele>
        <time>2018-11-04T09:49:25Z</time>
      </trkpt>
      <trkpt lat="43.57177" lon="5.65029">
        <ele>528.56</ele>
        <time>2018-11-04T09:49:34Z</time>
      </trkpt>
      <trkpt lat="43.57177" lon="5.65002">
        <ele>528.41</ele>
        <time>2018-11-04T09:49:43Z</time>
      </trkpt>
      <trkpt lat="43.57174" lon="5.64976">
        <ele>529.84</ele>
        <time>2018-11-04T09:49:53Z</time>
      </trkpt>
      <trkpt lat="43.57171" lon="5.64951">
        <ele>530.56</ele>
        <time>2018-11-04T09:50:02Z</time>
      </trkpt>
      <trkpt lat="43.57168" lon="5.64924">
        <ele>532</ele>
        <time>2018-11-04T09:50:12Z</time>
      </trkpt>
      <trkpt lat="43.57182" lon="5.64941">
        <ele>526.64</ele>
        <time>2018-11-04T09:54:50Z</time>
      </trkpt>
      <trkpt lat="43.57188" lon="5.64967">
        <ele>525.9</ele>
        <time>2018-11-04T09:54:56Z</time>
      </trkpt>
      <trkpt lat="43.57189" lon="5.64994">
        <ele>525.02</ele>
        <time>2018-11-04T09:55:01Z</time>
      </trkpt>
      <trkpt lat="43.57196" lon="5.65021">
        <ele>524.17</ele>
        <time>2018-11-04T09:55:06Z</time>
      </trkpt>
      <trkpt lat="43.57208" lon="5.65044">
        <ele>523.22</ele>
        <time>2018-11-04T09:55:11Z</time>
      </trkpt>
      <trkpt lat="43.57216" lon="5.6507">
        <ele>522.08</ele>
        <time>2018-11-04T09:55:16Z</time>
      </trkpt>
      <trkpt lat="43.57223" lon="5.65093">
        <ele>521.73</ele>
        <time>2018-11-04T09:55:20Z</time>
      </trkpt>
      <trkpt lat="43.57229" lon="5.65121">
        <ele>521.65</ele>
        <time>2018-11-04T09:55:25Z</time>
      </trkpt>
      <trkpt lat="43.57238" lon="5.65145">
        <ele>521.98</ele>
        <time>2018-11-04T09:55:30Z</time>
      </trkpt>
      <trkpt lat="43.57254" lon="5.65157">
        <ele>523.09</ele>
        <time>2018-11-04T09:55:35Z</time>
      </trkpt>
      <trkpt lat="43.57261" lon="5.65186">
        <ele>523.43</ele>
        <time>2018-11-04T09:55:40Z</time>
      </trkpt>
      <trkpt lat="43.57261" lon="5.65212">
        <ele>522.95</ele>
        <time>2018-11-04T09:55:46Z</time>
      </trkpt>
      <trkpt lat="43.57262" lon="5.65239">
        <ele>523.06</ele>
        <time>2018-11-04T09:55:52Z</time>
      </trkpt>
      <trkpt lat="43.57265" lon="5.65265">
        <ele>523.23</ele>
        <time>2018-11-04T09:55:57Z</time>
      </trkpt>
      <trkpt lat="43.57266" lon="5.65295">
        <ele>522.57</ele>
        <time>2018-11-04T09:56:02Z</time>
      </trkpt>
      <trkpt lat="43.57269" lon="5.65322">
        <ele>521.29</ele>
        <time>2018-11-04T09:56:06Z</time>
      </trkpt>
      <trkpt lat="43.57269" lon="5.6535">
        <ele>519.67</ele>
        <time>2018-11-04T09:56:10Z</time>
      </trkpt>
      <trkpt lat="43.57267" lon="5.6538">
        <ele>517.59</ele>
        <time>2018-11-04T09:56:14Z</time>
      </trkpt>
      <trkpt lat="43.57267" lon="5.65406">
        <ele>514.91</ele>
        <time>2018-11-04T09:56:17Z</time>
      </trkpt>
      <trkpt lat="43.57266" lon="5.65434">
        <ele>511.99</ele>
        <time>2018-11-04T09:56:20Z</time>
      </trkpt>
      <trkpt lat="43.57264" lon="5.65468">
        <ele>508.45</ele>
        <time>2018-11-04T09:56:23Z</time>
      </trkpt>
      <trkpt lat="43.57261" lon="5.65505">
        <ele>505.38</ele>
        <time>2018-11-04T09:56:26Z</time>
      </trkpt>
      <trkpt lat="43.57269" lon="5.65536">
        <ele>503.1</ele>
        <time>2018-11-04T09:56:29Z</time>
      </trkpt>
      <trkpt lat="43.57277" lon="5.6556">
        <ele>501.65</ele>
        <time>2018-11-04T09:56:32Z</time>
      </trkpt>
      <trkpt lat="43.57285" lon="5.65587">
        <ele>501.67</ele>
        <time>2018-11-04T09:56:36Z</time>
      </trkpt>
      <trkpt lat="43.57287" lon="5.65615">
        <ele>501.07</ele>
        <time>2018-11-04T09:56:41Z</time>
      </trkpt>
      <trkpt lat="43.57288" lon="5.65643">
        <ele>501.61</ele>
        <time>2018-11-04T09:56:47Z</time>
      </trkpt>
      <trkpt lat="43.57291" lon="5.65671">
        <ele>501.84</ele>
        <time>2018-11-04T09:56:52Z</time>
      </trkpt>
      <trkpt lat="43.5729" lon="5.65697">
        <ele>502.1</ele>
        <time>2018-11-04T09:56:56Z</time>
      </trkpt>
      <trkpt lat="43.57288" lon="5.65723">
        <ele>501.68</ele>
        <time>2018-11-04T09:57:00Z</time>
      </trkpt>
      <trkpt lat="43.57287" lon="5.65752">
        <ele>500.28</ele>
        <time>2018-11-04T09:57:05Z</time>
      </trkpt>
      <trkpt lat="43.57288" lon="5.65778">
        <ele>499.77</ele>
        <time>2018-11-04T09:57:10Z</time>
      </trkpt>
      <trkpt lat="43.57297" lon="5.65801">
        <ele>498.27</ele>
        <time>2018-11-04T09:57:14Z</time>
      </trkpt>
      <trkpt lat="43.5731" lon="5.65825">
        <ele>496.84</ele>
        <time>2018-11-04T09:57:18Z</time>
      </trkpt>
      <trkpt lat="43.5733" lon="5.65832">
        <ele>496.67</ele>
        <time>2018-11-04T09:57:23Z</time>
      </trkpt>
      <trkpt lat="43.57344" lon="5.65808">
        <ele>496.29</ele>
        <time>2018-11-04T09:57:28Z</time>
      </trkpt>
      <trkpt lat="43.57351" lon="5.65782">
        <ele>495.2</ele>
        <time>2018-11-04T09:57:32Z</time>
      </trkpt>
      <trkpt lat="43.57366" lon="5.65798">
        <ele>492.67</ele>
        <time>2018-11-04T09:57:40Z</time>
      </trkpt>
      <trkpt lat="43.57372" lon="5.6577">
        <ele>490.75</ele>
        <time>2018-11-04T09:57:46Z</time>
      </trkpt>
      <trkpt lat="43.57381" lon="5.65746">
        <ele>488.75</ele>
        <time>2018-11-04T09:57:51Z</time>
      </trkpt>
      <trkpt lat="43.57391" lon="5.65722">
        <ele>487.12</ele>
        <time>2018-11-04T09:57:56Z</time>
      </trkpt>
      <trkpt lat="43.57399" lon="5.65698">
        <ele>485.82</ele>
        <time>2018-11-04T09:58:00Z</time>
      </trkpt>
      <trkpt lat="43.57401" lon="5.6567">
        <ele>484.81</ele>
        <time>2018-11-04T09:58:05Z</time>
      </trkpt>
      <trkpt lat="43.57404" lon="5.65641">
        <ele>485.32</ele>
        <time>2018-11-04T09:58:10Z</time>
      </trkpt>
      <trkpt lat="43.57405" lon="5.65616">
        <ele>485.15</ele>
        <time>2018-11-04T09:58:14Z</time>
      </trkpt>
      <trkpt lat="43.57407" lon="5.65589">
        <ele>485.03</ele>
        <time>2018-11-04T09:58:19Z</time>
      </trkpt>
      <trkpt lat="43.57405" lon="5.65562">
        <ele>485.9</ele>
        <time>2018-11-04T09:58:24Z</time>
      </trkpt>
      <trkpt lat="43.57402" lon="5.65536">
        <ele>487.57</ele>
        <time>2018-11-04T09:58:29Z</time>
      </trkpt>
      <trkpt lat="43.57402" lon="5.65511">
        <ele>487.61</ele>
        <time>2018-11-04T09:58:34Z</time>
      </trkpt>
      <trkpt lat="43.57401" lon="5.65481">
        <ele>488.01</ele>
        <time>2018-11-04T09:58:39Z</time>
      </trkpt>
      <trkpt lat="43.57401" lon="5.65451">
        <ele>487.91</ele>
        <time>2018-11-04T09:58:44Z</time>
      </trkpt>
      <trkpt lat="43.57401" lon="5.65422">
        <ele>487.1</ele>
        <time>2018-11-04T09:58:49Z</time>
      </trkpt>
      <trkpt lat="43.57401" lon="5.65398">
        <ele>486.48</ele>
        <time>2018-11-04T09:58:53Z</time>
      </trkpt>
      <trkpt lat="43.57397" lon="5.65368">
        <ele>485.64</ele>
        <time>2018-11-04T09:58:58Z</time>
      </trkpt>
      <trkpt lat="43.57394" lon="5.65342">
        <ele>484.32</ele>
        <time>2018-11-04T09:59:04Z</time>
      </trkpt>
      <trkpt lat="43.57394" lon="5.65314">
        <ele>483.59</ele>
        <time>2018-11-04T09:59:10Z</time>
      </trkpt>
      <trkpt lat="43.57393" lon="5.65288">
        <ele>482.43</ele>
        <time>2018-11-04T09:59:15Z</time>
      </trkpt>
      <trkpt lat="43.57394" lon="5.65261">
        <ele>481.92</ele>
        <time>2018-11-04T09:59:21Z</time>
      </trkpt>
      <trkpt lat="43.57396" lon="5.65234">
        <ele>478.95</ele>
        <time>2018-11-04T09:59:27Z</time>
      </trkpt>
      <trkpt lat="43.57399" lon="5.65207">
        <ele>479.04</ele>
        <time>2018-11-04T09:59:33Z</time>
      </trkpt>
      <trkpt lat="43.57396" lon="5.65181">
        <ele>479.15</ele>
        <time>2018-11-04T09:59:41Z</time>
      </trkpt>
      <trkpt lat="43.57396" lon="5.65156">
        <ele>479.97</ele>
        <time>2018-11-04T09:59:50Z</time>
      </trkpt>
      <trkpt lat="43.57392" lon="5.65129">
        <ele>482.79</ele>
        <time>2018-11-04T09:59:59Z</time>
      </trkpt>
      <trkpt lat="43.57388" lon="5.65105">
        <ele>483.28</ele>
        <time>2018-11-04T10:00:06Z</time>
      </trkpt>
      <trkpt lat="43.57383" lon="5.65078">
        <ele>484.04</ele>
        <time>2018-11-04T10:00:14Z</time>
      </trkpt>
      <trkpt lat="43.57377" lon="5.65053">
        <ele>485.22</ele>
        <time>2018-11-04T10:00:21Z</time>
      </trkpt>
      <trkpt lat="43.57377" lon="5.65026">
        <ele>487.36</ele>
        <time>2018-11-04T10:00:28Z</time>
      </trkpt>
      <trkpt lat="43.57375" lon="5.64999">
        <ele>489.03</ele>
        <time>2018-11-04T10:00:35Z</time>
      </trkpt>
      <trkpt lat="43.57372" lon="5.64974">
        <ele>490.26</ele>
        <time>2018-11-04T10:00:42Z</time>
      </trkpt>
      <trkpt lat="43.57369" lon="5.64946">
        <ele>490.32</ele>
        <time>2018-11-04T10:00:49Z</time>
      </trkpt>
      <trkpt lat="43.57368" lon="5.64919">
        <ele>492.14</ele>
        <time>2018-11-04T10:00:56Z</time>
      </trkpt>
      <trkpt lat="43.57368" lon="5.64892">
        <ele>493.41</ele>
        <time>2018-11-04T10:01:03Z</time>
      </trkpt>
      <trkpt lat="43.57365" lon="5.64866">
        <ele>494.9</ele>
        <time>2018-11-04T10:01:09Z</time>
      </trkpt>
      <trkpt lat="43.57357" lon="5.64844">
        <ele>495.99</ele>
        <time>2018-11-04T10:01:15Z</time>
      </trkpt>
      <trkpt lat="43.57343" lon="5.64825">
        <ele>497.83</ele>
        <time>2018-11-04T10:01:22Z</time>
      </trkpt>
      <trkpt lat="43.57339" lon="5.64799">
        <ele>498.92</ele>
        <time>2018-11-04T10:01:29Z</time>
      </trkpt>
      <trkpt lat="43.57332" lon="5.64773">
        <ele>499.52</ele>
        <time>2018-11-04T10:01:36Z</time>
      </trkpt>
      <trkpt lat="43.57327" lon="5.64748">
        <ele>499.98</ele>
        <time>2018-11-04T10:01:45Z</time>
      </trkpt>
      <trkpt lat="43.57326" lon="5.64722">
        <ele>501.95</ele>
        <time>2018-11-04T10:01:53Z</time>
      </trkpt>
      <trkpt lat="43.57324" lon="5.64696">
        <ele>504.13</ele>
        <time>2018-11-04T10:02:01Z</time>
      </trkpt>
      <trkpt lat="43.5732" lon="5.64669">
        <ele>505.49</ele>
        <time>2018-11-04T10:02:08Z</time>
      </trkpt>
      <trkpt lat="43.57319" lon="5.64642">
        <ele>507.2</ele>
        <time>2018-11-04T10:02:15Z</time>
      </trkpt>
      <trkpt lat="43.57322" lon="5.64616">
        <ele>506.89</ele>
        <time>2018-11-04T10:02:22Z</time>
      </trkpt>
      <trkpt lat="43.57328" lon="5.6459">
        <ele>507.74</ele>
        <time>2018-11-04T10:02:29Z</time>
      </trkpt>
      <trkpt lat="43.57332" lon="5.64562">
        <ele>508.45</ele>
        <time>2018-11-04T10:02:36Z</time>
      </trkpt>
      <trkpt lat="43.57329" lon="5.64536">
        <ele>505.79</ele>
        <time>2018-11-04T10:02:43Z</time>
      </trkpt>
      <trkpt lat="43.57324" lon="5.64511">
        <ele>505.23</ele>
        <time>2018-11-04T10:02:50Z</time>
      </trkpt>
      <trkpt lat="43.57326" lon="5.64485">
        <ele>506.19</ele>
        <time>2018-11-04T10:03:00Z</time>
      </trkpt>
      <trkpt lat="43.57327" lon="5.64458">
        <ele>506.73</ele>
        <time>2018-11-04T10:03:08Z</time>
      </trkpt>
      <trkpt lat="43.57331" lon="5.64433">
        <ele>508.69</ele>
        <time>2018-11-04T10:03:16Z</time>
      </trkpt>
      <trkpt lat="43.57334" lon="5.64407">
        <ele>510.8</ele>
        <time>2018-11-04T10:03:25Z</time>
      </trkpt>
      <trkpt lat="43.57332" lon="5.64381">
        <ele>511.08</ele>
        <time>2018-11-04T10:03:34Z</time>
      </trkpt>
      <trkpt lat="43.57334" lon="5.64356">
        <ele>510.89</ele>
        <time>2018-11-04T10:03:41Z</time>
      </trkpt>
      <trkpt lat="43.5733" lon="5.64331">
        <ele>508.9</ele>
        <time>2018-11-04T10:03:50Z</time>
      </trkpt>
      <trkpt lat="43.57329" lon="5.64303">
        <ele>509.37</ele>
        <time>2018-11-04T10:03:59Z</time>
      </trkpt>
      <trkpt lat="43.57327" lon="5.64275">
        <ele>509.55</ele>
        <time>2018-11-04T10:04:07Z</time>
      </trkpt>
      <trkpt lat="43.57332" lon="5.64251">
        <ele>511.2</ele>
        <time>2018-11-04T10:04:16Z</time>
      </trkpt>
      <trkpt lat="43.57346" lon="5.64233">
        <ele>515.45</ele>
        <time>2018-11-04T10:04:27Z</time>
      </trkpt>
      <trkpt lat="43.57362" lon="5.64221">
        <ele>520.67</ele>
        <time>2018-11-04T10:04:36Z</time>
      </trkpt>
      <trkpt lat="43.57376" lon="5.64206">
        <ele>524.74</ele>
        <time>2018-11-04T10:04:43Z</time>
      </trkpt>
      <trkpt lat="43.57387" lon="5.64186">
        <ele>525.57</ele>
        <time>2018-11-04T10:04:51Z</time>
      </trkpt>
      <trkpt lat="43.57402" lon="5.64169">
        <ele>526.87</ele>
        <time>2018-11-04T10:05:02Z</time>
      </trkpt>
      <trkpt lat="43.5741" lon="5.64145">
        <ele>526.67</ele>
        <time>2018-11-04T10:05:13Z</time>
      </trkpt>
      <trkpt lat="43.57418" lon="5.6412">
        <ele>530.08</ele>
        <time>2018-11-04T10:05:24Z</time>
      </trkpt>
      <trkpt lat="43.57427" lon="5.64097">
        <ele>531.06</ele>
        <time>2018-11-04T10:05:35Z</time>
      </trkpt>
      <trkpt lat="43.57433" lon="5.64071">
        <ele>521.99</ele>
        <time>2018-11-04T10:07:26Z</time>
      </trkpt>
      <trkpt lat="43.57434" lon="5.64044">
        <ele>523.71</ele>
        <time>2018-11-04T10:07:35Z</time>
      </trkpt>
      <trkpt lat="43.57434" lon="5.64019">
        <ele>526.8</ele>
        <time>2018-11-04T10:07:43Z</time>
      </trkpt>
      <trkpt lat="43.57438" lon="5.63994">
        <ele>527.4</ele>
        <time>2018-11-04T10:07:51Z</time>
      </trkpt>
      <trkpt lat="43.57443" lon="5.6397">
        <ele>526.55</ele>
        <time>2018-11-04T10:07:59Z</time>
      </trkpt>
      <trkpt lat="43.57449" lon="5.63946">
        <ele>526.64</ele>
        <time>2018-11-04T10:08:09Z</time>
      </trkpt>
      <trkpt lat="43.57453" lon="5.6392">
        <ele>528.19</ele>
        <time>2018-11-04T10:08:19Z</time>
      </trkpt>
      <trkpt lat="43.57456" lon="5.63894">
        <ele>530.88</ele>
        <time>2018-11-04T10:08:29Z</time>
      </trkpt>
      <trkpt lat="43.57458" lon="5.63868">
        <ele>532.8</ele>
        <time>2018-11-04T10:08:38Z</time>
      </trkpt>
      <trkpt lat="43.57459" lon="5.63842">
        <ele>534.07</ele>
        <time>2018-11-04T10:08:47Z</time>
      </trkpt>
      <trkpt lat="43.57458" lon="5.63815">
        <ele>534.07</ele>
        <time>2018-11-04T10:08:56Z</time>
      </trkpt>
      <trkpt lat="43.57461" lon="5.63787">
        <ele>533.41</ele>
        <time>2018-11-04T10:09:04Z</time>
      </trkpt>
      <trkpt lat="43.57464" lon="5.63761">
        <ele>534.11</ele>
        <time>2018-11-04T10:09:13Z</time>
      </trkpt>
      <trkpt lat="43.57467" lon="5.63734">
        <ele>533.74</ele>
        <time>2018-11-04T10:09:20Z</time>
      </trkpt>
      <trkpt lat="43.57466" lon="5.63708">
        <ele>536.08</ele>
        <time>2018-11-04T10:09:27Z</time>
      </trkpt>
      <trkpt lat="43.57461" lon="5.63683">
        <ele>535.18</ele>
        <time>2018-11-04T10:09:34Z</time>
      </trkpt>
      <trkpt lat="43.57455" lon="5.63659">
        <ele>535.92</ele>
        <time>2018-11-04T10:09:41Z</time>
      </trkpt>
      <trkpt lat="43.5745" lon="5.63635">
        <ele>538.37</ele>
        <time>2018-11-04T10:09:49Z</time>
      </trkpt>
      <trkpt lat="43.57448" lon="5.63608">
        <ele>539.49</ele>
        <time>2018-11-04T10:09:59Z</time>
      </trkpt>
      <trkpt lat="43.57442" lon="5.63582">
        <ele>538.35</ele>
        <time>2018-11-04T10:10:08Z</time>
      </trkpt>
      <trkpt lat="43.57422" lon="5.63578">
        <ele>537.4</ele>
        <time>2018-11-04T10:10:13Z</time>
      </trkpt>
      <trkpt lat="43.57405" lon="5.63585">
        <ele>538.26</ele>
        <time>2018-11-04T10:10:17Z</time>
      </trkpt>
      <trkpt lat="43.57385" lon="5.63576">
        <ele>539.69</ele>
        <time>2018-11-04T10:10:22Z</time>
      </trkpt>
      <trkpt lat="43.57373" lon="5.63554">
        <ele>539.21</ele>
        <time>2018-11-04T10:10:27Z</time>
      </trkpt>
      <trkpt lat="43.57366" lon="5.63529">
        <ele>539.88</ele>
        <time>2018-11-04T10:10:33Z</time>
      </trkpt>
      <trkpt lat="43.57357" lon="5.63505">
        <ele>537.77</ele>
        <time>2018-11-04T10:10:40Z</time>
      </trkpt>
      <trkpt lat="43.57349" lon="5.63479">
        <ele>536.36</ele>
        <time>2018-11-04T10:10:47Z</time>
      </trkpt>
      <trkpt lat="43.57347" lon="5.63452">
        <ele>539.92</ele>
        <time>2018-11-04T10:10:54Z</time>
      </trkpt>
      <trkpt lat="43.57346" lon="5.63425">
        <ele>542.47</ele>
        <time>2018-11-04T10:11:01Z</time>
      </trkpt>
      <trkpt lat="43.57345" lon="5.63397">
        <ele>544.22</ele>
        <time>2018-11-04T10:11:08Z</time>
      </trkpt>
      <trkpt lat="43.5734" lon="5.63372">
        <ele>544.64</ele>
        <time>2018-11-04T10:11:14Z</time>
      </trkpt>
      <trkpt lat="43.57337" lon="5.63345">
        <ele>544.93</ele>
        <time>2018-11-04T10:11:20Z</time>
      </trkpt>
      <trkpt lat="43.5734" lon="5.63317">
        <ele>545.06</ele>
        <time>2018-11-04T10:11:26Z</time>
      </trkpt>
      <trkpt lat="43.57343" lon="5.63292">
        <ele>545.58</ele>
        <time>2018-11-04T10:11:33Z</time>
      </trkpt>
      <trkpt lat="43.57337" lon="5.63266">
        <ele>546.16</ele>
        <time>2018-11-04T10:11:40Z</time>
      </trkpt>
      <trkpt lat="43.57323" lon="5.63248">
        <ele>546.83</ele>
        <time>2018-11-04T10:11:49Z</time>
      </trkpt>
      <trkpt lat="43.57306" lon="5.63235">
        <ele>547.23</ele>
        <time>2018-11-04T10:11:57Z</time>
      </trkpt>
      <trkpt lat="43.57295" lon="5.63214">
        <ele>546.89</ele>
        <time>2018-11-04T10:12:05Z</time>
      </trkpt>
      <trkpt lat="43.57286" lon="5.63192">
        <ele>547.57</ele>
        <time>2018-11-04T10:12:13Z</time>
      </trkpt>
      <trkpt lat="43.57278" lon="5.63169">
        <ele>542.97</ele>
        <time>2018-11-04T10:15:47Z</time>
      </trkpt>
      <trkpt lat="43.57276" lon="5.63142">
        <ele>542.28</ele>
        <time>2018-11-04T10:15:53Z</time>
      </trkpt>
      <trkpt lat="43.5728" lon="5.63115">
        <ele>541.28</ele>
        <time>2018-11-04T10:15:58Z</time>
      </trkpt>
      <trkpt lat="43.57286" lon="5.63091">
        <ele>541.82</ele>
        <time>2018-11-04T10:16:03Z</time>
      </trkpt>
      <trkpt lat="43.57291" lon="5.63062">
        <ele>542.15</ele>
        <time>2018-11-04T10:16:08Z</time>
      </trkpt>
      <trkpt lat="43.57294" lon="5.63034">
        <ele>541.52</ele>
        <time>2018-11-04T10:16:12Z</time>
      </trkpt>
      <trkpt lat="43.57297" lon="5.63002">
        <ele>539.62</ele>
        <time>2018-11-04T10:16:16Z</time>
      </trkpt>
      <trkpt lat="43.573" lon="5.62974">
        <ele>538.09</ele>
        <time>2018-11-04T10:16:19Z</time>
      </trkpt>
      <trkpt lat="43.57306" lon="5.62945">
        <ele>536.02</ele>
        <time>2018-11-04T10:16:22Z</time>
      </trkpt>
      <trkpt lat="43.57313" lon="5.62917">
        <ele>533.98</ele>
        <time>2018-11-04T10:16:25Z</time>
      </trkpt>
      <trkpt lat="43.57321" lon="5.62892">
        <ele>532.29</ele>
        <time>2018-11-04T10:16:28Z</time>
      </trkpt>
      <trkpt lat="43.57325" lon="5.62865">
        <ele>531.53</ele>
        <time>2018-11-04T10:16:31Z</time>
      </trkpt>
      <trkpt lat="43.5732" lon="5.62839">
        <ele>529.12</ele>
        <time>2018-11-04T10:16:34Z</time>
      </trkpt>
      <trkpt lat="43.57323" lon="5.62814">
        <ele>527.26</ele>
        <time>2018-11-04T10:16:37Z</time>
      </trkpt>
      <trkpt lat="43.57331" lon="5.62788">
        <ele>525.44</ele>
        <time>2018-11-04T10:16:40Z</time>
      </trkpt>
      <trkpt lat="43.57334" lon="5.62761">
        <ele>523.7</ele>
        <time>2018-11-04T10:16:43Z</time>
      </trkpt>
      <trkpt lat="43.57339" lon="5.62736">
        <ele>521.99</ele>
        <time>2018-11-04T10:16:46Z</time>
      </trkpt>
      <trkpt lat="43.57346" lon="5.62713">
        <ele>518.93</ele>
        <time>2018-11-04T10:16:51Z</time>
      </trkpt>
      <trkpt lat="43.57351" lon="5.62688">
        <ele>519.65</ele>
        <time>2018-11-04T10:17:10Z</time>
      </trkpt>
      <trkpt lat="43.57347" lon="5.62664">
        <ele>520.1</ele>
        <time>2018-11-04T10:17:14Z</time>
      </trkpt>
      <trkpt lat="43.57348" lon="5.62638">
        <ele>520.27</ele>
        <time>2018-11-04T10:17:18Z</time>
      </trkpt>
      <trkpt lat="43.57351" lon="5.62612">
        <ele>520.61</ele>
        <time>2018-11-04T10:17:22Z</time>
      </trkpt>
      <trkpt lat="43.57354" lon="5.6258">
        <ele>522.44</ele>
        <time>2018-11-04T10:17:27Z</time>
      </trkpt>
      <trkpt lat="43.57354" lon="5.62554">
        <ele>522.86</ele>
        <time>2018-11-04T10:17:31Z</time>
      </trkpt>
      <trkpt lat="43.57353" lon="5.62529">
        <ele>522.48</ele>
        <time>2018-11-04T10:17:35Z</time>
      </trkpt>
      <trkpt lat="43.57351" lon="5.62502">
        <ele>522.22</ele>
        <time>2018-11-04T10:17:39Z</time>
      </trkpt>
      <trkpt lat="43.57347" lon="5.62476">
        <ele>522.94</ele>
        <time>2018-11-04T10:17:43Z</time>
      </trkpt>
      <trkpt lat="43.57339" lon="5.62449">
        <ele>522.56</ele>
        <time>2018-11-04T10:17:48Z</time>
      </trkpt>
      <trkpt lat="43.57331" lon="5.62425">
        <ele>522.37</ele>
        <time>2018-11-04T10:17:57Z</time>
      </trkpt>
      <trkpt lat="43.57313" lon="5.6242">
        <ele>522.51</ele>
        <time>2018-11-04T10:18:27Z</time>
      </trkpt>
      <trkpt lat="43.57301" lon="5.62438">
        <ele>524.49</ele>
        <time>2018-11-04T10:18:37Z</time>
      </trkpt>
      <trkpt lat="43.5729" lon="5.62461">
        <ele>528.41</ele>
        <time>2018-11-04T10:18:45Z</time>
      </trkpt>
      <trkpt lat="43.57277" lon="5.62484">
        <ele>530.59</ele>
        <time>2018-11-04T10:18:51Z</time>
      </trkpt>
      <trkpt lat="43.57263" lon="5.62503">
        <ele>531.37</ele>
        <time>2018-11-04T10:18:55Z</time>
      </trkpt>
      <trkpt lat="43.57246" lon="5.62526">
        <ele>530.59</ele>
        <time>2018-11-04T10:18:59Z</time>
      </trkpt>
      <trkpt lat="43.57241" lon="5.62553">
        <ele>527.66</ele>
        <time>2018-11-04T10:19:03Z</time>
      </trkpt>
      <trkpt lat="43.57223" lon="5.62566">
        <ele>524.9</ele>
        <time>2018-11-04T10:19:07Z</time>
      </trkpt>
      <trkpt lat="43.57205" lon="5.62581">
        <ele>522.98</ele>
        <time>2018-11-04T10:19:10Z</time>
      </trkpt>
      <trkpt lat="43.57186" lon="5.62592">
        <ele>520.89</ele>
        <time>2018-11-04T10:19:13Z</time>
      </trkpt>
      <trkpt lat="43.57166" lon="5.62594">
        <ele>517.89</ele>
        <time>2018-11-04T10:19:16Z</time>
      </trkpt>
      <trkpt lat="43.57149" lon="5.62601">
        <ele>516.19</ele>
        <time>2018-11-04T10:19:19Z</time>
      </trkpt>
      <trkpt lat="43.57129" lon="5.62609">
        <ele>514.54</ele>
        <time>2018-11-04T10:19:23Z</time>
      </trkpt>
      <trkpt lat="43.5711" lon="5.62601">
        <ele>512.15</ele>
        <time>2018-11-04T10:19:34Z</time>
      </trkpt>
      <trkpt lat="43.57093" lon="5.62589">
        <ele>510.67</ele>
        <time>2018-11-04T10:19:44Z</time>
      </trkpt>
      <trkpt lat="43.57079" lon="5.62572">
        <ele>511.58</ele>
        <time>2018-11-04T10:19:53Z</time>
      </trkpt>
      <trkpt lat="43.57066" lon="5.62553">
        <ele>514.07</ele>
        <time>2018-11-04T10:20:02Z</time>
      </trkpt>
      <trkpt lat="43.57053" lon="5.62535">
        <ele>515.1</ele>
        <time>2018-11-04T10:20:10Z</time>
      </trkpt>
      <trkpt lat="43.57039" lon="5.62517">
        <ele>517.68</ele>
        <time>2018-11-04T10:20:19Z</time>
      </trkpt>
      <trkpt lat="43.57023" lon="5.62503">
        <ele>520.85</ele>
        <time>2018-11-04T10:20:29Z</time>
      </trkpt>
      <trkpt lat="43.57007" lon="5.6249">
        <ele>524.67</ele>
        <time>2018-11-04T10:20:39Z</time>
      </trkpt>
      <trkpt lat="43.5699" lon="5.6248">
        <ele>526.26</ele>
        <time>2018-11-04T10:20:49Z</time>
      </trkpt>
      <trkpt lat="43.56971" lon="5.62472">
        <ele>525.1</ele>
        <time>2018-11-04T10:21:00Z</time>
      </trkpt>
      <trkpt lat="43.56953" lon="5.62463">
        <ele>524.49</ele>
        <time>2018-11-04T10:21:11Z</time>
      </trkpt>
      <trkpt lat="43.56935" lon="5.62464">
        <ele>523.63</ele>
        <time>2018-11-04T10:21:18Z</time>
      </trkpt>
      <trkpt lat="43.56917" lon="5.62466">
        <ele>520.42</ele>
        <time>2018-11-04T10:22:20Z</time>
      </trkpt>
      <trkpt lat="43.56898" lon="5.6247">
        <ele>521.31</ele>
        <time>2018-11-04T10:22:27Z</time>
      </trkpt>
      <trkpt lat="43.56878" lon="5.62475">
        <ele>521.08</ele>
        <time>2018-11-04T10:22:33Z</time>
      </trkpt>
      <trkpt lat="43.5686" lon="5.62479">
        <ele>519.63</ele>
        <time>2018-11-04T10:22:38Z</time>
      </trkpt>
      <trkpt lat="43.56838" lon="5.62486">
        <ele>516.64</ele>
        <time>2018-11-04T10:22:43Z</time>
      </trkpt>
      <trkpt lat="43.56821" lon="5.62495">
        <ele>514.47</ele>
        <time>2018-11-04T10:22:48Z</time>
      </trkpt>
      <trkpt lat="43.56824" lon="5.62521">
        <ele>510.28</ele>
        <time>2018-11-04T10:22:54Z</time>
      </trkpt>
      <trkpt lat="43.56831" lon="5.62548">
        <ele>504.22</ele>
        <time>2018-11-04T10:23:01Z</time>
      </trkpt>
      <trkpt lat="43.56836" lon="5.62576">
        <ele>500.57</ele>
        <time>2018-11-04T10:23:07Z</time>
      </trkpt>
      <trkpt lat="43.56836" lon="5.62605">
        <ele>498.32</ele>
        <time>2018-11-04T10:23:13Z</time>
      </trkpt>
      <trkpt lat="43.56838" lon="5.62632">
        <ele>494.61</ele>
        <time>2018-11-04T10:23:21Z</time>
      </trkpt>
      <trkpt lat="43.56834" lon="5.62659">
        <ele>489.83</ele>
        <time>2018-11-04T10:23:28Z</time>
      </trkpt>
      <trkpt lat="43.56828" lon="5.62689">
        <ele>487.84</ele>
        <time>2018-11-04T10:23:33Z</time>
      </trkpt>
      <trkpt lat="43.56814" lon="5.62668">
        <ele>486.67</ele>
        <time>2018-11-04T10:23:42Z</time>
      </trkpt>
      <trkpt lat="43.56812" lon="5.62642">
        <ele>486.29</ele>
        <time>2018-11-04T10:23:47Z</time>
      </trkpt>
      <trkpt lat="43.56796" lon="5.62622">
        <ele>485.93</ele>
        <time>2018-11-04T10:23:54Z</time>
      </trkpt>
      <trkpt lat="43.56783" lon="5.62598">
        <ele>485.67</ele>
        <time>2018-11-04T10:23:59Z</time>
      </trkpt>
      <trkpt lat="43.56767" lon="5.62579">
        <ele>485.77</ele>
        <time>2018-11-04T10:24:04Z</time>
      </trkpt>
      <trkpt lat="43.56751" lon="5.62562">
        <ele>485.76</ele>
        <time>2018-11-04T10:24:09Z</time>
      </trkpt>
      <trkpt lat="43.56739" lon="5.62543">
        <ele>485.39</ele>
        <time>2018-11-04T10:24:13Z</time>
      </trkpt>
      <trkpt lat="43.56727" lon="5.62522">
        <ele>485.29</ele>
        <time>2018-11-04T10:24:17Z</time>
      </trkpt>
      <trkpt lat="43.56712" lon="5.62502">
        <ele>484.89</ele>
        <time>2018-11-04T10:24:22Z</time>
      </trkpt>
      <trkpt lat="43.56699" lon="5.6248">
        <ele>484.67</ele>
        <time>2018-11-04T10:24:28Z</time>
      </trkpt>
      <trkpt lat="43.56686" lon="5.62461">
        <ele>483.09</ele>
        <time>2018-11-04T10:24:35Z</time>
      </trkpt>
      <trkpt lat="43.56667" lon="5.62445">
        <ele>483.13</ele>
        <time>2018-11-04T10:24:42Z</time>
      </trkpt>
      <trkpt lat="43.56648" lon="5.62444">
        <ele>480.63</ele>
        <time>2018-11-04T10:24:47Z</time>
      </trkpt>
      <trkpt lat="43.56629" lon="5.62439">
        <ele>480.2</ele>
        <time>2018-11-04T10:24:53Z</time>
      </trkpt>
      <trkpt lat="43.56609" lon="5.62428">
        <ele>478.72</ele>
        <time>2018-11-04T10:24:58Z</time>
      </trkpt>
      <trkpt lat="43.56588" lon="5.62417">
        <ele>477.98</ele>
        <time>2018-11-04T10:25:03Z</time>
      </trkpt>
      <trkpt lat="43.56568" lon="5.62412">
        <ele>478.19</ele>
        <time>2018-11-04T10:25:08Z</time>
      </trkpt>
      <trkpt lat="43.5655" lon="5.62403">
        <ele>480.17</ele>
        <time>2018-11-04T10:25:13Z</time>
      </trkpt>
      <trkpt lat="43.56532" lon="5.62396">
        <ele>482.02</ele>
        <time>2018-11-04T10:25:19Z</time>
      </trkpt>
      <trkpt lat="43.56512" lon="5.62391">
        <ele>480.51</ele>
        <time>2018-11-04T10:25:25Z</time>
      </trkpt>
      <trkpt lat="43.56506" lon="5.62418">
        <ele>478.9</ele>
        <time>2018-11-04T10:25:34Z</time>
      </trkpt>
      <trkpt lat="43.56508" lon="5.62444">
        <ele>480.89</ele>
        <time>2018-11-04T10:25:40Z</time>
      </trkpt>
      <trkpt lat="43.56513" lon="5.62469">
        <ele>482.26</ele>
        <time>2018-11-04T10:25:47Z</time>
      </trkpt>
      <trkpt lat="43.56519" lon="5.62495">
        <ele>483.11</ele>
        <time>2018-11-04T10:25:53Z</time>
      </trkpt>
      <trkpt lat="43.56523" lon="5.62521">
        <ele>483.85</ele>
        <time>2018-11-04T10:25:59Z</time>
      </trkpt>
      <trkpt lat="43.56528" lon="5.6255">
        <ele>483.96</ele>
        <time>2018-11-04T10:26:06Z</time>
      </trkpt>
      <trkpt lat="43.5654" lon="5.62574">
        <ele>483.18</ele>
        <time>2018-11-04T10:26:11Z</time>
      </trkpt>
      <trkpt lat="43.56552" lon="5.62594">
        <ele>480.25</ele>
        <time>2018-11-04T10:26:16Z</time>
      </trkpt>
      <trkpt lat="43.56564" lon="5.62617">
        <ele>474.46</ele>
        <time>2018-11-04T10:26:22Z</time>
      </trkpt>
      <trkpt lat="43.56547" lon="5.6263">
        <ele>462.72</ele>
        <time>2018-11-04T10:26:39Z</time>
      </trkpt>
      <trkpt lat="43.56528" lon="5.62624">
        <ele>458.6</ele>
        <time>2018-11-04T10:26:45Z</time>
      </trkpt>
      <trkpt lat="43.56511" lon="5.62615">
        <ele>455.23</ele>
        <time>2018-11-04T10:26:50Z</time>
      </trkpt>
      <trkpt lat="43.56491" lon="5.62614">
        <ele>449.86</ele>
        <time>2018-11-04T10:26:58Z</time>
      </trkpt>
      <trkpt lat="43.56483" lon="5.62637">
        <ele>448.95</ele>
        <time>2018-11-04T10:30:55Z</time>
      </trkpt>
      <trkpt lat="43.56476" lon="5.6266">
        <ele>449.53</ele>
        <time>2018-11-04T10:31:04Z</time>
      </trkpt>
      <trkpt lat="43.56475" lon="5.62685">
        <ele>450.6</ele>
        <time>2018-11-04T10:31:16Z</time>
      </trkpt>
      <trkpt lat="43.5647" lon="5.6271">
        <ele>452.1</ele>
        <time>2018-11-04T10:31:28Z</time>
      </trkpt>
      <trkpt lat="43.56462" lon="5.62733">
        <ele>453.92</ele>
        <time>2018-11-04T10:31:39Z</time>
      </trkpt>
      <trkpt lat="43.56461" lon="5.6276">
        <ele>457.87</ele>
        <time>2018-11-04T10:31:53Z</time>
      </trkpt>
      <trkpt lat="43.56472" lon="5.62782">
        <ele>459.6</ele>
        <time>2018-11-04T10:32:05Z</time>
      </trkpt>
      <trkpt lat="43.56486" lon="5.62801">
        <ele>462.22</ele>
        <time>2018-11-04T10:32:18Z</time>
      </trkpt>
      <trkpt lat="43.5649" lon="5.62826">
        <ele>464.5</ele>
        <time>2018-11-04T10:32:31Z</time>
      </trkpt>
      <trkpt lat="43.56484" lon="5.6285">
        <ele>465.82</ele>
        <time>2018-11-04T10:32:43Z</time>
      </trkpt>
      <trkpt lat="43.56475" lon="5.62873">
        <ele>467.32</ele>
        <time>2018-11-04T10:32:55Z</time>
      </trkpt>
      <trkpt lat="43.56469" lon="5.62898">
        <ele>470.38</ele>
        <time>2018-11-04T10:33:09Z</time>
      </trkpt>
      <trkpt lat="43.56468" lon="5.62923">
        <ele>474.69</ele>
        <time>2018-11-04T10:33:25Z</time>
      </trkpt>
      <trkpt lat="43.56482" lon="5.6294">
        <ele>477.79</ele>
        <time>2018-11-04T10:33:40Z</time>
      </trkpt>
      <trkpt lat="43.56493" lon="5.62961">
        <ele>480.38</ele>
        <time>2018-11-04T10:33:55Z</time>
      </trkpt>
      <trkpt lat="43.56488" lon="5.62986">
        <ele>482.42</ele>
        <time>2018-11-04T10:34:11Z</time>
      </trkpt>
      <trkpt lat="43.56483" lon="5.6301">
        <ele>484.3</ele>
        <time>2018-11-04T10:34:25Z</time>
      </trkpt>
      <trkpt lat="43.56474" lon="5.63034">
        <ele>485.72</ele>
        <time>2018-11-04T10:34:39Z</time>
      </trkpt>
      <trkpt lat="43.56468" lon="5.63057">
        <ele>489.21</ele>
        <time>2018-11-04T10:34:54Z</time>
      </trkpt>
      <trkpt lat="43.56473" lon="5.63081">
        <ele>490.62</ele>
        <time>2018-11-04T10:35:07Z</time>
      </trkpt>
      <trkpt lat="43.56476" lon="5.63107">
        <ele>492.6</ele>
        <time>2018-11-04T10:35:23Z</time>
      </trkpt>
      <trkpt lat="43.56475" lon="5.63132">
        <ele>494.72</ele>
        <time>2018-11-04T10:35:38Z</time>
      </trkpt>
      <trkpt lat="43.56465" lon="5.63153">
        <ele>498.2</ele>
        <time>2018-11-04T10:35:52Z</time>
      </trkpt>
      <trkpt lat="43.56455" lon="5.63175">
        <ele>500.92</ele>
        <time>2018-11-04T10:36:07Z</time>
      </trkpt>
      <trkpt lat="43.56459" lon="5.632">
        <ele>503.7</ele>
        <time>2018-11-04T10:36:23Z</time>
      </trkpt>
      <trkpt lat="43.56468" lon="5.63222">
        <ele>507.87</ele>
        <time>2018-11-04T10:36:38Z</time>
      </trkpt>
      <trkpt lat="43.56479" lon="5.63244">
        <ele>512.37</ele>
        <time>2018-11-04T10:36:53Z</time>
      </trkpt>
      <trkpt lat="43.56488" lon="5.63266">
        <ele>517.09</ele>
        <time>2018-11-04T10:37:08Z</time>
      </trkpt>
      <trkpt lat="43.56498" lon="5.63288">
        <ele>522.37</ele>
        <time>2018-11-04T10:37:25Z</time>
      </trkpt>
      <trkpt lat="43.56504" lon="5.63313">
        <ele>526.87</ele>
        <time>2018-11-04T10:37:41Z</time>
      </trkpt>
      <trkpt lat="43.56518" lon="5.6333">
        <ele>529.16</ele>
        <time>2018-11-04T10:37:58Z</time>
      </trkpt>
      <trkpt lat="43.56521" lon="5.63356">
        <ele>531.49</ele>
        <time>2018-11-04T10:38:16Z</time>
      </trkpt>
      <trkpt lat="43.56535" lon="5.63372">
        <ele>534.78</ele>
        <time>2018-11-04T10:38:30Z</time>
      </trkpt>
      <trkpt lat="43.56541" lon="5.63397">
        <ele>537.12</ele>
        <time>2018-11-04T10:38:50Z</time>
      </trkpt>
      <trkpt lat="43.56556" lon="5.63411">
        <ele>539.14</ele>
        <time>2018-11-04T10:39:09Z</time>
      </trkpt>
      <trkpt lat="43.5656" lon="5.63435">
        <ele>541.42</ele>
        <time>2018-11-04T10:39:29Z</time>
      </trkpt>
      <trkpt lat="43.56566" lon="5.63459">
        <ele>543.8</ele>
        <time>2018-11-04T10:40:04Z</time>
      </trkpt>
      <trkpt lat="43.56575" lon="5.63481">
        <ele>546.13</ele>
        <time>2018-11-04T10:40:36Z</time>
      </trkpt>
      <trkpt lat="43.56592" lon="5.6347">
        <ele>548.24</ele>
        <time>2018-11-04T10:41:18Z</time>
      </trkpt>
      <trkpt lat="43.56601" lon="5.63448">
        <ele>548.25</ele>
        <time>2018-11-04T10:41:31Z</time>
      </trkpt>
      <trkpt lat="43.56611" lon="5.63426">
        <ele>547.84</ele>
        <time>2018-11-04T10:41:42Z</time>
      </trkpt>
      <trkpt lat="43.56618" lon="5.63402">
        <ele>549.12</ele>
        <time>2018-11-04T10:41:55Z</time>
      </trkpt>
      <trkpt lat="43.56624" lon="5.63378">
        <ele>550.04</ele>
        <time>2018-11-04T10:42:15Z</time>
      </trkpt>
      <trkpt lat="43.56643" lon="5.63379">
        <ele>554.28</ele>
        <time>2018-11-04T10:42:35Z</time>
      </trkpt>
      <trkpt lat="43.56661" lon="5.63383">
        <ele>560.96</ele>
        <time>2018-11-04T10:42:56Z</time>
      </trkpt>
      <trkpt lat="43.56661" lon="5.63409">
        <ele>564.34</ele>
        <time>2018-11-04T10:43:21Z</time>
      </trkpt>
      <trkpt lat="43.56665" lon="5.63435">
        <ele>566.5</ele>
        <time>2018-11-04T10:43:35Z</time>
      </trkpt>
      <trkpt lat="43.56679" lon="5.63453">
        <ele>569.58</ele>
        <time>2018-11-04T10:43:48Z</time>
      </trkpt>
      <trkpt lat="43.56687" lon="5.63477">
        <ele>572.42</ele>
        <time>2018-11-04T10:44:01Z</time>
      </trkpt>
      <trkpt lat="43.56686" lon="5.63502">
        <ele>573.23</ele>
        <time>2018-11-04T10:44:14Z</time>
      </trkpt>
      <trkpt lat="43.56685" lon="5.63528">
        <ele>575</ele>
        <time>2018-11-04T10:44:26Z</time>
      </trkpt>
      <trkpt lat="43.56686" lon="5.63553">
        <ele>577.12</ele>
        <time>2018-11-04T10:44:38Z</time>
      </trkpt>
      <trkpt lat="43.5668" lon="5.63577">
        <ele>578.82</ele>
        <time>2018-11-04T10:44:49Z</time>
      </trkpt>
      <trkpt lat="43.5668" lon="5.63602">
        <ele>580.2</ele>
        <time>2018-11-04T10:45:01Z</time>
      </trkpt>
      <trkpt lat="43.56672" lon="5.63624">
        <ele>579.1</ele>
        <time>2018-11-04T10:56:14Z</time>
      </trkpt>
      <trkpt lat="43.56667" lon="5.63648">
        <ele>580.82</ele>
        <time>2018-11-04T10:56:27Z</time>
      </trkpt>
      <trkpt lat="43.56661" lon="5.63674">
        <ele>581.52</ele>
        <time>2018-11-04T10:56:38Z</time>
      </trkpt>
      <trkpt lat="43.56657" lon="5.63699">
        <ele>582.82</ele>
        <time>2018-11-04T10:56:49Z</time>
      </trkpt>
      <trkpt lat="43.56655" lon="5.63725">
        <ele>584.5</ele>
        <time>2018-11-04T10:57:00Z</time>
      </trkpt>
      <trkpt lat="43.56652" lon="5.63752">
        <ele>585.9</ele>
        <time>2018-11-04T10:57:11Z</time>
      </trkpt>
      <trkpt lat="43.5665" lon="5.63778">
        <ele>587.02</ele>
        <time>2018-11-04T10:57:22Z</time>
      </trkpt>
      <trkpt lat="43.56649" lon="5.63803">
        <ele>587.92</ele>
        <time>2018-11-04T10:57:32Z</time>
      </trkpt>
      <trkpt lat="43.56648" lon="5.63829">
        <ele>589.62</ele>
        <time>2018-11-04T10:57:42Z</time>
      </trkpt>
      <trkpt lat="43.5665" lon="5.63856">
        <ele>591.22</ele>
        <time>2018-11-04T10:57:53Z</time>
      </trkpt>
      <trkpt lat="43.56651" lon="5.63881">
        <ele>592.72</ele>
        <time>2018-11-04T10:58:03Z</time>
      </trkpt>
      <trkpt lat="43.56651" lon="5.63906">
        <ele>594</ele>
        <time>2018-11-04T10:58:13Z</time>
      </trkpt>
      <trkpt lat="43.56651" lon="5.63932">
        <ele>594.94</ele>
        <time>2018-11-04T10:58:23Z</time>
      </trkpt>
      <trkpt lat="43.56651" lon="5.63958">
        <ele>595.82</ele>
        <time>2018-11-04T10:58:33Z</time>
      </trkpt>
      <trkpt lat="43.56651" lon="5.63984">
        <ele>596.6</ele>
        <time>2018-11-04T10:58:43Z</time>
      </trkpt>
      <trkpt lat="43.56652" lon="5.6401">
        <ele>597.6</ele>
        <time>2018-11-04T10:58:53Z</time>
      </trkpt>
      <trkpt lat="43.56654" lon="5.64035">
        <ele>598.54</ele>
        <time>2018-11-04T10:59:03Z</time>
      </trkpt>
      <trkpt lat="43.56656" lon="5.64061">
        <ele>599.32</ele>
        <time>2018-11-04T10:59:12Z</time>
      </trkpt>
      <trkpt lat="43.56658" lon="5.64089">
        <ele>600.58</ele>
        <time>2018-11-04T10:59:21Z</time>
      </trkpt>
      <trkpt lat="43.56662" lon="5.64116">
        <ele>600.72</ele>
        <time>2018-11-04T10:59:29Z</time>
      </trkpt>
      <trkpt lat="43.56672" lon="5.64142">
        <ele>600.29</ele>
        <time>2018-11-04T10:59:36Z</time>
      </trkpt>
      <trkpt lat="43.56682" lon="5.64165">
        <ele>599.29</ele>
        <time>2018-11-04T10:59:42Z</time>
      </trkpt>
      <trkpt lat="43.56688" lon="5.6419">
        <ele>599.42</ele>
        <time>2018-11-04T10:59:48Z</time>
      </trkpt>
      <trkpt lat="43.56694" lon="5.64215">
        <ele>599.76</ele>
        <time>2018-11-04T10:59:54Z</time>
      </trkpt>
      <trkpt lat="43.56701" lon="5.64242">
        <ele>600.16</ele>
        <time>2018-11-04T11:00:00Z</time>
      </trkpt>
      <trkpt lat="43.56708" lon="5.64265">
        <ele>600.36</ele>
        <time>2018-11-04T11:00:05Z</time>
      </trkpt>
      <trkpt lat="43.56716" lon="5.64288">
        <ele>601.39</ele>
        <time>2018-11-04T11:00:10Z</time>
      </trkpt>
      <trkpt lat="43.56725" lon="5.64311">
        <ele>600.13</ele>
        <time>2018-11-04T11:00:15Z</time>
      </trkpt>
      <trkpt lat="43.56725" lon="5.6434">
        <ele>600.73</ele>
        <time>2018-11-04T11:00:21Z</time>
      </trkpt>
      <trkpt lat="43.56724" lon="5.64367">
        <ele>601.16</ele>
        <time>2018-11-04T11:00:27Z</time>
      </trkpt>
      <trkpt lat="43.56723" lon="5.64392">
        <ele>601.5</ele>
        <time>2018-11-04T11:00:33Z</time>
      </trkpt>
      <trkpt lat="43.56722" lon="5.6442">
        <ele>601.39</ele>
        <time>2018-11-04T11:00:40Z</time>
      </trkpt>
      <trkpt lat="43.56723" lon="5.64446">
        <ele>601.05</ele>
        <time>2018-11-04T11:00:47Z</time>
      </trkpt>
      <trkpt lat="43.56722" lon="5.64473">
        <ele>600.17</ele>
        <time>2018-11-04T11:00:54Z</time>
      </trkpt>
      <trkpt lat="43.56706" lon="5.64486">
        <ele>598.88</ele>
        <time>2018-11-04T11:02:17Z</time>
      </trkpt>
      <trkpt lat="43.56686" lon="5.6448">
        <ele>597.93</ele>
        <time>2018-11-04T11:02:24Z</time>
      </trkpt>
      <trkpt lat="43.56667" lon="5.64473">
        <ele>597.76</ele>
        <time>2018-11-04T11:02:30Z</time>
      </trkpt>
      <trkpt lat="43.56647" lon="5.64465">
        <ele>597.53</ele>
        <time>2018-11-04T11:02:37Z</time>
      </trkpt>
      <trkpt lat="43.5663" lon="5.64456">
        <ele>597.8</ele>
        <time>2018-11-04T11:02:45Z</time>
      </trkpt>
      <trkpt lat="43.56612" lon="5.64452">
        <ele>598.53</ele>
        <time>2018-11-04T11:02:52Z</time>
      </trkpt>
      <trkpt lat="43.56593" lon="5.64446">
        <ele>597.83</ele>
        <time>2018-11-04T11:03:03Z</time>
      </trkpt>
      <trkpt lat="43.56575" lon="5.64438">
        <ele>599.1</ele>
        <time>2018-11-04T11:03:14Z</time>
      </trkpt>
      <trkpt lat="43.56558" lon="5.6443">
        <ele>599.14</ele>
        <time>2018-11-04T11:03:22Z</time>
      </trkpt>
      <trkpt lat="43.56539" lon="5.6442">
        <ele>598.79</ele>
        <time>2018-11-04T11:03:28Z</time>
      </trkpt>
      <trkpt lat="43.5652" lon="5.64415">
        <ele>597.34</ele>
        <time>2018-11-04T11:03:33Z</time>
      </trkpt>
      <trkpt lat="43.56502" lon="5.64408">
        <ele>596.14</ele>
        <time>2018-11-04T11:03:37Z</time>
      </trkpt>
      <trkpt lat="43.5648" lon="5.64399">
        <ele>593.8</ele>
        <time>2018-11-04T11:03:41Z</time>
      </trkpt>
      <trkpt lat="43.56461" lon="5.64395">
        <ele>591.23</ele>
        <time>2018-11-04T11:03:45Z</time>
      </trkpt>
      <trkpt lat="43.5645" lon="5.64418">
        <ele>588.21</ele>
        <time>2018-11-04T11:03:50Z</time>
      </trkpt>
      <trkpt lat="43.56447" lon="5.64445">
        <ele>585.58</ele>
        <time>2018-11-04T11:03:54Z</time>
      </trkpt>
      <trkpt lat="43.5644" lon="5.64467">
        <ele>584.61</ele>
        <time>2018-11-04T11:03:57Z</time>
      </trkpt>
      <trkpt lat="43.56439" lon="5.64496">
        <ele>585.75</ele>
        <time>2018-11-04T11:04:02Z</time>
      </trkpt>
      <trkpt lat="43.56444" lon="5.64521">
        <ele>586.3</ele>
        <time>2018-11-04T11:04:08Z</time>
      </trkpt>
      <trkpt lat="43.56453" lon="5.64543">
        <ele>587.13</ele>
        <time>2018-11-04T11:04:13Z</time>
      </trkpt>
      <trkpt lat="43.56462" lon="5.64565">
        <ele>588.05</ele>
        <time>2018-11-04T11:04:18Z</time>
      </trkpt>
      <trkpt lat="43.56468" lon="5.64593">
        <ele>589.2</ele>
        <time>2018-11-04T11:04:25Z</time>
      </trkpt>
      <trkpt lat="43.5647" lon="5.64621">
        <ele>589.28</ele>
        <time>2018-11-04T11:04:31Z</time>
      </trkpt>
      <trkpt lat="43.56475" lon="5.6465">
        <ele>589.78</ele>
        <time>2018-11-04T11:04:37Z</time>
      </trkpt>
      <trkpt lat="43.56484" lon="5.64673">
        <ele>589.86</ele>
        <time>2018-11-04T11:04:42Z</time>
      </trkpt>
      <trkpt lat="43.56488" lon="5.64697">
        <ele>588.18</ele>
        <time>2018-11-04T11:04:47Z</time>
      </trkpt>
      <trkpt lat="43.56477" lon="5.64724">
        <ele>585.9</ele>
        <time>2018-11-04T11:04:52Z</time>
      </trkpt>
      <trkpt lat="43.56462" lon="5.64749">
        <ele>584.11</ele>
        <time>2018-11-04T11:04:56Z</time>
      </trkpt>
      <trkpt lat="43.56445" lon="5.64773">
        <ele>583</ele>
        <time>2018-11-04T11:05:00Z</time>
      </trkpt>
      <trkpt lat="43.56429" lon="5.64793">
        <ele>582.23</ele>
        <time>2018-11-04T11:05:03Z</time>
      </trkpt>
      <trkpt lat="43.56416" lon="5.6481">
        <ele>582.7</ele>
        <time>2018-11-04T11:05:06Z</time>
      </trkpt>
      <trkpt lat="43.56401" lon="5.64829">
        <ele>582.3</ele>
        <time>2018-11-04T11:05:11Z</time>
      </trkpt>
      <trkpt lat="43.56382" lon="5.64837">
        <ele>581.08</ele>
        <time>2018-11-04T11:05:15Z</time>
      </trkpt>
      <trkpt lat="43.56361" lon="5.64832">
        <ele>581.82</ele>
        <time>2018-11-04T11:05:20Z</time>
      </trkpt>
      <trkpt lat="43.56343" lon="5.6483">
        <ele>582.27</ele>
        <time>2018-11-04T11:05:27Z</time>
      </trkpt>
      <trkpt lat="43.56325" lon="5.64815">
        <ele>584.67</ele>
        <time>2018-11-04T11:05:36Z</time>
      </trkpt>
      <trkpt lat="43.56313" lon="5.64794">
        <ele>584.58</ele>
        <time>2018-11-04T11:05:43Z</time>
      </trkpt>
      <trkpt lat="43.56301" lon="5.64774">
        <ele>583.98</ele>
        <time>2018-11-04T11:05:49Z</time>
      </trkpt>
      <trkpt lat="43.56291" lon="5.64751">
        <ele>583.88</ele>
        <time>2018-11-04T11:05:54Z</time>
      </trkpt>
      <trkpt lat="43.56279" lon="5.64728">
        <ele>583.09</ele>
        <time>2018-11-04T11:05:59Z</time>
      </trkpt>
      <trkpt lat="43.5626" lon="5.64715">
        <ele>582.12</ele>
        <time>2018-11-04T11:06:05Z</time>
      </trkpt>
      <trkpt lat="43.56241" lon="5.64715">
        <ele>581.56</ele>
        <time>2018-11-04T11:06:10Z</time>
      </trkpt>
      <trkpt lat="43.5622" lon="5.64718">
        <ele>580.86</ele>
        <time>2018-11-04T11:06:14Z</time>
      </trkpt>
      <trkpt lat="43.56198" lon="5.64723">
        <ele>579.42</ele>
        <time>2018-11-04T11:06:18Z</time>
      </trkpt>
      <trkpt lat="43.5618" lon="5.64721">
        <ele>579.85</ele>
        <time>2018-11-04T11:06:21Z</time>
      </trkpt>
      <trkpt lat="43.56161" lon="5.64722">
        <ele>582.24</ele>
        <time>2018-11-04T11:06:25Z</time>
      </trkpt>
      <trkpt lat="43.56145" lon="5.64736">
        <ele>583.1</ele>
        <time>2018-11-04T11:06:30Z</time>
      </trkpt>
      <trkpt lat="43.56131" lon="5.64755">
        <ele>587</ele>
        <time>2018-11-04T11:06:37Z</time>
      </trkpt>
      <trkpt lat="43.56115" lon="5.64771">
        <ele>589.32</ele>
        <time>2018-11-04T11:06:46Z</time>
      </trkpt>
      <trkpt lat="43.56106" lon="5.64793">
        <ele>590.67</ele>
        <time>2018-11-04T11:06:55Z</time>
      </trkpt>
      <trkpt lat="43.56104" lon="5.64818">
        <ele>594.39</ele>
        <time>2018-11-04T11:07:04Z</time>
      </trkpt>
      <trkpt lat="43.56108" lon="5.64844">
        <ele>593.65</ele>
        <time>2018-11-04T11:07:14Z</time>
      </trkpt>
      <trkpt lat="43.56119" lon="5.64864">
        <ele>593.84</ele>
        <time>2018-11-04T11:07:23Z</time>
      </trkpt>
      <trkpt lat="43.56125" lon="5.64889">
        <ele>593.75</ele>
        <time>2018-11-04T11:07:34Z</time>
      </trkpt>
      <trkpt lat="43.56125" lon="5.64916">
        <ele>594.7</ele>
        <time>2018-11-04T11:07:45Z</time>
      </trkpt>
      <trkpt lat="43.56125" lon="5.64941">
        <ele>598.23</ele>
        <time>2018-11-04T11:07:55Z</time>
      </trkpt>
      <trkpt lat="43.56127" lon="5.64966">
        <ele>601.83</ele>
        <time>2018-11-04T11:08:13Z</time>
      </trkpt>
      <trkpt lat="43.56129" lon="5.64991">
        <ele>602.44</ele>
        <time>2018-11-04T11:08:23Z</time>
      </trkpt>
      <trkpt lat="43.56132" lon="5.65016">
        <ele>603.58</ele>
        <time>2018-11-04T11:08:32Z</time>
      </trkpt>
      <trkpt lat="43.56135" lon="5.65042">
        <ele>601.05</ele>
        <time>2018-11-04T11:08:46Z</time>
      </trkpt>
      <trkpt lat="43.56144" lon="5.65064">
        <ele>601.94</ele>
        <time>2018-11-04T11:08:58Z</time>
      </trkpt>
      <trkpt lat="43.5615" lon="5.6509">
        <ele>603.18</ele>
        <time>2018-11-04T11:09:09Z</time>
      </trkpt>
      <trkpt lat="43.56159" lon="5.65114">
        <ele>605.42</ele>
        <time>2018-11-04T11:09:17Z</time>
      </trkpt>
      <trkpt lat="43.56167" lon="5.65137">
        <ele>605.2</ele>
        <time>2018-11-04T11:09:25Z</time>
      </trkpt>
      <trkpt lat="43.56174" lon="5.65161">
        <ele>605.92</ele>
        <time>2018-11-04T11:09:32Z</time>
      </trkpt>
      <trkpt lat="43.56178" lon="5.65186">
        <ele>605.43</ele>
        <time>2018-11-04T11:09:39Z</time>
      </trkpt>
      <trkpt lat="43.5618" lon="5.65213">
        <ele>604.19</ele>
        <time>2018-11-04T11:09:46Z</time>
      </trkpt>
      <trkpt lat="43.56181" lon="5.65241">
        <ele>604.54</ele>
        <time>2018-11-04T11:09:53Z</time>
      </trkpt>
      <trkpt lat="43.56183" lon="5.65268">
        <ele>604.61</ele>
        <time>2018-11-04T11:10:00Z</time>
      </trkpt>
      <trkpt lat="43.56186" lon="5.65294">
        <ele>604.52</ele>
        <time>2018-11-04T11:10:07Z</time>
      </trkpt>
      <trkpt lat="43.56186" lon="5.65321">
        <ele>605.18</ele>
        <time>2018-11-04T11:10:14Z</time>
      </trkpt>
      <trkpt lat="43.56183" lon="5.65345">
        <ele>605.48</ele>
        <time>2018-11-04T11:10:21Z</time>
      </trkpt>
      <trkpt lat="43.56181" lon="5.65371">
        <ele>605.39</ele>
        <time>2018-11-04T11:10:28Z</time>
      </trkpt>
      <trkpt lat="43.56176" lon="5.65396">
        <ele>604.83</ele>
        <time>2018-11-04T11:10:35Z</time>
      </trkpt>
      <trkpt lat="43.56173" lon="5.6542">
        <ele>604.21</ele>
        <time>2018-11-04T11:10:42Z</time>
      </trkpt>
      <trkpt lat="43.56174" lon="5.65449">
        <ele>603.3</ele>
        <time>2018-11-04T11:10:49Z</time>
      </trkpt>
      <trkpt lat="43.56174" lon="5.65477">
        <ele>603.31</ele>
        <time>2018-11-04T11:10:55Z</time>
      </trkpt>
      <trkpt lat="43.56172" lon="5.65503">
        <ele>603.84</ele>
        <time>2018-11-04T11:11:00Z</time>
      </trkpt>
      <trkpt lat="43.56168" lon="5.65531">
        <ele>603.27</ele>
        <time>2018-11-04T11:11:05Z</time>
      </trkpt>
      <trkpt lat="43.56165" lon="5.6556">
        <ele>602.97</ele>
        <time>2018-11-04T11:11:10Z</time>
      </trkpt>
      <trkpt lat="43.56165" lon="5.65588">
        <ele>601.88</ele>
        <time>2018-11-04T11:11:15Z</time>
      </trkpt>
      <trkpt lat="43.56166" lon="5.65614">
        <ele>600.88</ele>
        <time>2018-11-04T11:11:19Z</time>
      </trkpt>
      <trkpt lat="43.56166" lon="5.65643">
        <ele>600.36</ele>
        <time>2018-11-04T11:11:24Z</time>
      </trkpt>
      <trkpt lat="43.56163" lon="5.65669">
        <ele>600.19</ele>
        <time>2018-11-04T11:11:30Z</time>
      </trkpt>
      <trkpt lat="43.56158" lon="5.65697">
        <ele>600.23</ele>
        <time>2018-11-04T11:11:35Z</time>
      </trkpt>
      <trkpt lat="43.56152" lon="5.65725">
        <ele>600.35</ele>
        <time>2018-11-04T11:11:40Z</time>
      </trkpt>
      <trkpt lat="43.56149" lon="5.65754">
        <ele>600.25</ele>
        <time>2018-11-04T11:11:45Z</time>
      </trkpt>
      <trkpt lat="43.56148" lon="5.65784">
        <ele>600.53</ele>
        <time>2018-11-04T11:11:50Z</time>
      </trkpt>
      <trkpt lat="43.56149" lon="5.6581">
        <ele>600.35</ele>
        <time>2018-11-04T11:11:54Z</time>
      </trkpt>
      <trkpt lat="43.56149" lon="5.65837">
        <ele>599.12</ele>
        <time>2018-11-04T11:11:58Z</time>
      </trkpt>
      <trkpt lat="43.56147" lon="5.65865">
        <ele>598.95</ele>
        <time>2018-11-04T11:12:02Z</time>
      </trkpt>
      <trkpt lat="43.56144" lon="5.65895">
        <ele>598.93</ele>
        <time>2018-11-04T11:12:07Z</time>
      </trkpt>
      <trkpt lat="43.56144" lon="5.65925">
        <ele>598.45</ele>
        <time>2018-11-04T11:12:12Z</time>
      </trkpt>
      <trkpt lat="43.56145" lon="5.65951">
        <ele>597.83</ele>
        <time>2018-11-04T11:12:16Z</time>
      </trkpt>
      <trkpt lat="43.56146" lon="5.65976">
        <ele>596.65</ele>
        <time>2018-11-04T11:12:20Z</time>
      </trkpt>
      <trkpt lat="43.56146" lon="5.66002">
        <ele>596.26</ele>
        <time>2018-11-04T11:12:24Z</time>
      </trkpt>
      <trkpt lat="43.56144" lon="5.66032">
        <ele>595.95</ele>
        <time>2018-11-04T11:12:29Z</time>
      </trkpt>
      <trkpt lat="43.5614" lon="5.66062">
        <ele>595.76</ele>
        <time>2018-11-04T11:12:34Z</time>
      </trkpt>
      <trkpt lat="43.56136" lon="5.66091">
        <ele>595.45</ele>
        <time>2018-11-04T11:12:39Z</time>
      </trkpt>
      <trkpt lat="43.56136" lon="5.66122">
        <ele>594.58</ele>
        <time>2018-11-04T11:12:44Z</time>
      </trkpt>
      <trkpt lat="43.56135" lon="5.6615">
        <ele>593.91</ele>
        <time>2018-11-04T11:12:48Z</time>
      </trkpt>
      <trkpt lat="43.56134" lon="5.66178">
        <ele>593.45</ele>
        <time>2018-11-04T11:12:52Z</time>
      </trkpt>
      <trkpt lat="43.56131" lon="5.66204">
        <ele>593.64</ele>
        <time>2018-11-04T11:12:56Z</time>
      </trkpt>
      <trkpt lat="43.56126" lon="5.66233">
        <ele>594.03</ele>
        <time>2018-11-04T11:13:01Z</time>
      </trkpt>
      <trkpt lat="43.56124" lon="5.66261">
        <ele>594.05</ele>
        <time>2018-11-04T11:13:06Z</time>
      </trkpt>
      <trkpt lat="43.56122" lon="5.66291">
        <ele>593.44</ele>
        <time>2018-11-04T11:13:11Z</time>
      </trkpt>
      <trkpt lat="43.56121" lon="5.66321">
        <ele>593.25</ele>
        <time>2018-11-04T11:13:16Z</time>
      </trkpt>
      <trkpt lat="43.56119" lon="5.66349">
        <ele>593.24</ele>
        <time>2018-11-04T11:13:21Z</time>
      </trkpt>
      <trkpt lat="43.56115" lon="5.66376">
        <ele>593.42</ele>
        <time>2018-11-04T11:13:26Z</time>
      </trkpt>
      <trkpt lat="43.56112" lon="5.66405">
        <ele>593.05</ele>
        <time>2018-11-04T11:13:31Z</time>
      </trkpt>
      <trkpt lat="43.56109" lon="5.66431">
        <ele>592.81</ele>
        <time>2018-11-04T11:13:35Z</time>
      </trkpt>
      <trkpt lat="43.561" lon="5.66456">
        <ele>593.26</ele>
        <time>2018-11-04T11:13:40Z</time>
      </trkpt>
      <trkpt lat="43.56092" lon="5.6648">
        <ele>592.87</ele>
        <time>2018-11-04T11:13:45Z</time>
      </trkpt>
      <trkpt lat="43.56086" lon="5.66506">
        <ele>592.06</ele>
        <time>2018-11-04T11:13:50Z</time>
      </trkpt>
      <trkpt lat="43.56081" lon="5.66536">
        <ele>590.93</ele>
        <time>2018-11-04T11:13:55Z</time>
      </trkpt>
      <trkpt lat="43.56078" lon="5.66561">
        <ele>589.82</ele>
        <time>2018-11-04T11:13:59Z</time>
      </trkpt>
      <trkpt lat="43.56076" lon="5.66586">
        <ele>588.72</ele>
        <time>2018-11-04T11:14:03Z</time>
      </trkpt>
      <trkpt lat="43.56075" lon="5.66614">
        <ele>587.09</ele>
        <time>2018-11-04T11:14:07Z</time>
      </trkpt>
      <trkpt lat="43.56072" lon="5.66644">
        <ele>585.17</ele>
        <time>2018-11-04T11:14:11Z</time>
      </trkpt>
      <trkpt lat="43.56069" lon="5.66676">
        <ele>583.07</ele>
        <time>2018-11-04T11:14:15Z</time>
      </trkpt>
      <trkpt lat="43.56074" lon="5.66702">
        <ele>580.96</ele>
        <time>2018-11-04T11:14:18Z</time>
      </trkpt>
      <trkpt lat="43.5608" lon="5.6673">
        <ele>578.86</ele>
        <time>2018-11-04T11:14:21Z</time>
      </trkpt>
      <trkpt lat="43.56085" lon="5.66759">
        <ele>576.67</ele>
        <time>2018-11-04T11:14:24Z</time>
      </trkpt>
      <trkpt lat="43.56091" lon="5.66788">
        <ele>574.16</ele>
        <time>2018-11-04T11:14:27Z</time>
      </trkpt>
      <trkpt lat="43.56098" lon="5.66817">
        <ele>571.58</ele>
        <time>2018-11-04T11:14:30Z</time>
      </trkpt>
      <trkpt lat="43.56104" lon="5.66847">
        <ele>569.18</ele>
        <time>2018-11-04T11:14:33Z</time>
      </trkpt>
      <trkpt lat="43.56103" lon="5.6688">
        <ele>566.37</ele>
        <time>2018-11-04T11:14:36Z</time>
      </trkpt>
      <trkpt lat="43.56103" lon="5.66913">
        <ele>563.84</ele>
        <time>2018-11-04T11:14:39Z</time>
      </trkpt>
      <trkpt lat="43.56103" lon="5.66946">
        <ele>561.43</ele>
        <time>2018-11-04T11:14:42Z</time>
      </trkpt>
      <trkpt lat="43.56103" lon="5.66978">
        <ele>559.32</ele>
        <time>2018-11-04T11:14:45Z</time>
      </trkpt>
      <trkpt lat="43.56109" lon="5.67006">
        <ele>558.13</ele>
        <time>2018-11-04T11:14:48Z</time>
      </trkpt>
      <trkpt lat="43.56123" lon="5.67025">
        <ele>557.51</ele>
        <time>2018-11-04T11:14:51Z</time>
      </trkpt>
      <trkpt lat="43.56138" lon="5.67038">
        <ele>556.21</ele>
        <time>2018-11-04T11:14:54Z</time>
      </trkpt>
      <trkpt lat="43.56145" lon="5.67061">
        <ele>554.92</ele>
        <time>2018-11-04T11:14:58Z</time>
      </trkpt>
      <trkpt lat="43.56131" lon="5.67085">
        <ele>554.37</ele>
        <time>2018-11-04T11:15:02Z</time>
      </trkpt>
      <trkpt lat="43.56114" lon="5.67105">
        <ele>553.88</ele>
        <time>2018-11-04T11:15:06Z</time>
      </trkpt>
      <trkpt lat="43.56106" lon="5.67132">
        <ele>552.8</ele>
        <time>2018-11-04T11:15:10Z</time>
      </trkpt>
      <trkpt lat="43.56102" lon="5.67159">
        <ele>551.82</ele>
        <time>2018-11-04T11:15:14Z</time>
      </trkpt>
      <trkpt lat="43.56093" lon="5.67184">
        <ele>550.73</ele>
        <time>2018-11-04T11:15:18Z</time>
      </trkpt>
      <trkpt lat="43.56081" lon="5.67209">
        <ele>549.15</ele>
        <time>2018-11-04T11:15:22Z</time>
      </trkpt>
      <trkpt lat="43.56068" lon="5.67236">
        <ele>547.03</ele>
        <time>2018-11-04T11:15:26Z</time>
      </trkpt>
      <trkpt lat="43.56063" lon="5.67261">
        <ele>545.67</ele>
        <time>2018-11-04T11:15:29Z</time>
      </trkpt>
      <trkpt lat="43.56058" lon="5.67292">
        <ele>544.26</ele>
        <time>2018-11-04T11:15:33Z</time>
      </trkpt>
      <trkpt lat="43.56054" lon="5.67324">
        <ele>542.67</ele>
        <time>2018-11-04T11:15:37Z</time>
      </trkpt>
      <trkpt lat="43.56055" lon="5.67355">
        <ele>541.6</ele>
        <time>2018-11-04T11:15:41Z</time>
      </trkpt>
      <trkpt lat="43.56034" lon="5.67352">
        <ele>538.1</ele>
        <time>2018-11-04T11:15:47Z</time>
      </trkpt>
      <trkpt lat="43.56021" lon="5.67324">
        <ele>535.58</ele>
        <time>2018-11-04T11:15:51Z</time>
      </trkpt>
      <trkpt lat="43.5601" lon="5.673">
        <ele>533.57</ele>
        <time>2018-11-04T11:15:54Z</time>
      </trkpt>
      <trkpt lat="43.55993" lon="5.67285">
        <ele>531.55</ele>
        <time>2018-11-04T11:15:58Z</time>
      </trkpt>
      <trkpt lat="43.55977" lon="5.673">
        <ele>530.34</ele>
        <time>2018-11-04T11:16:01Z</time>
      </trkpt>
      <trkpt lat="43.55958" lon="5.67315">
        <ele>530.21</ele>
        <time>2018-11-04T11:16:04Z</time>
      </trkpt>
      <trkpt lat="43.5594" lon="5.67335">
        <ele>530.46</ele>
        <time>2018-11-04T11:16:07Z</time>
      </trkpt>
      <trkpt lat="43.55923" lon="5.67353">
        <ele>530.88</ele>
        <time>2018-11-04T11:16:10Z</time>
      </trkpt>
      <trkpt lat="43.55903" lon="5.6736">
        <ele>532.84</ele>
        <time>2018-11-04T11:16:14Z</time>
      </trkpt>
      <trkpt lat="43.55887" lon="5.67378">
        <ele>536.34</ele>
        <time>2018-11-04T11:16:21Z</time>
      </trkpt>
      <trkpt lat="43.5588" lon="5.67403">
        <ele>537.22</ele>
        <time>2018-11-04T11:16:29Z</time>
      </trkpt>
      <trkpt lat="43.55877" lon="5.67428">
        <ele>538.14</ele>
        <time>2018-11-04T11:16:37Z</time>
      </trkpt>
      <trkpt lat="43.55862" lon="5.67446">
        <ele>540.3</ele>
        <time>2018-11-04T11:16:45Z</time>
      </trkpt>
      <trkpt lat="43.55845" lon="5.67455">
        <ele>540.85</ele>
        <time>2018-11-04T11:16:55Z</time>
      </trkpt>
      <trkpt lat="43.55828" lon="5.67466">
        <ele>540.35</ele>
        <time>2018-11-04T11:17:04Z</time>
      </trkpt>
      <trkpt lat="43.55811" lon="5.67475">
        <ele>540.52</ele>
        <time>2018-11-04T11:17:13Z</time>
      </trkpt>
      <trkpt lat="43.55792" lon="5.67487">
        <ele>542.25</ele>
        <time>2018-11-04T11:18:43Z</time>
      </trkpt>
      <trkpt lat="43.55774" lon="5.67496">
        <ele>542.3</ele>
        <time>2018-11-04T11:18:50Z</time>
      </trkpt>
      <trkpt lat="43.55781" lon="5.67522">
        <ele>543.51</ele>
        <time>2018-11-04T11:18:58Z</time>
      </trkpt>
      <trkpt lat="43.55793" lon="5.67545">
        <ele>543.24</ele>
        <time>2018-11-04T11:19:03Z</time>
      </trkpt>
      <trkpt lat="43.55804" lon="5.67567">
        <ele>541.68</ele>
        <time>2018-11-04T11:19:07Z</time>
      </trkpt>
      <trkpt lat="43.55813" lon="5.67594">
        <ele>540.04</ele>
        <time>2018-11-04T11:19:11Z</time>
      </trkpt>
      <trkpt lat="43.55827" lon="5.6762">
        <ele>538.62</ele>
        <time>2018-11-04T11:19:15Z</time>
      </trkpt>
      <trkpt lat="43.55839" lon="5.67639">
        <ele>537.62</ele>
        <time>2018-11-04T11:19:18Z</time>
      </trkpt>
      <trkpt lat="43.55853" lon="5.67656">
        <ele>536.56</ele>
        <time>2018-11-04T11:19:21Z</time>
      </trkpt>
      <trkpt lat="43.55867" lon="5.67674">
        <ele>535.7</ele>
        <time>2018-11-04T11:19:24Z</time>
      </trkpt>
      <trkpt lat="43.55882" lon="5.67691">
        <ele>534.98</ele>
        <time>2018-11-04T11:19:27Z</time>
      </trkpt>
      <trkpt lat="43.55897" lon="5.6771">
        <ele>534.61</ele>
        <time>2018-11-04T11:19:30Z</time>
      </trkpt>
      <trkpt lat="43.55912" lon="5.67727">
        <ele>534</ele>
        <time>2018-11-04T11:19:33Z</time>
      </trkpt>
      <trkpt lat="43.55924" lon="5.67746">
        <ele>533.24</ele>
        <time>2018-11-04T11:19:36Z</time>
      </trkpt>
      <trkpt lat="43.55932" lon="5.67769">
        <ele>533.02</ele>
        <time>2018-11-04T11:19:39Z</time>
      </trkpt>
      <trkpt lat="43.5594" lon="5.67793">
        <ele>532.77</ele>
        <time>2018-11-04T11:19:42Z</time>
      </trkpt>
      <trkpt lat="43.55948" lon="5.67818">
        <ele>531.92</ele>
        <time>2018-11-04T11:19:45Z</time>
      </trkpt>
      <trkpt lat="43.55951" lon="5.67843">
        <ele>531.57</ele>
        <time>2018-11-04T11:19:48Z</time>
      </trkpt>
      <trkpt lat="43.5595" lon="5.67874">
        <ele>531.74</ele>
        <time>2018-11-04T11:19:52Z</time>
      </trkpt>
      <trkpt lat="43.55949" lon="5.67905">
        <ele>530.98</ele>
        <time>2018-11-04T11:19:56Z</time>
      </trkpt>
      <trkpt lat="43.55937" lon="5.67934">
        <ele>529.61</ele>
        <time>2018-11-04T11:20:00Z</time>
      </trkpt>
      <trkpt lat="43.55927" lon="5.67956">
        <ele>529.19</ele>
        <time>2018-11-04T11:20:03Z</time>
      </trkpt>
      <trkpt lat="43.55922" lon="5.67981">
        <ele>527.96</ele>
        <time>2018-11-04T11:20:06Z</time>
      </trkpt>
      <trkpt lat="43.55918" lon="5.68008">
        <ele>526.75</ele>
        <time>2018-11-04T11:20:09Z</time>
      </trkpt>
      <trkpt lat="43.55912" lon="5.68035">
        <ele>526.01</ele>
        <time>2018-11-04T11:20:12Z</time>
      </trkpt>
      <trkpt lat="43.559" lon="5.68056">
        <ele>524.59</ele>
        <time>2018-11-04T11:20:15Z</time>
      </trkpt>
      <trkpt lat="43.55883" lon="5.68067">
        <ele>523.53</ele>
        <time>2018-11-04T11:20:18Z</time>
      </trkpt>
      <trkpt lat="43.55873" lon="5.68095">
        <ele>522.56</ele>
        <time>2018-11-04T11:20:22Z</time>
      </trkpt>
      <trkpt lat="43.55874" lon="5.68121">
        <ele>521.62</ele>
        <time>2018-11-04T11:20:25Z</time>
      </trkpt>
      <trkpt lat="43.5588" lon="5.68146">
        <ele>521.08</ele>
        <time>2018-11-04T11:20:28Z</time>
      </trkpt>
      <trkpt lat="43.55892" lon="5.68165">
        <ele>520.77</ele>
        <time>2018-11-04T11:20:31Z</time>
      </trkpt>
      <trkpt lat="43.55912" lon="5.68181">
        <ele>520.73</ele>
        <time>2018-11-04T11:20:34Z</time>
      </trkpt>
      <trkpt lat="43.5593" lon="5.68185">
        <ele>521.18</ele>
        <time>2018-11-04T11:20:37Z</time>
      </trkpt>
      <trkpt lat="43.5595" lon="5.68188">
        <ele>521.68</ele>
        <time>2018-11-04T11:20:41Z</time>
      </trkpt>
      <trkpt lat="43.5597" lon="5.68191">
        <ele>520.66</ele>
        <time>2018-11-04T11:20:46Z</time>
      </trkpt>
      <trkpt lat="43.5599" lon="5.68194">
        <ele>520.86</ele>
        <time>2018-11-04T11:20:51Z</time>
      </trkpt>
      <trkpt lat="43.55998" lon="5.68216">
        <ele>521.22</ele>
        <time>2018-11-04T11:20:56Z</time>
      </trkpt>
      <trkpt lat="43.56" lon="5.68244">
        <ele>520.97</ele>
        <time>2018-11-04T11:21:01Z</time>
      </trkpt>
      <trkpt lat="43.55993" lon="5.68271">
        <ele>521.32</ele>
        <time>2018-11-04T11:21:06Z</time>
      </trkpt>
      <trkpt lat="43.55987" lon="5.683">
        <ele>520.51</ele>
        <time>2018-11-04T11:21:11Z</time>
      </trkpt>
      <trkpt lat="43.55981" lon="5.68324">
        <ele>519.68</ele>
        <time>2018-11-04T11:21:15Z</time>
      </trkpt>
      <trkpt lat="43.55966" lon="5.68346">
        <ele>518.92</ele>
        <time>2018-11-04T11:21:19Z</time>
      </trkpt>
      <trkpt lat="43.55947" lon="5.68362">
        <ele>518.4</ele>
        <time>2018-11-04T11:21:23Z</time>
      </trkpt>
      <trkpt lat="43.55932" lon="5.68387">
        <ele>517.25</ele>
        <time>2018-11-04T11:21:27Z</time>
      </trkpt>
      <trkpt lat="43.5592" lon="5.68407">
        <ele>515.81</ele>
        <time>2018-11-04T11:21:30Z</time>
      </trkpt>
      <trkpt lat="43.55902" lon="5.68419">
        <ele>513.64</ele>
        <time>2018-11-04T11:21:33Z</time>
      </trkpt>
      <trkpt lat="43.55887" lon="5.68437">
        <ele>511.31</ele>
        <time>2018-11-04T11:21:36Z</time>
      </trkpt>
      <trkpt lat="43.55877" lon="5.68464">
        <ele>509.08</ele>
        <time>2018-11-04T11:21:39Z</time>
      </trkpt>
      <trkpt lat="43.55874" lon="5.68496">
        <ele>506.98</ele>
        <time>2018-11-04T11:21:42Z</time>
      </trkpt>
      <trkpt lat="43.55878" lon="5.68528">
        <ele>506.35</ele>
        <time>2018-11-04T11:21:45Z</time>
      </trkpt>
      <trkpt lat="43.55888" lon="5.68556">
        <ele>506.51</ele>
        <time>2018-11-04T11:21:48Z</time>
      </trkpt>
      <trkpt lat="43.55901" lon="5.68582">
        <ele>506.03</ele>
        <time>2018-11-04T11:21:51Z</time>
      </trkpt>
      <trkpt lat="43.55917" lon="5.68603">
        <ele>506.47</ele>
        <time>2018-11-04T11:21:54Z</time>
      </trkpt>
      <trkpt lat="43.55933" lon="5.68617">
        <ele>506.86</ele>
        <time>2018-11-04T11:21:57Z</time>
      </trkpt>
      <trkpt lat="43.55953" lon="5.68635">
        <ele>504.84</ele>
        <time>2018-11-04T11:22:01Z</time>
      </trkpt>
      <trkpt lat="43.55968" lon="5.68653">
        <ele>502.47</ele>
        <time>2018-11-04T11:22:04Z</time>
      </trkpt>
      <trkpt lat="43.55982" lon="5.68679">
        <ele>500.44</ele>
        <time>2018-11-04T11:22:07Z</time>
      </trkpt>
      <trkpt lat="43.55996" lon="5.687">
        <ele>500.17</ele>
        <time>2018-11-04T11:22:10Z</time>
      </trkpt>
      <trkpt lat="43.56007" lon="5.68727">
        <ele>501.33</ele>
        <time>2018-11-04T11:22:14Z</time>
      </trkpt>
      <trkpt lat="43.56018" lon="5.68756">
        <ele>501.54</ele>
        <time>2018-11-04T11:22:18Z</time>
      </trkpt>
      <trkpt lat="43.56033" lon="5.68774">
        <ele>501.64</ele>
        <time>2018-11-04T11:22:22Z</time>
      </trkpt>
      <trkpt lat="43.56046" lon="5.68796">
        <ele>501.65</ele>
        <time>2018-11-04T11:22:28Z</time>
      </trkpt>
      <trkpt lat="43.56051" lon="5.68821">
        <ele>501</ele>
        <time>2018-11-04T11:22:34Z</time>
      </trkpt>
      <trkpt lat="43.56036" lon="5.6884">
        <ele>499.23</ele>
        <time>2018-11-04T11:22:39Z</time>
      </trkpt>
      <trkpt lat="43.56015" lon="5.68852">
        <ele>497.15</ele>
        <time>2018-11-04T11:22:44Z</time>
      </trkpt>
      <trkpt lat="43.55994" lon="5.68864">
        <ele>493.85</ele>
        <time>2018-11-04T11:22:48Z</time>
      </trkpt>
      <trkpt lat="43.5598" lon="5.6888">
        <ele>490.93</ele>
        <time>2018-11-04T11:22:52Z</time>
      </trkpt>
      <trkpt lat="43.55963" lon="5.68873">
        <ele>487.36</ele>
        <time>2018-11-04T11:22:57Z</time>
      </trkpt>
      <trkpt lat="43.55938" lon="5.68871">
        <ele>484.24</ele>
        <time>2018-11-04T11:23:01Z</time>
      </trkpt>
      <trkpt lat="43.55919" lon="5.68881">
        <ele>482.9</ele>
        <time>2018-11-04T11:23:05Z</time>
      </trkpt>
      <trkpt lat="43.55927" lon="5.68905">
        <ele>485.04</ele>
        <time>2018-11-04T11:23:48Z</time>
      </trkpt>
      <trkpt lat="43.55934" lon="5.68929">
        <ele>485.01</ele>
        <time>2018-11-04T11:23:53Z</time>
      </trkpt>
      <trkpt lat="43.55936" lon="5.68955">
        <ele>484.82</ele>
        <time>2018-11-04T11:23:57Z</time>
      </trkpt>
      <trkpt lat="43.55938" lon="5.68983">
        <ele>484.52</ele>
        <time>2018-11-04T11:24:01Z</time>
      </trkpt>
      <trkpt lat="43.55942" lon="5.6901">
        <ele>484.43</ele>
        <time>2018-11-04T11:24:05Z</time>
      </trkpt>
      <trkpt lat="43.55943" lon="5.69041">
        <ele>484.17</ele>
        <time>2018-11-04T11:24:09Z</time>
      </trkpt>
      <trkpt lat="43.55948" lon="5.6907">
        <ele>484.44</ele>
        <time>2018-11-04T11:24:13Z</time>
      </trkpt>
      <trkpt lat="43.55958" lon="5.69098">
        <ele>484.46</ele>
        <time>2018-11-04T11:24:17Z</time>
      </trkpt>
      <trkpt lat="43.55968" lon="5.69126">
        <ele>485.6</ele>
        <time>2018-11-04T11:24:21Z</time>
      </trkpt>
      <trkpt lat="43.55982" lon="5.69152">
        <ele>486.26</ele>
        <time>2018-11-04T11:24:25Z</time>
      </trkpt>
      <trkpt lat="43.55994" lon="5.6918">
        <ele>485.19</ele>
        <time>2018-11-04T11:24:29Z</time>
      </trkpt>
      <trkpt lat="43.56007" lon="5.69207">
        <ele>483.66</ele>
        <time>2018-11-04T11:24:33Z</time>
      </trkpt>
      <trkpt lat="43.56015" lon="5.69229">
        <ele>482.31</ele>
        <time>2018-11-04T11:24:37Z</time>
      </trkpt>
      <trkpt lat="43.56026" lon="5.6925">
        <ele>482.6</ele>
        <time>2018-11-04T11:24:45Z</time>
      </trkpt>
      <trkpt lat="43.56039" lon="5.6927">
        <ele>483.56</ele>
        <time>2018-11-04T11:24:51Z</time>
      </trkpt>
      <trkpt lat="43.5605" lon="5.69289">
        <ele>483.69</ele>
        <time>2018-11-04T11:24:57Z</time>
      </trkpt>
      <trkpt lat="43.56058" lon="5.69314">
        <ele>483.95</ele>
        <time>2018-11-04T11:25:04Z</time>
      </trkpt>
      <trkpt lat="43.56049" lon="5.69336">
        <ele>485</ele>
        <time>2018-11-04T11:25:11Z</time>
      </trkpt>
      <trkpt lat="43.56034" lon="5.69351">
        <ele>486.28</ele>
        <time>2018-11-04T11:25:18Z</time>
      </trkpt>
      <trkpt lat="43.5602" lon="5.6937">
        <ele>487.6</ele>
        <time>2018-11-04T11:25:25Z</time>
      </trkpt>
      <trkpt lat="43.56006" lon="5.69388">
        <ele>488.23</ele>
        <time>2018-11-04T11:25:32Z</time>
      </trkpt>
      <trkpt lat="43.55994" lon="5.69409">
        <ele>490.59</ele>
        <time>2018-11-04T11:25:39Z</time>
      </trkpt>
      <trkpt lat="43.55983" lon="5.69433">
        <ele>492.28</ele>
        <time>2018-11-04T11:25:46Z</time>
      </trkpt>
      <trkpt lat="43.55974" lon="5.69458">
        <ele>492.64</ele>
        <time>2018-11-04T11:25:53Z</time>
      </trkpt>
      <trkpt lat="43.55971" lon="5.69485">
        <ele>492.04</ele>
        <time>2018-11-04T11:26:00Z</time>
      </trkpt>
      <trkpt lat="43.55969" lon="5.69514">
        <ele>490.85</ele>
        <time>2018-11-04T11:26:07Z</time>
      </trkpt>
      <trkpt lat="43.55969" lon="5.69541">
        <ele>491.44</ele>
        <time>2018-11-04T11:26:13Z</time>
      </trkpt>
      <trkpt lat="43.55969" lon="5.69567">
        <ele>490.67</ele>
        <time>2018-11-04T11:26:18Z</time>
      </trkpt>
      <trkpt lat="43.55965" lon="5.69594">
        <ele>491.02</ele>
        <time>2018-11-04T11:26:25Z</time>
      </trkpt>
      <trkpt lat="43.55963" lon="5.69619">
        <ele>492.72</ele>
        <time>2018-11-04T11:26:33Z</time>
      </trkpt>
      <trkpt lat="43.55965" lon="5.69646">
        <ele>492.14</ele>
        <time>2018-11-04T11:27:14Z</time>
      </trkpt>
      <trkpt lat="43.55972" lon="5.69673">
        <ele>493.38</ele>
        <time>2018-11-04T11:27:24Z</time>
      </trkpt>
      <trkpt lat="43.55979" lon="5.69698">
        <ele>494.81</ele>
        <time>2018-11-04T11:27:31Z</time>
      </trkpt>
      <trkpt lat="43.55977" lon="5.69724">
        <ele>495.6</ele>
        <time>2018-11-04T11:27:38Z</time>
      </trkpt>
      <trkpt lat="43.55973" lon="5.69751">
        <ele>496.51</ele>
        <time>2018-11-04T11:27:47Z</time>
      </trkpt>
      <trkpt lat="43.55969" lon="5.69778">
        <ele>497.62</ele>
        <time>2018-11-04T11:27:56Z</time>
      </trkpt>
      <trkpt lat="43.55971" lon="5.69805">
        <ele>498.54</ele>
        <time>2018-11-04T11:28:04Z</time>
      </trkpt>
      <trkpt lat="43.55974" lon="5.6983">
        <ele>499.09</ele>
        <time>2018-11-04T11:28:11Z</time>
      </trkpt>
      <trkpt lat="43.55974" lon="5.69855">
        <ele>499.54</ele>
        <time>2018-11-04T11:28:18Z</time>
      </trkpt>
      <trkpt lat="43.55978" lon="5.69883">
        <ele>499.52</ele>
        <time>2018-11-04T11:28:25Z</time>
      </trkpt>
      <trkpt lat="43.55978" lon="5.69911">
        <ele>499.94</ele>
        <time>2018-11-04T11:28:33Z</time>
      </trkpt>
      <trkpt lat="43.55976" lon="5.69939">
        <ele>500.34</ele>
        <time>2018-11-04T11:28:40Z</time>
      </trkpt>
      <trkpt lat="43.55975" lon="5.69966">
        <ele>501.64</ele>
        <time>2018-11-04T11:28:47Z</time>
      </trkpt>
      <trkpt lat="43.55971" lon="5.69994">
        <ele>502.78</ele>
        <time>2018-11-04T11:28:54Z</time>
      </trkpt>
      <trkpt lat="43.55969" lon="5.70022">
        <ele>503.35</ele>
        <time>2018-11-04T11:29:01Z</time>
      </trkpt>
      <trkpt lat="43.55961" lon="5.70047">
        <ele>504.2</ele>
        <time>2018-11-04T11:29:07Z</time>
      </trkpt>
      <trkpt lat="43.55951" lon="5.70072">
        <ele>505.14</ele>
        <time>2018-11-04T11:29:13Z</time>
      </trkpt>
      <trkpt lat="43.55941" lon="5.70093">
        <ele>504.89</ele>
        <time>2018-11-04T11:29:19Z</time>
      </trkpt>
      <trkpt lat="43.55933" lon="5.70115">
        <ele>504.35</ele>
        <time>2018-11-04T11:29:27Z</time>
      </trkpt>
      <trkpt lat="43.55921" lon="5.70135">
        <ele>503.45</ele>
        <time>2018-11-04T11:29:38Z</time>
      </trkpt>
      <trkpt lat="43.55922" lon="5.7016">
        <ele>500.9</ele>
        <time>2018-11-04T11:34:42Z</time>
      </trkpt>
      <trkpt lat="43.55915" lon="5.70183">
        <ele>501.45</ele>
        <time>2018-11-04T11:34:50Z</time>
      </trkpt>
      <trkpt lat="43.55908" lon="5.70206">
        <ele>500.91</ele>
        <time>2018-11-04T11:34:57Z</time>
      </trkpt>
      <trkpt lat="43.55899" lon="5.7023">
        <ele>499.39</ele>
        <time>2018-11-04T11:35:04Z</time>
      </trkpt>
      <trkpt lat="43.5589" lon="5.70256">
        <ele>497.14</ele>
        <time>2018-11-04T11:35:09Z</time>
      </trkpt>
      <trkpt lat="43.55878" lon="5.70278">
        <ele>495.78</ele>
        <time>2018-11-04T11:35:14Z</time>
      </trkpt>
      <trkpt lat="43.55869" lon="5.70302">
        <ele>492.74</ele>
        <time>2018-11-04T11:35:20Z</time>
      </trkpt>
      <trkpt lat="43.55863" lon="5.70327">
        <ele>489.49</ele>
        <time>2018-11-04T11:35:26Z</time>
      </trkpt>
      <trkpt lat="43.55854" lon="5.70351">
        <ele>486.04</ele>
        <time>2018-11-04T11:35:31Z</time>
      </trkpt>
      <trkpt lat="43.55846" lon="5.70378">
        <ele>482.72</ele>
        <time>2018-11-04T11:35:36Z</time>
      </trkpt>
      <trkpt lat="43.55848" lon="5.70404">
        <ele>479.82</ele>
        <time>2018-11-04T11:35:42Z</time>
      </trkpt>
      <trkpt lat="43.55864" lon="5.70423">
        <ele>477.58</ele>
        <time>2018-11-04T11:35:48Z</time>
      </trkpt>
      <trkpt lat="43.55881" lon="5.70436">
        <ele>476.94</ele>
        <time>2018-11-04T11:35:54Z</time>
      </trkpt>
      <trkpt lat="43.55882" lon="5.70465">
        <ele>474.77</ele>
        <time>2018-11-04T11:36:04Z</time>
      </trkpt>
      <trkpt lat="43.55874" lon="5.7049">
        <ele>474.59</ele>
        <time>2018-11-04T11:36:09Z</time>
      </trkpt>
      <trkpt lat="43.55857" lon="5.70507">
        <ele>473.42</ele>
        <time>2018-11-04T11:36:14Z</time>
      </trkpt>
      <trkpt lat="43.55841" lon="5.70523">
        <ele>472.2</ele>
        <time>2018-11-04T11:36:18Z</time>
      </trkpt>
      <trkpt lat="43.55824" lon="5.70545">
        <ele>470.37</ele>
        <time>2018-11-04T11:36:22Z</time>
      </trkpt>
      <trkpt lat="43.55804" lon="5.7056">
        <ele>466.34</ele>
        <time>2018-11-04T11:36:26Z</time>
      </trkpt>
      <trkpt lat="43.55789" lon="5.70575">
        <ele>464.07</ele>
        <time>2018-11-04T11:36:29Z</time>
      </trkpt>
      <trkpt lat="43.5577" lon="5.70592">
        <ele>461.29</ele>
        <time>2018-11-04T11:36:33Z</time>
      </trkpt>
      <trkpt lat="43.5575" lon="5.70589">
        <ele>458.2</ele>
        <time>2018-11-04T11:36:37Z</time>
      </trkpt>
      <trkpt lat="43.5573" lon="5.70589">
        <ele>454.57</ele>
        <time>2018-11-04T11:36:41Z</time>
      </trkpt>
      <trkpt lat="43.55711" lon="5.70604">
        <ele>453.14</ele>
        <time>2018-11-04T11:36:45Z</time>
      </trkpt>
      <trkpt lat="43.55697" lon="5.70621">
        <ele>451.59</ele>
        <time>2018-11-04T11:36:48Z</time>
      </trkpt>
      <trkpt lat="43.55683" lon="5.70638">
        <ele>451.2</ele>
        <time>2018-11-04T11:36:51Z</time>
      </trkpt>
      <trkpt lat="43.55667" lon="5.70658">
        <ele>450.8</ele>
        <time>2018-11-04T11:36:55Z</time>
      </trkpt>
      <trkpt lat="43.55648" lon="5.70672">
        <ele>451.41</ele>
        <time>2018-11-04T11:37:00Z</time>
      </trkpt>
      <trkpt lat="43.55633" lon="5.7066">
        <ele>446.34</ele>
        <time>2018-11-04T11:37:11Z</time>
      </trkpt>
      <trkpt lat="43.5563" lon="5.70634">
        <ele>444.27</ele>
        <time>2018-11-04T11:37:21Z</time>
      </trkpt>
      <trkpt lat="43.55627" lon="5.70608">
        <ele>445.26</ele>
        <time>2018-11-04T11:37:30Z</time>
      </trkpt>
      <trkpt lat="43.55625" lon="5.70583">
        <ele>447</ele>
        <time>2018-11-04T11:37:39Z</time>
      </trkpt>
      <trkpt lat="43.55606" lon="5.70574">
        <ele>447.76</ele>
        <time>2018-11-04T11:37:48Z</time>
      </trkpt>
      <trkpt lat="43.55587" lon="5.70585">
        <ele>448.52</ele>
        <time>2018-11-04T11:37:56Z</time>
      </trkpt>
      <trkpt lat="43.5557" lon="5.70594">
        <ele>450.08</ele>
        <time>2018-11-04T11:38:04Z</time>
      </trkpt>
      <trkpt lat="43.55551" lon="5.706">
        <ele>451.06</ele>
        <time>2018-11-04T11:38:12Z</time>
      </trkpt>
      <trkpt lat="43.55532" lon="5.70604">
        <ele>452.99</ele>
        <time>2018-11-04T11:38:20Z</time>
      </trkpt>
      <trkpt lat="43.55512" lon="5.70612">
        <ele>453.97</ele>
        <time>2018-11-04T11:38:27Z</time>
      </trkpt>
      <trkpt lat="43.55493" lon="5.70618">
        <ele>455.39</ele>
        <time>2018-11-04T11:38:32Z</time>
      </trkpt>
      <trkpt lat="43.55474" lon="5.70626">
        <ele>455.55</ele>
        <time>2018-11-04T11:38:37Z</time>
      </trkpt>
      <trkpt lat="43.55454" lon="5.70636">
        <ele>455.2</ele>
        <time>2018-11-04T11:38:42Z</time>
      </trkpt>
      <trkpt lat="43.55436" lon="5.70645">
        <ele>455.03</ele>
        <time>2018-11-04T11:38:47Z</time>
      </trkpt>
      <trkpt lat="43.55417" lon="5.70652">
        <ele>455.39</ele>
        <time>2018-11-04T11:38:53Z</time>
      </trkpt>
      <trkpt lat="43.55398" lon="5.70659">
        <ele>454.63</ele>
        <time>2018-11-04T11:38:59Z</time>
      </trkpt>
      <trkpt lat="43.55377" lon="5.70665">
        <ele>453.84</ele>
        <time>2018-11-04T11:39:05Z</time>
      </trkpt>
      <trkpt lat="43.55359" lon="5.70666">
        <ele>453.13</ele>
        <time>2018-11-04T11:39:10Z</time>
      </trkpt>
      <trkpt lat="43.55338" lon="5.70669">
        <ele>452.97</ele>
        <time>2018-11-04T11:39:16Z</time>
      </trkpt>
      <trkpt lat="43.55318" lon="5.70666">
        <ele>451.95</ele>
        <time>2018-11-04T11:39:21Z</time>
      </trkpt>
      <trkpt lat="43.55296" lon="5.70664">
        <ele>450.72</ele>
        <time>2018-11-04T11:39:26Z</time>
      </trkpt>
      <trkpt lat="43.55275" lon="5.70661">
        <ele>449.78</ele>
        <time>2018-11-04T11:39:31Z</time>
      </trkpt>
      <trkpt lat="43.55257" lon="5.70658">
        <ele>448.13</ele>
        <time>2018-11-04T11:39:35Z</time>
      </trkpt>
      <trkpt lat="43.55237" lon="5.70656">
        <ele>446.87</ele>
        <time>2018-11-04T11:39:39Z</time>
      </trkpt>
      <trkpt lat="43.55219" lon="5.70652">
        <ele>446.02</ele>
        <time>2018-11-04T11:39:43Z</time>
      </trkpt>
      <trkpt lat="43.55201" lon="5.70649">
        <ele>445.69</ele>
        <time>2018-11-04T11:39:47Z</time>
      </trkpt>
      <trkpt lat="43.55181" lon="5.70645">
        <ele>444.33</ele>
        <time>2018-11-04T11:39:51Z</time>
      </trkpt>
      <trkpt lat="43.55162" lon="5.70639">
        <ele>443.39</ele>
        <time>2018-11-04T11:39:55Z</time>
      </trkpt>
      <trkpt lat="43.55145" lon="5.70629">
        <ele>443.28</ele>
        <time>2018-11-04T11:39:59Z</time>
      </trkpt>
      <trkpt lat="43.55127" lon="5.70624">
        <ele>443.66</ele>
        <time>2018-11-04T11:40:03Z</time>
      </trkpt>
      <trkpt lat="43.55106" lon="5.70624">
        <ele>443.83</ele>
        <time>2018-11-04T11:40:08Z</time>
      </trkpt>
      <trkpt lat="43.55086" lon="5.7062">
        <ele>444.01</ele>
        <time>2018-11-04T11:40:13Z</time>
      </trkpt>
      <trkpt lat="43.55068" lon="5.70613">
        <ele>444.59</ele>
        <time>2018-11-04T11:40:18Z</time>
      </trkpt>
      <trkpt lat="43.55048" lon="5.70608">
        <ele>444.85</ele>
        <time>2018-11-04T11:40:24Z</time>
      </trkpt>
      <trkpt lat="43.5503" lon="5.70606">
        <ele>445.96</ele>
        <time>2018-11-04T11:40:30Z</time>
      </trkpt>
      <trkpt lat="43.55009" lon="5.70603">
        <ele>447.81</ele>
        <time>2018-11-04T11:40:36Z</time>
      </trkpt>
      <trkpt lat="43.5499" lon="5.706">
        <ele>447.78</ele>
        <time>2018-11-04T11:40:41Z</time>
      </trkpt>
      <trkpt lat="43.5497" lon="5.70598">
        <ele>449.09</ele>
        <time>2018-11-04T11:40:47Z</time>
      </trkpt>
      <trkpt lat="43.54949" lon="5.70595">
        <ele>450.08</ele>
        <time>2018-11-04T11:40:53Z</time>
      </trkpt>
      <trkpt lat="43.54928" lon="5.70591">
        <ele>451.03</ele>
        <time>2018-11-04T11:40:58Z</time>
      </trkpt>
      <trkpt lat="43.5491" lon="5.70587">
        <ele>450.15</ele>
        <time>2018-11-04T11:41:02Z</time>
      </trkpt>
      <trkpt lat="43.54888" lon="5.70587">
        <ele>449.63</ele>
        <time>2018-11-04T11:41:06Z</time>
      </trkpt>
      <trkpt lat="43.54868" lon="5.70589">
        <ele>450.67</ele>
        <time>2018-11-04T11:41:11Z</time>
      </trkpt>
      <trkpt lat="43.54847" lon="5.7059">
        <ele>453.54</ele>
        <time>2018-11-04T11:41:17Z</time>
      </trkpt>
      <trkpt lat="43.54828" lon="5.7059">
        <ele>452.26</ele>
        <time>2018-11-04T11:41:22Z</time>
      </trkpt>
      <trkpt lat="43.54808" lon="5.70588">
        <ele>452.17</ele>
        <time>2018-11-04T11:41:27Z</time>
      </trkpt>
      <trkpt lat="43.54789" lon="5.70585">
        <ele>451.55</ele>
        <time>2018-11-04T11:41:32Z</time>
      </trkpt>
      <trkpt lat="43.5477" lon="5.7058">
        <ele>450.51</ele>
        <time>2018-11-04T11:41:37Z</time>
      </trkpt>
      <trkpt lat="43.54751" lon="5.70577">
        <ele>449.96</ele>
        <time>2018-11-04T11:41:42Z</time>
      </trkpt>
      <trkpt lat="43.54732" lon="5.70574">
        <ele>447.89</ele>
        <time>2018-11-04T11:41:47Z</time>
      </trkpt>
      <trkpt lat="43.54711" lon="5.7057">
        <ele>449.26</ele>
        <time>2018-11-04T11:41:53Z</time>
      </trkpt>
      <trkpt lat="43.54694" lon="5.70562">
        <ele>450.5</ele>
        <time>2018-11-04T11:42:01Z</time>
      </trkpt>
      <trkpt lat="43.54676" lon="5.70554">
        <ele>452.32</ele>
        <time>2018-11-04T11:42:09Z</time>
      </trkpt>
      <trkpt lat="43.54658" lon="5.70556">
        <ele>451.43</ele>
        <time>2018-11-04T11:42:15Z</time>
      </trkpt>
      <trkpt lat="43.54642" lon="5.70569">
        <ele>450.27</ele>
        <time>2018-11-04T11:42:20Z</time>
      </trkpt>
      <trkpt lat="43.5463" lon="5.7059">
        <ele>449.39</ele>
        <time>2018-11-04T11:42:25Z</time>
      </trkpt>
      <trkpt lat="43.54617" lon="5.7061">
        <ele>448.28</ele>
        <time>2018-11-04T11:42:29Z</time>
      </trkpt>
      <trkpt lat="43.54601" lon="5.70631">
        <ele>447.97</ele>
        <time>2018-11-04T11:42:33Z</time>
      </trkpt>
      <trkpt lat="43.54584" lon="5.70654">
        <ele>447.87</ele>
        <time>2018-11-04T11:42:37Z</time>
      </trkpt>
      <trkpt lat="43.5457" lon="5.70671">
        <ele>447.85</ele>
        <time>2018-11-04T11:42:40Z</time>
      </trkpt>
      <trkpt lat="43.54558" lon="5.70691">
        <ele>447.93</ele>
        <time>2018-11-04T11:42:43Z</time>
      </trkpt>
      <trkpt lat="43.54545" lon="5.70711">
        <ele>448.14</ele>
        <time>2018-11-04T11:42:46Z</time>
      </trkpt>
      <trkpt lat="43.54532" lon="5.70732">
        <ele>448.32</ele>
        <time>2018-11-04T11:42:49Z</time>
      </trkpt>
      <trkpt lat="43.54519" lon="5.70754">
        <ele>448.27</ele>
        <time>2018-11-04T11:42:52Z</time>
      </trkpt>
      <trkpt lat="43.54506" lon="5.70775">
        <ele>448.07</ele>
        <time>2018-11-04T11:42:55Z</time>
      </trkpt>
      <trkpt lat="43.54493" lon="5.70794">
        <ele>447.95</ele>
        <time>2018-11-04T11:42:58Z</time>
      </trkpt>
      <trkpt lat="43.54478" lon="5.70817">
        <ele>447.95</ele>
        <time>2018-11-04T11:43:02Z</time>
      </trkpt>
      <trkpt lat="43.54463" lon="5.70841">
        <ele>448.62</ele>
        <time>2018-11-04T11:43:06Z</time>
      </trkpt>
      <trkpt lat="43.54449" lon="5.70866">
        <ele>449.58</ele>
        <time>2018-11-04T11:43:10Z</time>
      </trkpt>
      <trkpt lat="43.54436" lon="5.7089">
        <ele>450.1</ele>
        <time>2018-11-04T11:43:14Z</time>
      </trkpt>
      <trkpt lat="43.54426" lon="5.70913">
        <ele>449.69</ele>
        <time>2018-11-04T11:43:18Z</time>
      </trkpt>
      <trkpt lat="43.54413" lon="5.70937">
        <ele>449.17</ele>
        <time>2018-11-04T11:43:23Z</time>
      </trkpt>
      <trkpt lat="43.544" lon="5.70957">
        <ele>448.08</ele>
        <time>2018-11-04T11:43:28Z</time>
      </trkpt>
      <trkpt lat="43.54387" lon="5.70976">
        <ele>447.29</ele>
        <time>2018-11-04T11:43:33Z</time>
      </trkpt>
      <trkpt lat="43.54372" lon="5.70996">
        <ele>446.71</ele>
        <time>2018-11-04T11:43:38Z</time>
      </trkpt>
      <trkpt lat="43.54358" lon="5.71017">
        <ele>445.99</ele>
        <time>2018-11-04T11:43:43Z</time>
      </trkpt>
      <trkpt lat="43.54345" lon="5.71037">
        <ele>445.03</ele>
        <time>2018-11-04T11:43:48Z</time>
      </trkpt>
      <trkpt lat="43.5433" lon="5.7106">
        <ele>444.65</ele>
        <time>2018-11-04T11:43:53Z</time>
      </trkpt>
      <trkpt lat="43.54317" lon="5.71077">
        <ele>445.49</ele>
        <time>2018-11-04T11:43:58Z</time>
      </trkpt>
      <trkpt lat="43.54305" lon="5.71098">
        <ele>447.75</ele>
        <time>2018-11-04T11:44:05Z</time>
      </trkpt>
      <trkpt lat="43.54293" lon="5.71117">
        <ele>451.41</ele>
        <time>2018-11-04T11:44:13Z</time>
      </trkpt>
      <trkpt lat="43.54282" lon="5.71137">
        <ele>454.25</ele>
        <time>2018-11-04T11:44:21Z</time>
      </trkpt>
      <trkpt lat="43.5427" lon="5.71156">
        <ele>454.08</ele>
        <time>2018-11-04T11:44:28Z</time>
      </trkpt>
      <trkpt lat="43.54258" lon="5.71177">
        <ele>454.67</ele>
        <time>2018-11-04T11:44:35Z</time>
      </trkpt>
      <trkpt lat="43.54245" lon="5.71197">
        <ele>455.15</ele>
        <time>2018-11-04T11:44:42Z</time>
      </trkpt>
      <trkpt lat="43.54232" lon="5.71219">
        <ele>455.61</ele>
        <time>2018-11-04T11:44:50Z</time>
      </trkpt>
      <trkpt lat="43.54221" lon="5.71238">
        <ele>458.13</ele>
        <time>2018-11-04T11:44:57Z</time>
      </trkpt>
      <trkpt lat="43.54208" lon="5.71259">
        <ele>459.89</ele>
        <time>2018-11-04T11:45:04Z</time>
      </trkpt>
      <trkpt lat="43.54195" lon="5.7128">
        <ele>460.93</ele>
        <time>2018-11-04T11:45:11Z</time>
      </trkpt>
      <trkpt lat="43.54183" lon="5.71301">
        <ele>461.9</ele>
        <time>2018-11-04T11:45:18Z</time>
      </trkpt>
      <trkpt lat="43.54171" lon="5.71321">
        <ele>461.27</ele>
        <time>2018-11-04T11:45:25Z</time>
      </trkpt>
      <trkpt lat="43.54158" lon="5.7134">
        <ele>461.44</ele>
        <time>2018-11-04T11:45:32Z</time>
      </trkpt>
      <trkpt lat="43.54146" lon="5.71359">
        <ele>461.35</ele>
        <time>2018-11-04T11:45:39Z</time>
      </trkpt>
      <trkpt lat="43.54133" lon="5.71376">
        <ele>461.06</ele>
        <time>2018-11-04T11:45:46Z</time>
      </trkpt>
      <trkpt lat="43.54119" lon="5.71393">
        <ele>460.32</ele>
        <time>2018-11-04T11:45:53Z</time>
      </trkpt>
      <trkpt lat="43.54104" lon="5.71411">
        <ele>459.89</ele>
        <time>2018-11-04T11:46:01Z</time>
      </trkpt>
      <trkpt lat="43.54088" lon="5.71429">
        <ele>459.17</ele>
        <time>2018-11-04T11:46:09Z</time>
      </trkpt>
      <trkpt lat="43.54072" lon="5.71445">
        <ele>459.76</ele>
        <time>2018-11-04T11:46:17Z</time>
      </trkpt>
      <trkpt lat="43.54057" lon="5.71462">
        <ele>459.59</ele>
        <time>2018-11-04T11:46:25Z</time>
      </trkpt>
      <trkpt lat="43.54042" lon="5.71479">
        <ele>460.5</ele>
        <time>2018-11-04T11:46:32Z</time>
      </trkpt>
      <trkpt lat="43.54026" lon="5.71497">
        <ele>461.42</ele>
        <time>2018-11-04T11:46:39Z</time>
      </trkpt>
      <trkpt lat="43.54009" lon="5.71515">
        <ele>461.84</ele>
        <time>2018-11-04T11:46:45Z</time>
      </trkpt>
      <trkpt lat="43.53989" lon="5.71527">
        <ele>460.5</ele>
        <time>2018-11-04T11:46:51Z</time>
      </trkpt>
      <trkpt lat="43.53972" lon="5.71536">
        <ele>460.23</ele>
        <time>2018-11-04T11:46:57Z</time>
      </trkpt>
      <trkpt lat="43.53953" lon="5.71544">
        <ele>458.44</ele>
        <time>2018-11-04T11:47:05Z</time>
      </trkpt>
      <trkpt lat="43.53933" lon="5.71545">
        <ele>452.29</ele>
        <time>2018-11-04T11:52:00Z</time>
      </trkpt>
      <trkpt lat="43.53914" lon="5.71548">
        <ele>451</ele>
        <time>2018-11-04T11:52:04Z</time>
      </trkpt>
      <trkpt lat="43.53896" lon="5.71551">
        <ele>449.8</ele>
        <time>2018-11-04T11:52:07Z</time>
      </trkpt>
      <trkpt lat="43.53875" lon="5.71553">
        <ele>448.69</ele>
        <time>2018-11-04T11:52:10Z</time>
      </trkpt>
      <trkpt lat="43.53853" lon="5.71556">
        <ele>446.22</ele>
        <time>2018-11-04T11:52:13Z</time>
      </trkpt>
      <trkpt lat="43.53828" lon="5.71559">
        <ele>444.38</ele>
        <time>2018-11-04T11:52:16Z</time>
      </trkpt>
      <trkpt lat="43.53803" lon="5.71564">
        <ele>442.58</ele>
        <time>2018-11-04T11:52:19Z</time>
      </trkpt>
      <trkpt lat="43.53778" lon="5.71568">
        <ele>440.98</ele>
        <time>2018-11-04T11:52:22Z</time>
      </trkpt>
      <trkpt lat="43.53753" lon="5.71572">
        <ele>439.26</ele>
        <time>2018-11-04T11:52:25Z</time>
      </trkpt>
      <trkpt lat="43.53733" lon="5.71576">
        <ele>437.67</ele>
        <time>2018-11-04T11:52:28Z</time>
      </trkpt>
      <trkpt lat="43.53721" lon="5.71554">
        <ele>436.11</ele>
        <time>2018-11-04T11:52:33Z</time>
      </trkpt>
      <trkpt lat="43.53728" lon="5.71526">
        <ele>435.55</ele>
        <time>2018-11-04T11:52:37Z</time>
      </trkpt>
      <trkpt lat="43.53743" lon="5.71502">
        <ele>434.95</ele>
        <time>2018-11-04T11:52:41Z</time>
      </trkpt>
      <trkpt lat="43.53755" lon="5.71473">
        <ele>433.83</ele>
        <time>2018-11-04T11:52:45Z</time>
      </trkpt>
      <trkpt lat="43.53754" lon="5.71442">
        <ele>432.58</ele>
        <time>2018-11-04T11:52:49Z</time>
      </trkpt>
      <trkpt lat="43.53741" lon="5.71425">
        <ele>431.17</ele>
        <time>2018-11-04T11:52:52Z</time>
      </trkpt>
      <trkpt lat="43.53725" lon="5.71408">
        <ele>430.09</ele>
        <time>2018-11-04T11:52:55Z</time>
      </trkpt>
      <trkpt lat="43.53713" lon="5.71388">
        <ele>429.5</ele>
        <time>2018-11-04T11:52:58Z</time>
      </trkpt>
      <trkpt lat="43.53702" lon="5.71368">
        <ele>429.07</ele>
        <time>2018-11-04T11:53:01Z</time>
      </trkpt>
      <trkpt lat="43.53688" lon="5.71344">
        <ele>429.26</ele>
        <time>2018-11-04T11:53:05Z</time>
      </trkpt>
      <trkpt lat="43.53674" lon="5.71321">
        <ele>428.64</ele>
        <time>2018-11-04T11:53:09Z</time>
      </trkpt>
      <trkpt lat="43.53659" lon="5.71297">
        <ele>428.29</ele>
        <time>2018-11-04T11:53:13Z</time>
      </trkpt>
      <trkpt lat="43.53647" lon="5.71277">
        <ele>427.33</ele>
        <time>2018-11-04T11:53:16Z</time>
      </trkpt>
      <trkpt lat="43.53634" lon="5.71255">
        <ele>426.42</ele>
        <time>2018-11-04T11:53:19Z</time>
      </trkpt>
      <trkpt lat="43.53621" lon="5.71233">
        <ele>425.71</ele>
        <time>2018-11-04T11:53:22Z</time>
      </trkpt>
      <trkpt lat="43.53608" lon="5.71213">
        <ele>425.28</ele>
        <time>2018-11-04T11:53:25Z</time>
      </trkpt>
      <trkpt lat="43.53594" lon="5.71194">
        <ele>424.86</ele>
        <time>2018-11-04T11:53:28Z</time>
      </trkpt>
      <trkpt lat="43.53581" lon="5.71175">
        <ele>424.78</ele>
        <time>2018-11-04T11:53:31Z</time>
      </trkpt>
      <trkpt lat="43.53568" lon="5.71155">
        <ele>423.74</ele>
        <time>2018-11-04T11:53:34Z</time>
      </trkpt>
      <trkpt lat="43.53556" lon="5.71134">
        <ele>422.9</ele>
        <time>2018-11-04T11:53:37Z</time>
      </trkpt>
      <trkpt lat="43.53547" lon="5.71109">
        <ele>422.18</ele>
        <time>2018-11-04T11:53:40Z</time>
      </trkpt>
      <trkpt lat="43.5354" lon="5.71084">
        <ele>421.78</ele>
        <time>2018-11-04T11:53:43Z</time>
      </trkpt>
      <trkpt lat="43.53532" lon="5.71059">
        <ele>420.66</ele>
        <time>2018-11-04T11:53:46Z</time>
      </trkpt>
      <trkpt lat="43.53522" lon="5.71031">
        <ele>420.16</ele>
        <time>2018-11-04T11:53:50Z</time>
      </trkpt>
      <trkpt lat="43.53511" lon="5.71005">
        <ele>420.31</ele>
        <time>2018-11-04T11:53:54Z</time>
      </trkpt>
      <trkpt lat="43.535" lon="5.70981">
        <ele>420.51</ele>
        <time>2018-11-04T11:53:58Z</time>
      </trkpt>
      <trkpt lat="43.5349" lon="5.70956">
        <ele>420.73</ele>
        <time>2018-11-04T11:54:02Z</time>
      </trkpt>
      <trkpt lat="43.53481" lon="5.70929">
        <ele>420.36</ele>
        <time>2018-11-04T11:54:06Z</time>
      </trkpt>
      <trkpt lat="43.53472" lon="5.70899">
        <ele>420.22</ele>
        <time>2018-11-04T11:54:10Z</time>
      </trkpt>
      <trkpt lat="43.53466" lon="5.70869">
        <ele>420.28</ele>
        <time>2018-11-04T11:54:14Z</time>
      </trkpt>
      <trkpt lat="43.53457" lon="5.70841">
        <ele>420.14</ele>
        <time>2018-11-04T11:54:18Z</time>
      </trkpt>
      <trkpt lat="43.53445" lon="5.70815">
        <ele>419.79</ele>
        <time>2018-11-04T11:54:22Z</time>
      </trkpt>
      <trkpt lat="43.53435" lon="5.70789">
        <ele>420.01</ele>
        <time>2018-11-04T11:54:26Z</time>
      </trkpt>
      <trkpt lat="43.53426" lon="5.70763">
        <ele>420.66</ele>
        <time>2018-11-04T11:54:30Z</time>
      </trkpt>
      <trkpt lat="43.53416" lon="5.70737">
        <ele>421.12</ele>
        <time>2018-11-04T11:54:34Z</time>
      </trkpt>
      <trkpt lat="43.53405" lon="5.70711">
        <ele>421.21</ele>
        <time>2018-11-04T11:54:38Z</time>
      </trkpt>
      <trkpt lat="43.53394" lon="5.70686">
        <ele>421.74</ele>
        <time>2018-11-04T11:54:42Z</time>
      </trkpt>
      <trkpt lat="43.53383" lon="5.70659">
        <ele>422.16</ele>
        <time>2018-11-04T11:54:46Z</time>
      </trkpt>
      <trkpt lat="43.53374" lon="5.70637">
        <ele>421.65</ele>
        <time>2018-11-04T11:54:49Z</time>
      </trkpt>
      <trkpt lat="43.53364" lon="5.70614">
        <ele>421.81</ele>
        <time>2018-11-04T11:54:52Z</time>
      </trkpt>
      <trkpt lat="43.53353" lon="5.70589">
        <ele>421.64</ele>
        <time>2018-11-04T11:54:55Z</time>
      </trkpt>
      <trkpt lat="43.53341" lon="5.70563">
        <ele>421.37</ele>
        <time>2018-11-04T11:54:58Z</time>
      </trkpt>
      <trkpt lat="43.53329" lon="5.70536">
        <ele>420.91</ele>
        <time>2018-11-04T11:55:01Z</time>
      </trkpt>
      <trkpt lat="43.53316" lon="5.70506">
        <ele>420.49</ele>
        <time>2018-11-04T11:55:04Z</time>
      </trkpt>
      <trkpt lat="43.53304" lon="5.70474">
        <ele>420.43</ele>
        <time>2018-11-04T11:55:07Z</time>
      </trkpt>
      <trkpt lat="43.53294" lon="5.70443">
        <ele>420.25</ele>
        <time>2018-11-04T11:55:10Z</time>
      </trkpt>
      <trkpt lat="43.53284" lon="5.70412">
        <ele>419.62</ele>
        <time>2018-11-04T11:55:13Z</time>
      </trkpt>
      <trkpt lat="43.53277" lon="5.70382">
        <ele>419.13</ele>
        <time>2018-11-04T11:55:16Z</time>
      </trkpt>
      <trkpt lat="43.53271" lon="5.70352">
        <ele>417.61</ele>
        <time>2018-11-04T11:55:19Z</time>
      </trkpt>
      <trkpt lat="43.53268" lon="5.70323">
        <ele>414.54</ele>
        <time>2018-11-04T11:55:23Z</time>
      </trkpt>
      <trkpt lat="43.53264" lon="5.70296">
        <ele>413.34</ele>
        <time>2018-11-04T11:55:48Z</time>
      </trkpt>
      <trkpt lat="43.53268" lon="5.70269">
        <ele>413.17</ele>
        <time>2018-11-04T11:55:54Z</time>
      </trkpt>
      <trkpt lat="43.53253" lon="5.70248">
        <ele>413.35</ele>
        <time>2018-11-04T11:55:59Z</time>
      </trkpt>
      <trkpt lat="43.53235" lon="5.70234">
        <ele>411.79</ele>
        <time>2018-11-04T11:56:03Z</time>
      </trkpt>
      <trkpt lat="43.53225" lon="5.70206">
        <ele>410.97</ele>
        <time>2018-11-04T11:56:07Z</time>
      </trkpt>
      <trkpt lat="43.53221" lon="5.70182">
        <ele>410.13</ele>
        <time>2018-11-04T11:56:10Z</time>
      </trkpt>
      <trkpt lat="43.53215" lon="5.70153">
        <ele>408.31</ele>
        <time>2018-11-04T11:56:13Z</time>
      </trkpt>
      <trkpt lat="43.53209" lon="5.70123">
        <ele>405.86</ele>
        <time>2018-11-04T11:56:16Z</time>
      </trkpt>
      <trkpt lat="43.53204" lon="5.70094">
        <ele>403.62</ele>
        <time>2018-11-04T11:56:19Z</time>
      </trkpt>
      <trkpt lat="43.53202" lon="5.70059">
        <ele>400.99</ele>
        <time>2018-11-04T11:56:22Z</time>
      </trkpt>
      <trkpt lat="43.53199" lon="5.70025">
        <ele>398.55</ele>
        <time>2018-11-04T11:56:25Z</time>
      </trkpt>
      <trkpt lat="43.53202" lon="5.69999">
        <ele>397.19</ele>
        <time>2018-11-04T11:56:28Z</time>
      </trkpt>
      <trkpt lat="43.53213" lon="5.69978">
        <ele>396.03</ele>
        <time>2018-11-04T11:56:31Z</time>
      </trkpt>
      <trkpt lat="43.53222" lon="5.69954">
        <ele>394.76</ele>
        <time>2018-11-04T11:56:34Z</time>
      </trkpt>
      <trkpt lat="43.5322" lon="5.69929">
        <ele>393.39</ele>
        <time>2018-11-04T11:56:37Z</time>
      </trkpt>
      <trkpt lat="43.532" lon="5.69914">
        <ele>391.24</ele>
        <time>2018-11-04T11:56:41Z</time>
      </trkpt>
      <trkpt lat="43.53183" lon="5.69899">
        <ele>389.63</ele>
        <time>2018-11-04T11:56:44Z</time>
      </trkpt>
      <trkpt lat="43.53165" lon="5.6988">
        <ele>388.98</ele>
        <time>2018-11-04T11:56:47Z</time>
      </trkpt>
      <trkpt lat="43.53152" lon="5.69856">
        <ele>387.39</ele>
        <time>2018-11-04T11:56:50Z</time>
      </trkpt>
      <trkpt lat="43.53145" lon="5.6983">
        <ele>385.62</ele>
        <time>2018-11-04T11:56:53Z</time>
      </trkpt>
      <trkpt lat="43.53149" lon="5.69803">
        <ele>384.01</ele>
        <time>2018-11-04T11:56:56Z</time>
      </trkpt>
      <trkpt lat="43.53162" lon="5.69782">
        <ele>382.51</ele>
        <time>2018-11-04T11:56:59Z</time>
      </trkpt>
      <trkpt lat="43.53169" lon="5.69758">
        <ele>380.85</ele>
        <time>2018-11-04T11:57:03Z</time>
      </trkpt>
      <trkpt lat="43.53151" lon="5.69744">
        <ele>379.07</ele>
        <time>2018-11-04T11:57:07Z</time>
      </trkpt>
      <trkpt lat="43.53132" lon="5.69739">
        <ele>377.24</ele>
        <time>2018-11-04T11:57:10Z</time>
      </trkpt>
      <trkpt lat="43.53111" lon="5.69729">
        <ele>374.31</ele>
        <time>2018-11-04T11:57:13Z</time>
      </trkpt>
      <trkpt lat="43.53095" lon="5.69715">
        <ele>371.77</ele>
        <time>2018-11-04T11:57:16Z</time>
      </trkpt>
      <trkpt lat="43.53086" lon="5.69684">
        <ele>368.17</ele>
        <time>2018-11-04T11:57:20Z</time>
      </trkpt>
      <trkpt lat="43.53082" lon="5.69652">
        <ele>365.47</ele>
        <time>2018-11-04T11:57:23Z</time>
      </trkpt>
      <trkpt lat="43.53076" lon="5.69619">
        <ele>363.48</ele>
        <time>2018-11-04T11:57:26Z</time>
      </trkpt>
      <trkpt lat="43.5307" lon="5.69589">
        <ele>362.94</ele>
        <time>2018-11-04T11:57:29Z</time>
      </trkpt>
      <trkpt lat="43.53064" lon="5.6956">
        <ele>361.86</ele>
        <time>2018-11-04T11:57:32Z</time>
      </trkpt>
      <trkpt lat="43.53058" lon="5.69531">
        <ele>360.98</ele>
        <time>2018-11-04T11:57:35Z</time>
      </trkpt>
      <trkpt lat="43.53055" lon="5.695">
        <ele>359.18</ele>
        <time>2018-11-04T11:57:38Z</time>
      </trkpt>
      <trkpt lat="43.53054" lon="5.69465">
        <ele>355.78</ele>
        <time>2018-11-04T11:57:41Z</time>
      </trkpt>
      <trkpt lat="43.53051" lon="5.6944">
        <ele>352.02</ele>
        <time>2018-11-04T11:57:44Z</time>
      </trkpt>
      <trkpt lat="43.53028" lon="5.69442">
        <ele>347.82</ele>
        <time>2018-11-04T11:57:48Z</time>
      </trkpt>
      <trkpt lat="43.53009" lon="5.69453">
        <ele>344.89</ele>
        <time>2018-11-04T11:57:51Z</time>
      </trkpt>
      <trkpt lat="43.52988" lon="5.69464">
        <ele>342.63</ele>
        <time>2018-11-04T11:57:54Z</time>
      </trkpt>
      <trkpt lat="43.52965" lon="5.69476">
        <ele>340.81</ele>
        <time>2018-11-04T11:57:57Z</time>
      </trkpt>
      <trkpt lat="43.52947" lon="5.69477">
        <ele>339.01</ele>
        <time>2018-11-04T11:58:00Z</time>
      </trkpt>
      <trkpt lat="43.52925" lon="5.69463">
        <ele>336.56</ele>
        <time>2018-11-04T11:58:04Z</time>
      </trkpt>
      <trkpt lat="43.5291" lon="5.69446">
        <ele>335.2</ele>
        <time>2018-11-04T11:58:07Z</time>
      </trkpt>
      <trkpt lat="43.52901" lon="5.69424">
        <ele>331.27</ele>
        <time>2018-11-04T11:58:10Z</time>
      </trkpt>
      <trkpt lat="43.52894" lon="5.69394">
        <ele>328.16</ele>
        <time>2018-11-04T11:58:13Z</time>
      </trkpt>
      <trkpt lat="43.52888" lon="5.69362">
        <ele>325.78</ele>
        <time>2018-11-04T11:58:16Z</time>
      </trkpt>
      <trkpt lat="43.52884" lon="5.69328">
        <ele>323.6</ele>
        <time>2018-11-04T11:58:19Z</time>
      </trkpt>
      <trkpt lat="43.52882" lon="5.69297">
        <ele>321.26</ele>
        <time>2018-11-04T11:58:22Z</time>
      </trkpt>
      <trkpt lat="43.52883" lon="5.69267">
        <ele>319.4</ele>
        <time>2018-11-04T11:58:25Z</time>
      </trkpt>
      <trkpt lat="43.52873" lon="5.69246">
        <ele>317.58</ele>
        <time>2018-11-04T11:58:28Z</time>
      </trkpt>
      <trkpt lat="43.52849" lon="5.69241">
        <ele>315.26</ele>
        <time>2018-11-04T11:58:31Z</time>
      </trkpt>
      <trkpt lat="43.52822" lon="5.69241">
        <ele>313.01</ele>
        <time>2018-11-04T11:58:34Z</time>
      </trkpt>
      <trkpt lat="43.52802" lon="5.69236">
        <ele>311</ele>
        <time>2018-11-04T11:58:37Z</time>
      </trkpt>
      <trkpt lat="43.52785" lon="5.69214">
        <ele>307.76</ele>
        <time>2018-11-04T11:58:41Z</time>
      </trkpt>
      <trkpt lat="43.52777" lon="5.6919">
        <ele>306.49</ele>
        <time>2018-11-04T11:58:44Z</time>
      </trkpt>
      <trkpt lat="43.52765" lon="5.69161">
        <ele>305.25</ele>
        <time>2018-11-04T11:58:47Z</time>
      </trkpt>
      <trkpt lat="43.52754" lon="5.69135">
        <ele>305.16</ele>
        <time>2018-11-04T11:58:50Z</time>
      </trkpt>
      <trkpt lat="43.52744" lon="5.6911">
        <ele>305.04</ele>
        <time>2018-11-04T11:58:53Z</time>
      </trkpt>
      <trkpt lat="43.52734" lon="5.69084">
        <ele>305.4</ele>
        <time>2018-11-04T11:58:56Z</time>
      </trkpt>
      <trkpt lat="43.52727" lon="5.69058">
        <ele>305.72</ele>
        <time>2018-11-04T11:58:59Z</time>
      </trkpt>
      <trkpt lat="43.52714" lon="5.69033">
        <ele>305.76</ele>
        <time>2018-11-04T11:59:03Z</time>
      </trkpt>
      <trkpt lat="43.52697" lon="5.69013">
        <ele>305.39</ele>
        <time>2018-11-04T11:59:07Z</time>
      </trkpt>
      <trkpt lat="43.52691" lon="5.68988">
        <ele>304.59</ele>
        <time>2018-11-04T11:59:10Z</time>
      </trkpt>
      <trkpt lat="43.52687" lon="5.68958">
        <ele>303.17</ele>
        <time>2018-11-04T11:59:13Z</time>
      </trkpt>
      <trkpt lat="43.52683" lon="5.68927">
        <ele>300.96</ele>
        <time>2018-11-04T11:59:16Z</time>
      </trkpt>
      <trkpt lat="43.52679" lon="5.68896">
        <ele>299.75</ele>
        <time>2018-11-04T11:59:19Z</time>
      </trkpt>
      <trkpt lat="43.52676" lon="5.68866">
        <ele>298.16</ele>
        <time>2018-11-04T11:59:22Z</time>
      </trkpt>
      <trkpt lat="43.52675" lon="5.68835">
        <ele>296.41</ele>
        <time>2018-11-04T11:59:25Z</time>
      </trkpt>
      <trkpt lat="43.52672" lon="5.68806">
        <ele>295.32</ele>
        <time>2018-11-04T11:59:28Z</time>
      </trkpt>
      <trkpt lat="43.52663" lon="5.68777">
        <ele>295.07</ele>
        <time>2018-11-04T11:59:31Z</time>
      </trkpt>
      <trkpt lat="43.52652" lon="5.68749">
        <ele>294.84</ele>
        <time>2018-11-04T11:59:34Z</time>
      </trkpt>
      <trkpt lat="43.52641" lon="5.68723">
        <ele>295.04</ele>
        <time>2018-11-04T11:59:37Z</time>
      </trkpt>
      <trkpt lat="43.5263" lon="5.68699">
        <ele>295.95</ele>
        <time>2018-11-04T11:59:40Z</time>
      </trkpt>
      <trkpt lat="43.5262" lon="5.68678">
        <ele>296.87</ele>
        <time>2018-11-04T11:59:43Z</time>
      </trkpt>
      <trkpt lat="43.52611" lon="5.68649">
        <ele>298</ele>
        <time>2018-11-04T11:59:47Z</time>
      </trkpt>
      <trkpt lat="43.52609" lon="5.68621">
        <ele>299.22</ele>
        <time>2018-11-04T11:59:51Z</time>
      </trkpt>
      <trkpt lat="43.52611" lon="5.68591">
        <ele>299.39</ele>
        <time>2018-11-04T11:59:55Z</time>
      </trkpt>
      <trkpt lat="43.52615" lon="5.68566">
        <ele>299.71</ele>
        <time>2018-11-04T11:59:58Z</time>
      </trkpt>
      <trkpt lat="43.52621" lon="5.68541">
        <ele>300.43</ele>
        <time>2018-11-04T12:00:01Z</time>
      </trkpt>
      <trkpt lat="43.52628" lon="5.68517">
        <ele>300.75</ele>
        <time>2018-11-04T12:00:04Z</time>
      </trkpt>
      <trkpt lat="43.52635" lon="5.68493">
        <ele>301.84</ele>
        <time>2018-11-04T12:00:07Z</time>
      </trkpt>
      <trkpt lat="43.52642" lon="5.68464">
        <ele>303.17</ele>
        <time>2018-11-04T12:00:11Z</time>
      </trkpt>
      <trkpt lat="43.52646" lon="5.68436">
        <ele>304.26</ele>
        <time>2018-11-04T12:00:15Z</time>
      </trkpt>
      <trkpt lat="43.52649" lon="5.68409">
        <ele>304.83</ele>
        <time>2018-11-04T12:00:19Z</time>
      </trkpt>
      <trkpt lat="43.52649" lon="5.68378">
        <ele>305.23</ele>
        <time>2018-11-04T12:00:24Z</time>
      </trkpt>
      <trkpt lat="43.52647" lon="5.68353">
        <ele>305.94</ele>
        <time>2018-11-04T12:00:28Z</time>
      </trkpt>
      <trkpt lat="43.52643" lon="5.68326">
        <ele>305.71</ele>
        <time>2018-11-04T12:00:33Z</time>
      </trkpt>
      <trkpt lat="43.52639" lon="5.68299">
        <ele>306.76</ele>
        <time>2018-11-04T12:00:38Z</time>
      </trkpt>
      <trkpt lat="43.52636" lon="5.68272">
        <ele>307.66</ele>
        <time>2018-11-04T12:00:43Z</time>
      </trkpt>
      <trkpt lat="43.52633" lon="5.68245">
        <ele>307.13</ele>
        <time>2018-11-04T12:00:47Z</time>
      </trkpt>
      <trkpt lat="43.52633" lon="5.68219">
        <ele>306.19</ele>
        <time>2018-11-04T12:00:50Z</time>
      </trkpt>
      <trkpt lat="43.52636" lon="5.68191">
        <ele>305.52</ele>
        <time>2018-11-04T12:00:53Z</time>
      </trkpt>
      <trkpt lat="43.5264" lon="5.68166">
        <ele>305.64</ele>
        <time>2018-11-04T12:00:57Z</time>
      </trkpt>
    </trkseg>
  </trk>
</gpx>